ftp/pub/palmer/observations_modified/2019/August/AR190818_BASE.txt

Download

Sample DateTime	Unit Id	WS Avg 2min	WD Avg 2min	WGS 10min	WGD 10min	Air Temp	Rel Humidity	Dew Point	Pyranometer	Quantum	Air Pressure	Snow Level	Rainfall	PW Current	Visibility	CBase 1	CBase 2	CBase 3	Vert Vis
2019/08/18  00:00:02  BASE  0.87612  276  1.48176  220  -6.1  100   -6.1  0     0     1008.2   NA       0.0000   9999     850   0     0    
2019/08/18  00:01:02  BASE  0.78204  278  1.45236  234  -6.1  100   -6.1  0     0     1008.2   NA       0.0000   9999     790   0     0    
2019/08/18  00:02:02  BASE  0.39396  286  1.32888  242  -6.1  100   -6.1  0     0     1008.2   NA       0.0000   9999     720   0     0    
2019/08/18  00:03:02  BASE  0.22932  294  1.32888  242  -6.1  100   -6.1  0     0     1008.1   NA       0.0000   9999     790   0     0    
2019/08/18  00:04:02  BASE  0.45864  313  1.32888  242  -6.0  100   -6.0  0     0     1008.0   NA       0.0000   9999     950   3380  0    
2019/08/18  00:05:03  BASE  0.84672  322  1.32888  242  -6.0  100   -6.0  0     0     1008.0   NA       0.0000   9999     950   0     0    
2019/08/18  00:06:02  BASE  1.21128  320  1.48176  329  -6.0  100   -6.0  0     0     1008.0   NA       0.0000   9999     950   3380  0    
2019/08/18  00:07:02  BASE  1.69932  324  2.42256  319  -6.0  100   -6.0  0     0     1008.0   NA       0.0000   9999     980   3350  0    
2019/08/18  00:08:02  BASE  2.24616  319  2.63424  305  -6.0  100   -6.0  0     0     1007.9   NA       0.0000   9999     890   3310  0    
2019/08/18  00:09:02  BASE  2.94     306  3.75144  304  -6.0  100   -6.0  0     0     1007.9   NA       0.0000   9999     890   3310  0    
2019/08/18  00:10:02  BASE  3.27516  297  3.75144  304  -6.0  100   -6.0  0     0     1007.9   NA       0.0000   9999     690   3250  0    
2019/08/18  00:11:02  BASE  3.19872  297  3.75144  304  -6.0  100   -6.0  0     0     1007.9   NA       0.0000   9999     660   3180  0    
2019/08/18  00:12:03  BASE  3.234    300  3.75144  304  -6.0  100   -6.0  0     0     1007.8   NA       0.0000   9999     620   3180  0    
2019/08/18  00:13:02  BASE  3.3222   299  3.96312  287  -6.0  100   -6.0  0     0     1007.9   NA       0.0000   9999     490   3280  0    
2019/08/18  00:14:03  BASE  3.30456  300  3.96312  287  -6.0  100   -6.0  0     0     1007.9   NA       0.0000   9999     430   3250  0    
2019/08/18  00:15:02  BASE  2.94588  297  3.96312  287  -6.0  100   -6.0  0     0     1007.9   NA       0.0000   9999     720   3310  0    
2019/08/18  00:16:03  BASE  2.90472  288  3.96312  287  -6.0  100   -6.0  0     0     1007.9   NA       0.0000   9999     890   3380  0    
2019/08/18  00:17:02  BASE  2.90472  281  3.96312  287  -6.0  100   -6.0  0     0     1008.0   NA       0.0000   9999     920   3450  0    
2019/08/18  00:18:02  BASE  2.71068  273  3.96312  287  -6.0  100   -6.0  0     0     1008.0   NA       0.0000   9999     1050  3380  0    
2019/08/18  00:19:03  BASE  2.5284   271  3.96312  287  -6.0  100   -6.0  0     0     1008.0   NA       0.0000   9999     1020  3450  0    
2019/08/18  00:20:02  BASE  2.45196  272  3.96312  287  -6.0  100   -6.0  0     0     1008.0   NA       0.0000   9999     950   0     0    
2019/08/18  00:21:02  BASE  2.2638   275  3.96312  287  -6.0  100   -6.0  0     0     1008.0   NA       0.0000   9999     980   3380  0    
2019/08/18  00:22:03  BASE  1.95216  286  3.96312  287  -6.0  100   -6.0  0     0     1008.0   NA       0.0000   9999     950   3380  0    
2019/08/18  00:23:02  BASE  1.94628  297  3.48096  287  -6.0  100   -6.0  0     0     1008.0   NA       0.0000   9999     980   0     0    
2019/08/18  00:24:02  BASE  2.09328  300  3.48096  287  -6.0  100   -6.0  0     0     1008.0   NA       0.0000   9999     920   0     0    
2019/08/18  00:25:02  BASE  2.15208  305  3.48096  287  -6.0  100   -6.0  0     0     1007.9   NA       0.0000   9999     980   0     0    
2019/08/18  00:26:02  BASE  2.06388  313  3.29868  270  -6.0  100   -6.0  0     0     1007.9   NA       0.0000   9999     980   0     0    
2019/08/18  00:27:02  BASE  1.9992   320  2.90472  269  -6.0  100   -6.0  0     0     1007.9   NA       0.0000   9999     890   0     0    
2019/08/18  00:28:02  BASE  1.94628  323  2.90472  269  -6.1  100   -6.1  0     0     1007.9   NA       0.0000   9999     850   0     0    
2019/08/18  00:29:02  BASE  1.8522   326  2.90472  269  -6.1  100   -6.1  0     0     1008.0   NA       0.0000   9999     750   0     0    
2019/08/18  00:30:02  BASE  1.68168  324  2.38728  267  -6.1  100   -6.1  0     0     1008.0   NA       0.0000   9999     890   0     0    
2019/08/18  00:31:02  BASE  1.45236  324  2.35788  303  -6.1  100   -6.1  0     0     1008.1   NA       0.0000   9999     950   0     0    
2019/08/18  00:32:02  BASE  1.4112   326  2.35788  303  -6.1  100   -6.1  0     0     1008.2   NA       0.0000   9999     820   0     0    
2019/08/18  00:33:02  BASE  1.37004  319  2.35788  303  -6.1  100   -6.1  0     0     1008.3   NA       0.0000   9999     920   0     0    
2019/08/18  00:34:03  BASE  1.30536  320  2.35788  303  -6.1  100   -6.1  0     0     1008.2   NA       0.0000   9999     950   0     0    
2019/08/18  00:35:03  BASE  1.48176  321  2.1462   318  -6.1  100   -6.1  0     0     1008.2   NA       0.0000   9999     980   0     0    
2019/08/18  00:36:02  BASE  1.75224  319  2.1462   318  -6.1  100   -6.1  0     0     1008.2   NA       0.0000   9999     890   0     0    
2019/08/18  00:37:02  BASE  2.04624  319  2.42256  317  -6.1  100   -6.1  0     0     1008.2   NA       0.0000   9999     890   0     0    
2019/08/18  00:38:03  BASE  2.21676  315  2.42256  317  -6.1  100   -6.1  0     0     1008.3   NA       0.0000   9999     790   0     0    
2019/08/18  00:39:02  BASE  2.45784  303  3.02232  302  -6.0  100   -6.0  0     0     1008.2   NA       0.0000   9999     660   0     0    
2019/08/18  00:40:02  BASE  2.68716  294  3.02232  302  -6.0  100   -6.0  0     0     1008.2   NA       0.0000   9999     850   0     0    
2019/08/18  00:41:02  BASE  2.72832  294  3.02232  302  -6.0  100   -6.0  0     0     1008.2   NA       0.0000   9999     720   0     0    
2019/08/18  00:42:03  BASE  2.8812   293  3.087    294  -6.0  100   -6.0  0     0     1008.3   NA       0.0000   9999     590   0     0    
2019/08/18  00:43:02  BASE  2.95176  298  3.1458   301  -6.0  100   -6.0  0     0     1008.2   NA       0.0000   9999     790   0     0    
2019/08/18  00:44:03  BASE  2.85768  307  3.1458   301  -6.0  100   -6.0  0     0     1008.2   NA       0.0000   9999     790   0     0    
2019/08/18  00:45:02  BASE  2.86944  309  3.2046   290  -6.0  100   -6.0  0     0     1008.2   NA       0.0000   9999     750   0     0    
2019/08/18  00:46:02  BASE  2.64012  291  3.2046   290  -6.0  100   -6.0  0     0     1008.3   NA       0.0000   9999     690   0     0    
2019/08/18  00:47:02  BASE  1.90512  279  3.2046   290  -6.0  100   -6.0  0     0     1008.3   NA       0.0000   9999     360   0     0    
2019/08/18  00:48:03  BASE  1.53468  279  3.2046   290  -6.0  100   -6.0  0     0     1008.3   NA       0.0000   9999     430   0     0    
2019/08/18  00:49:02  BASE  1.7052   289  3.2046   290  -6.0  100   -6.0  0     0     1008.2   NA       0.0000   9999     460   0     0    
2019/08/18  00:50:02  BASE  1.98744  306  3.2046   290  -6.0  100   -6.0  0     0     1008.1   NA       0.0000   9999     520   0     0    
2019/08/18  00:51:02  BASE  2.32848  314  3.2046   290  -6.0  100   -6.0  0     0     1008.0   NA       0.0000   9999     520   0     0    
2019/08/18  00:52:03  BASE  2.50488  314  3.2046   290  -6.0  100   -6.0  0     0     1008.1   NA       0.0000   9999     590   0     0    
2019/08/18  00:53:02  BASE  2.32848  312  3.2046   290  -6.0  100   -6.0  0     0     1008.2   NA       0.0000   9999     560   0     0    
2019/08/18  00:54:02  BASE  2.00508  313  3.2046   290  -6.1  100   -6.1  0     0     1008.2   NA       0.0000   9999     460   0     0    
2019/08/18  00:55:02  BASE  1.911    311  2.99292  285  -6.1  100   -6.1  0     0     1008.2   NA       0.0000   9999     590   0     0    
2019/08/18  00:56:02  BASE  1.79928  307  2.87532  307  -6.1  100   -6.1  0     0     1008.1   NA       0.0000   9999     590   0     0    
2019/08/18  00:57:03  BASE  1.65816  312  2.87532  307  -6.1  100   -6.1  0     0     1008.0   NA       0.0000   9999     520   0     0    
2019/08/18  00:58:02  BASE  1.75812  317  2.87532  307  -6.1  100   -6.1  0     0     1008.0   NA       0.0000   9999     520   0     0    
2019/08/18  00:59:02  BASE  2.24616  321  2.93412  325  -6.1  100   -6.1  0     0     1008.0   NA       0.0000   9999     490   0     0    
2019/08/18  01:00:03  BASE  2.74596  323  3.0576   325  -6.1  100   -6.1  0     0     1008.0   NA       0.0000   9999     490   0     0    
2019/08/18  01:01:03  BASE  2.8518   322  3.1458   321  -6.1  100   -6.1  0     0     1008.0   NA       0.0000   9999     520   0     0    
2019/08/18  01:02:02  BASE  2.88708  321  3.29868  321  -6.1  100   -6.1  0     0     1007.9   NA       0.0000   9999     520   0     0    
2019/08/18  01:03:03  BASE  2.79888  323  3.29868  321  -6.1  100   -6.1  0     0     1007.9   NA       0.0000   9999     520   0     0    
2019/08/18  01:04:03  BASE  2.793    330  3.51036  330  -6.1  100   -6.1  0     0     1007.8   NA       0.0000   9999     490   0     0    
2019/08/18  01:05:03  BASE  3.2634   331  4.2336   323  -6.1  100   -6.1  0     0     1007.8   NA       0.0000   9999     490   3250  0    
2019/08/18  01:06:02  BASE  3.65148  331  4.2336   323  -6.1  100   -6.1  0     0     1007.8   NA       0.0000   9999     490   3150  0    
2019/08/18  01:07:02  BASE  3.78672  335  4.50996  344  -6.1  100   -6.1  0     0     1007.8   NA       0.0000   9999     460   3150  0    
2019/08/18  01:08:03  BASE  3.71028  342  4.50996  344  -6.1  100   -6.1  0     0     1007.8   NA       0.0000   9999     490   3150  0    
2019/08/18  01:09:02  BASE  3.59268  343  4.50996  344  -6.1  100   -6.1  0     0     1007.8   NA       0.0000   9999     560   3180  0    
2019/08/18  01:10:02  BASE  3.81612  336  4.50996  344  -6.1  100   -6.1  0     0     1007.8   NA       0.0000   9999     520   3150  0    
2019/08/18  01:11:02  BASE  3.7926   332  4.50996  344  -6.1  100   -6.1  0     0     1007.9   NA       0.0000   9999     660   3220  0    
2019/08/18  01:12:02  BASE  3.69852  332  4.50996  344  -6.1  100   -6.1  0     0     1007.9   NA       0.0000   9999     590   3280  0    
2019/08/18  01:13:03  BASE  3.65736  335  4.50996  344  -6.1  100   -6.1  0     0     1007.9   NA       0.0000   9999     590   3220  0    
2019/08/18  01:14:03  BASE  3.38688  342  4.50996  344  -6.1  100   -6.1  0     0     1007.9   NA       0.0000   9999     620   0     0    
2019/08/18  01:15:02  BASE  3.03996  346  4.50996  344  -6.1  100   -6.1  0     0     1008.0   NA       0.0000   9999     690   0     0    
2019/08/18  01:16:03  BASE  2.62836  349  4.50996  344  -6.1  100   -6.1  0     0     1008.0   NA       0.0000   9999     720   0     0    
2019/08/18  01:17:02  BASE  2.5578   350  4.41588  323  -6.1  100   -6.1  0     0     1008.0   NA       0.0000   9999     720   0     0    
2019/08/18  01:18:03  BASE  2.69892  349  4.41588  323  -6.1  100   -6.1  0     0     1008.0   NA       0.0000   9999     660   0     0    
2019/08/18  01:19:02  BASE  2.74008  350  4.41588  323  -6.1  100   -6.1  0     0     1008.0   NA       0.0000   9999     690   0     0    
2019/08/18  01:20:02  BASE  2.8224   350  3.93372  331  -6.1  100   -6.1  0     0     1007.9   NA       0.0000   9999     620   0     0    
2019/08/18  01:21:03  BASE  2.80476  349  3.93372  331  -6.1  100   -6.1  0     0     1007.9   NA       0.0000   9999     660   0     0    
2019/08/18  01:22:02  BASE  2.78712  346  3.86904  337  -6.1  100   -6.1  0     0     1007.9   NA       0.0000   9999     620   0     0    
2019/08/18  01:23:02  BASE  2.66952  339  3.51036  350  -6.1  100   -6.1  0     0     1007.9   NA       0.0000   9999     620   0     0    
2019/08/18  01:24:02  BASE  2.63424  332  3.29868  350  -6.1  100   -6.1  0     0     1007.9   NA       0.0000   9999     590   0     0    
2019/08/18  01:25:03  BASE  2.68716  328  3.29868  350  -6.1  100   -6.1  0     0     1007.9   NA       0.0000   9999     620   0     0    
2019/08/18  01:26:03  BASE  2.45196  328  3.29868  350  -6.1  100   -6.1  0     0     1008.0   NA       0.0000   9999     560   0     0    
2019/08/18  01:27:02  BASE  2.09328  344  3.29868  350  -6.1  100   -6.1  0     0     1008.0   NA       0.0000   9999     560   0     0    
2019/08/18  01:28:02  BASE  1.78164  350  3.29868  350  -6.1  100   -6.1  0     0     1008.0   NA       0.0000   9999     590   0     0    
2019/08/18  01:29:02  BASE  1.49352  343  3.29868  350  -6.1  100   -6.1  0     0     1008.0   NA       0.0000   9999     590   0     0    
2019/08/18  01:30:02  BASE  1.50528  339  3.29868  350  -6.1  100   -6.1  0     0     1008.0   NA       0.0000   9999     590   0     0    
2019/08/18  01:31:02  BASE  1.77576  331  3.29868  350  -6.1  100   -6.1  0     0     1008.0   NA       0.0000   9999     560   0     0    
2019/08/18  01:32:03  BASE  1.89336  332  2.96352  336  -6.1  100   -6.1  0     0     1007.9   NA       0.0000   9999     490   0     0    
2019/08/18  01:33:02  BASE  1.84632  333  2.96352  336  -6.1  100   -6.1  0     0     1007.9   NA       0.0000   9999     560   0     0    
2019/08/18  01:34:03  BASE  1.95804  331  2.87532  339  -6.1  100   -6.1  0     0     1007.9   NA       0.0000   9999     560   0     0    
2019/08/18  01:35:02  BASE  2.33436  335  2.93412  337  -6.1  100   -6.1  0     0     1007.8   NA       0.0000   9999     490   0     0    
2019/08/18  01:36:02  BASE  2.71068  337  3.2046   338  -6.1  100   -6.1  0     0     1007.8   NA       0.0000   9999     520   0     0    
2019/08/18  01:37:02  BASE  2.84004  333  3.26928  336  -6.1  100   -6.1  0     0     1007.8   NA       0.0000   9999     520   0     0    
2019/08/18  01:38:03  BASE  2.38728  334  3.26928  336  -6.0  100   -6.0  0     0     1007.8   NA       0.0000   9999     520   0     0    
2019/08/18  01:39:02  BASE  1.81692  339  3.26928  336  -6.0  100   -6.0  0     0     1007.8   NA       0.0000   9999     520   0     0    
2019/08/18  01:40:02  BASE  1.9404   350  3.26928  336  -6.0  100   -6.0  0     0     1007.8   NA       0.0000   9999     490   0     0    
2019/08/18  01:41:02  BASE  2.24616  359  3.26928  336  -6.0  100   -6.0  0     0     1007.8   NA       0.0000   9999     490   0     0    
2019/08/18  01:42:03  BASE  2.18148  5    3.26928  336  -6.0  100   -6.0  0     0     1007.8   NA       0.0000   9999     490   0     0    
2019/08/18  01:43:03  BASE  2.22264  10   3.26928  336  -6.0  100   -6.0  0     0     1007.8   NA       0.0000   9999     520   0     0    
2019/08/18  01:44:03  BASE  2.3226   9    3.26928  336  -6.0  100   -6.0  0     0     1007.8   NA       0.0000   9999     520   0     0    
2019/08/18  01:45:02  BASE  2.15208  13   3.26928  336  -6.0  100   -6.0  0     0     1007.8   NA       0.0000   9999     490   0     0    
2019/08/18  01:46:02  BASE  2.1756   19   3.26928  336  -6.1  100   -6.1  0     0     1007.8   NA       0.0000   9999     430   0     0    
2019/08/18  01:47:02  BASE  2.19324  19   3.2046   3    -6.1  100   -6.1  0     0     1007.8   NA       0.0000   9999     460   0     0    
2019/08/18  01:48:02  BASE  1.9404   18   3.2046   3    -6.1  100   -6.1  0     0     1007.8   NA       0.0000   9999     430   0     0    
2019/08/18  01:49:02  BASE  1.911    16   3.2046   3    -6.1  100   -6.1  0     0     1007.9   NA       0.0000   9999     490   0     0    
2019/08/18  01:50:02  BASE  1.92864  2    3.2046   3    -6.1  100   -6.1  0     0     1007.9   NA       0.0000   9999     460   0     0    
2019/08/18  01:51:02  BASE  1.79928  345  2.84592  5    -6.0  100   -6.0  0     0     1007.9   NA       0.0000   9999     430   0     0    
2019/08/18  01:52:02  BASE  1.81692  344  2.84592  5    -6.0  100   -6.0  0     0     1007.9   NA       0.0000   9999     430   0     0    
2019/08/18  01:53:02  BASE  2.06976  353  2.63424  16   -6.0  100   -6.0  0     0     1007.8   NA       0.0000   9999     390   0     0    
2019/08/18  01:54:02  BASE  2.14032  3    2.63424  16   -6.0  100   -6.0  0     0     1007.8   NA       0.0000   9999     360   0     0    
2019/08/18  01:55:03  BASE  2.22264  2    2.63424  16   -6.0  100   -6.0  0     0     1007.7   NA       0.0000   9999     390   0     0    
2019/08/18  01:56:02  BASE  2.2932   358  2.56956  360  -6.0  100   -6.0  0     0     1007.7   NA       0.0000   9999     430   0     0    
2019/08/18  01:57:02  BASE  1.89336  354  2.56956  360  -6.0  100   -6.0  0     0     1007.7   NA       0.0000   9999     360   0     0    
2019/08/18  01:58:02  BASE  1.72284  360  2.56956  360  -6.0  100   -6.0  0     0     1007.8   NA       0.0000   9999     390   0     0    
2019/08/18  01:59:03  BASE  1.61112  11   2.56956  360  -6.0  100   -6.0  0     0     1007.8   NA       0.0000   9999     460   0     0    
2019/08/18  02:00:02  BASE  1.51704  15   2.56956  360  -6.0  100   -6.0  0     0     1007.8   NA       0.0000   9999     390   0     0    
2019/08/18  02:01:02  BASE  1.65816  20   2.56956  360  -6.0  100   -6.0  0     0     1007.7   NA       0.0000   9999     390   0     0    
2019/08/18  02:02:02  BASE  1.7346   28   2.56956  360  -6.0  100   -6.0  0     0     1007.6   NA       0.0000   9999     390   0     0    
2019/08/18  02:03:03  BASE  1.93452  24   2.56956  360  -6.0  100   -6.0  0     0     1007.6   NA       0.0000   9999     430   0     0    
2019/08/18  02:04:02  BASE  2.05212  13   2.56956  360  -6.0  100   -6.0  0     0     1007.6   NA       0.0000   9999     460   0     0    
2019/08/18  02:05:03  BASE  2.01684  1    2.45196  1    -6.0  100   -6.0  0     0     1007.6   NA       0.0000   9999     460   0     0    
2019/08/18  02:06:03  BASE  2.02272  348  2.29908  17   -6.0  100   -6.0  0     0     1007.6   NA       0.0000   9999     430   0     0    
2019/08/18  02:07:03  BASE  2.12856  348  2.29908  349  -6.0  100   -6.0  0     0     1007.6   NA       0.0000   9999     430   0     0    
2019/08/18  02:08:02  BASE  2.06976  350  2.29908  349  -6.0  100   -6.0  0     0     1007.6   NA       0.0000   9999     360   0     0    
2019/08/18  02:09:02  BASE  1.74636  342  2.29908  349  -6.0  100   -6.0  0     0     1007.5   NA       0.0000   9999     330   0     0    
2019/08/18  02:10:02  BASE  1.42296  347  2.29908  349  -5.9  100   -5.9  0     0     1007.5   NA       0.0000   9999     300   0     0    
2019/08/18  02:11:02  BASE  1.36416  0    2.29908  349  -5.9  100   -5.9  0     0     1007.4   NA       0.0000   9999     260   0     0    
2019/08/18  02:12:02  BASE  1.34652  6    2.29908  349  -5.9  100   -5.9  0     0     1007.3   NA       0.0000   9999     460   0     0    
2019/08/18  02:13:02  BASE  1.4112   6    2.29908  349  -5.9  100   -5.9  0     0     1007.3   NA       0.0000   9999     460   0     0    
2019/08/18  02:14:02  BASE  1.617    359  2.29908  349  -5.9  100   -5.9  0     0     1007.3   NA       0.0000   9999     430   0     0    
2019/08/18  02:15:02  BASE  1.80516  349  2.29908  349  -5.8  100   -5.8  0     0     1007.4   NA       0.0000   9999     330   0     0    
2019/08/18  02:16:02  BASE  1.97568  342  2.59896  336  -5.8  100   -5.8  0     0     1007.4   NA       0.0000   9999     330   0     0    
2019/08/18  02:17:02  BASE  2.08152  340  2.59896  336  -5.8  100   -5.8  0     0     1007.3   NA       0.0000   9999     330   0     0    
2019/08/18  02:18:03  BASE  2.15208  337  2.59896  336  -5.8  100   -5.8  0     0     1007.3   NA       0.0000   9999     330   0     0    
2019/08/18  02:19:02  BASE  2.0874   333  2.59896  336  -5.8  100   -5.8  0     0     1007.3   NA       0.0000   9999     260   0     0    
2019/08/18  02:20:02  BASE  2.205    338  2.59896  336  -5.9  100   -5.9  0     0     1007.3   NA       0.0000   9999     260   0     0    
2019/08/18  02:21:03  BASE  2.42256  347  2.63424  354  -5.9  100   -5.9  0     0     1007.3   NA       0.0000   9999     330   0     0    
2019/08/18  02:22:03  BASE  2.71656  0    3.35748  15   -5.9  100   -5.9  0     0     1007.3   NA       0.0000   9999     360   0     0    
2019/08/18  02:23:02  BASE  2.87532  6    3.35748  15   -5.8  100   -5.8  0     0     1007.4   NA       0.0000   9999     300   0     0    
2019/08/18  02:24:03  BASE  2.74596  355  3.35748  15   -5.8  100   -5.8  0     0     1007.5   NA       0.0000   9999     300   0     0    
2019/08/18  02:25:02  BASE  2.5578   346  3.35748  15   -5.8  100   -5.8  0     0     1007.6   NA       0.0000   9999     300   0     0    
2019/08/18  02:26:02  BASE  2.10504  341  3.35748  15   -5.8  100   -5.8  0     0     1007.6   NA       0.0000   9999     260   0     0    
2019/08/18  02:27:03  BASE  1.68756  336  3.35748  15   -5.8  100   -5.8  0     0     1007.6   NA       0.0000   9999     260   0     0    
2019/08/18  02:28:02  BASE  1.764    341  3.35748  15   -5.8  100   -5.8  0     0     1007.6   NA       0.0000   9999     260   0     0    
2019/08/18  02:29:02  BASE  1.95804  345  3.35748  15   -5.8  100   -5.8  0     0     1007.6   NA       0.0000   9999     300   0     0    
2019/08/18  02:30:02  BASE  1.94628  344  3.35748  15   -5.8  100   -5.8  0     0     1007.6   NA       0.0000   9999     300   0     0    
2019/08/18  02:31:02  BASE  2.09328  345  3.35748  15   -5.8  100   -5.8  0     0     1007.6   NA       0.0000   9999     360   0     0    
2019/08/18  02:32:02  BASE  2.3814   355  3.02232  5    -5.8  100   -5.8  0     0     1007.6   NA       0.0000   9999     360   0     0    
2019/08/18  02:33:02  BASE  2.7636   11   3.48096  17   -5.7  100   -5.7  0     0     1007.6   NA       0.0000   9999     390   0     0    
2019/08/18  02:34:02  BASE  2.8518   16   3.48096  17   -5.7  100   -5.7  0     0     1007.6   NA       0.0000   9999     300   1050  0    
2019/08/18  02:35:02  BASE  2.51664  16   3.48096  17   -5.7  100   -5.7  0     0     1007.6   NA       0.0000   9999     330   0     0    
2019/08/18  02:36:03  BASE  2.71656  6    3.48096  17   -5.7  100   -5.7  0     0     1007.6   NA       0.0000   9999     460   0     0    
2019/08/18  02:37:02  BASE  2.6754   350  3.48096  17   -5.7  100   -5.7  0     0     1007.6   NA       0.0000   9999     520   0     0    
2019/08/18  02:38:03  BASE  2.31672  358  3.48096  17   -5.7  100   -5.7  0     0     1007.6   NA       0.0000   9999     390   0     0    
2019/08/18  02:39:02  BASE  2.54604  13   3.48096  17   -5.6  100   -5.6  0     0     1007.6   NA       0.0000   9999     490   0     0    
2019/08/18  02:40:02  BASE  2.74008  7    3.48096  17   -5.6  100   -5.6  0     0     1007.6   NA       0.0000   9999     520   0     0    
2019/08/18  02:41:02  BASE  2.75184  360  3.48096  17   -5.6  100   -5.6  0     0     1007.6   NA       0.0000   9999     490   0     0    
2019/08/18  02:42:03  BASE  2.68716  352  3.48096  17   -5.6  100   -5.6  0     0     1007.6   NA       0.0000   9999     360   0     0    
2019/08/18  02:43:02  BASE  2.79888  339  3.35748  338  -5.5  100   -5.5  0     0     1007.7   NA       0.0000   9999     390   0     0    
2019/08/18  02:44:02  BASE  2.89884  333  3.35748  338  -5.5  100   -5.5  0     0     1007.7   NA       0.0000   9999     430   0     0    
2019/08/18  02:45:02  BASE  2.7636   330  3.35748  338  -5.5  100   -5.5  0     0     1007.7   NA       0.0000   9999     460   0     0    
2019/08/18  02:46:02  BASE  2.66952  321  3.35748  338  -5.5  100   -5.5  0     0     1007.7   NA       0.0000   9999     390   0     0    
2019/08/18  02:47:02  BASE  2.84592  330  3.35748  338  -5.5  100   -5.5  0     0     1007.7   NA       0.0000   9999     590   1480  0    
2019/08/18  02:48:03  BASE  3.07524  353  3.35748  338  -5.5  100   -5.5  0     0     1007.6   NA       0.0000   9999     390   1480  0    
2019/08/18  02:49:03  BASE  2.76948  8    3.35748  338  -5.5  100   -5.5  0     0     1007.6   NA       0.0000   9999     560   1080  0    
2019/08/18  02:50:02  BASE  2.78712  5    3.41628  347  -5.5  100   -5.5  0     0     1007.6   NA       0.0000   9999     590   1480  0    
2019/08/18  02:51:02  BASE  3.15756  347  3.53976  351  -5.5  100   -5.5  0     0     1007.7   NA       0.0000   9999     690   0     0    
2019/08/18  02:52:02  BASE  3.25164  326  3.53976  351  -5.5  100   -5.5  0     0     1007.7   NA       0.0000   9999     590   0     0    
2019/08/18  02:53:02  BASE  3.01644  324  3.53976  351  -5.5  100   -5.5  0     0     1007.7   NA       0.0000   9999     520   1710  0    
2019/08/18  02:54:03  BASE  3.03408  339  3.75144  344  -5.5  100   -5.5  0     0     1007.7   NA       0.0000   9999     520   1610  0    
2019/08/18  02:55:03  BASE  3.4104   348  4.1748   1    -5.4  100   -5.4  0     0     1007.7   NA       0.0000   9999     690   1610  0    
2019/08/18  02:56:02  BASE  3.25752  345  4.1748   1    -5.4  100   -5.4  0     0     1007.7   NA       0.0000   9999     920   1670  0    
2019/08/18  02:57:02  BASE  2.42256  346  4.1748   1    -5.4  100   -5.4  0     0     1007.7   NA       0.0000   9999     520   1570  0    
2019/08/18  02:58:02  BASE  2.19324  352  4.1748   1    -5.4  100   -5.4  0     0     1007.7   NA       0.0000   9999     620   1540  0    
2019/08/18  02:59:02  BASE  2.96352  344  4.1748   1    -5.4  100   -5.4  0     0     1007.6   NA       0.0000   9999     620   1310  0    
2019/08/18  03:00:02  BASE  3.528    326  4.29828  322  -5.4  100   -5.4  0     0     1007.7   NA       0.0000   9999     490   0     0    
2019/08/18  03:01:02  BASE  3.58092  317  4.29828  322  -5.4  100   -5.4  0     0     1007.7   NA       0.0000   9999     620   1310  0    
2019/08/18  03:02:02  BASE  3.23988  319  4.29828  322  -5.4  100   -5.4  0     0     1007.7   NA       0.0000   9999     1080  0     0    
2019/08/18  03:03:02  BASE  2.85768  326  4.29828  322  -5.4  100   -5.4  0     0     1007.6   NA       0.0000   9999     1120  0     0    
2019/08/18  03:04:03  BASE  2.92236  336  4.29828  322  -5.5  100   -5.5  0     0     1007.6   NA       0.0000   9999     950   0     0    
2019/08/18  03:05:04  BASE  3.39864  343  4.29828  322  -5.5  100   -5.5  0     0     1007.6   NA       0.0000   9999     950   3150  0    
2019/08/18  03:06:02  BASE  3.83376  343  4.38648  340  -5.5  100   -5.5  0     0     1007.6   NA       0.0000   9999     980   3180  0    
2019/08/18  03:07:02  BASE  3.86904  342  4.38648  340  -5.4  100   -5.4  0     0     1007.6   NA       0.0000   9999     950   0     0    
2019/08/18  03:08:03  BASE  3.62796  342  4.38648  340  -5.4  100   -5.4  0     0     1007.6   NA       0.0000   9999     1020  0     0    
2019/08/18  03:09:02  BASE  3.35748  347  4.38648  340  -5.4  100   -5.4  0     0     1007.6   NA       0.0000   9999     1020  0     0    
2019/08/18  03:10:02  BASE  3.4104   357  4.38648  340  -5.4  100   -5.4  0     0     1007.5   NA       0.0000   9999     950   0     0    
2019/08/18  03:11:02  BASE  4.22772  360  6.321    5    -5.4  100   -5.4  0     0     1007.5   NA       0.0000   9999     1020  0     0    
2019/08/18  03:12:02  BASE  3.83964  338  6.321    310  -5.4  100   -5.4  0     0     1007.6   NA       0.0000   9999     980   0     0    
2019/08/18  03:13:02  BASE  2.66952  343  6.321    310  -5.4  100   -5.4  0     0     1007.7   NA       0.0000   9999     1120  0     0    
2019/08/18  03:14:02  BASE  2.66952  1    6.321    310  -5.4  100   -5.4  0     0     1007.7   NA       0.0000   9999     1020  0     0    
2019/08/18  03:15:02  BASE  2.86944  358  6.321    310  -5.3  100   -5.3  0     0     1007.7   NA       0.0000   9999     980   0     0    
2019/08/18  03:16:02  BASE  3.25164  353  6.321    310  -5.3  100   -5.3  0     0     1007.7   NA       0.0000   9999     890   0     0    
2019/08/18  03:17:02  BASE  3.1458   341  6.321    310  -5.3  100   -5.3  0     0     1007.7   NA       0.0000   9999     890   0     0    
2019/08/18  03:18:02  BASE  2.47548  352  6.321    310  -5.3  100   -5.3  0     0     1007.6   NA       0.0000   9999     920   0     0    
2019/08/18  03:19:02  BASE  2.22852  3    6.321    310  -5.3  100   -5.3  0     0     1007.7   NA       0.0000   9999     920   0     0    
2019/08/18  03:20:02  BASE  1.93452  344  6.321    310  -5.3  100   -5.3  0     0     1007.7   NA       0.0000   9999     980   0     0    
2019/08/18  03:21:02  BASE  1.69932  330  6.321    310  -5.3  100   -5.3  0     0     1007.7   NA       0.0000   9999     920   0     0    
2019/08/18  03:22:02  BASE  1.25244  341  4.1454   343  -5.3  100   -5.3  0     0     1007.7   NA       0.0000   9999     980   0     0    
2019/08/18  03:23:02  BASE  1.7052   348  4.1454   343  -5.3  100   -5.3  0     0     1007.6   NA       0.0000   9999     950   0     0    
2019/08/18  03:24:02  BASE  2.64012  340  4.1454   343  -5.3  100   -5.3  0     0     1007.6   NA       0.0000   9999     850   0     0    
2019/08/18  03:25:02  BASE  3.03996  328  4.1454   306  -5.3  100   -5.3  0     0     1007.6   NA       0.0000   9999     850   0     0    
2019/08/18  03:26:02  BASE  3.087    309  4.1454   306  -5.3  100   -5.3  0     0     1007.6   NA       0.0000   9999     820   0     0    
2019/08/18  03:27:02  BASE  2.646    292  4.1454   306  -5.3  100   -5.3  0     0     1007.6   NA       0.0000   9999     890   0     0    
2019/08/18  03:28:02  BASE  2.27556  298  4.1454   306  -5.3  100   -5.3  0     0     1007.6   NA       0.0000   9999     890   0     0    
2019/08/18  03:29:02  BASE  2.08152  299  4.1454   306  -5.3  100   -5.3  0     0     1007.6   NA       0.0000   9999     820   0     0    
2019/08/18  03:30:02  BASE  2.08152  293  4.1454   306  -5.3  100   -5.3  0     0     1007.6   NA       0.0000   9999     820   0     0    
2019/08/18  03:31:02  BASE  2.51076  294  4.1454   306  -5.3  100   -5.3  0     0     1007.6   NA       0.0000   9999     920   0     0    
2019/08/18  03:32:02  BASE  2.75184  268  4.1454   306  -5.3  100   -5.3  0     0     1007.6   NA       0.0000   9999     820   0     0    
2019/08/18  03:33:02  BASE  2.26968  276  4.1454   306  -5.3  100   -5.3  0     0     1007.7   NA       0.0000   9999     790   0     0    
2019/08/18  03:34:02  BASE  2.16972  309  4.1454   306  -5.2  100   -5.2  0     0     1007.7   NA       0.0000   9999     820   0     0    
2019/08/18  03:35:02  BASE  2.25792  301  3.93372  280  -5.2  100   -5.2  0     0     1007.7   NA       0.0000   9999     720   0     0    
2019/08/18  03:36:02  BASE  2.38728  283  3.93372  280  -5.2  100   -5.2  0     0     1007.7   NA       0.0000   9999     820   0     0    
2019/08/18  03:37:02  BASE  1.94628  270  3.93372  280  -5.2  100   -5.2  0     0     1007.8   NA       0.0000   9999     850   0     0    
2019/08/18  03:38:02  BASE  1.45824  284  3.93372  280  -5.2  100   -5.2  0     0     1007.8   NA       0.0000   9999     820   0     0    
2019/08/18  03:39:02  BASE  1.78752  298  3.93372  280  -5.2  100   -5.2  0     0     1007.7   NA       0.0000   9999     920   0     0    
2019/08/18  03:40:02  BASE  1.90512  298  3.93372  280  -5.2  100   -5.2  0     0     1007.7   NA       0.0000   9999     920   0     0    
2019/08/18  03:41:02  BASE  1.8228   299  3.69264  232  -5.2  100   -5.2  0     0     1007.8   NA       0.0000   9999     850   0     0    
2019/08/18  03:42:02  BASE  1.9992   300  3.59856  279  -5.2  100   -5.2  0     0     1007.7   NA       0.0000   9999     980   0     0    
2019/08/18  03:43:02  BASE  2.352    301  3.59856  279  -5.2  100   -5.2  0     0     1007.7   NA       0.0000   9999     920   0     0    
2019/08/18  03:44:02  BASE  2.6166   304  3.59856  279  -5.2  100   -5.2  0     0     1007.7   NA       0.0000   9999     850   0     0    
2019/08/18  03:45:02  BASE  2.61072  306  3.59856  279  -5.2  100   -5.2  0     0     1007.8   NA       0.0000   9999     890   0     0    
2019/08/18  03:46:01  BASE  2.5284   310  3.02232  314  -5.2  100   -5.2  0     0     1007.8   NA       0.0000   9999     980   0     0    
2019/08/18  03:47:02  BASE  2.39904  324  3.02232  314  -5.2  100   -5.2  0     0     1007.7   NA       0.0000   9999     890   0     0    
2019/08/18  03:48:02  BASE  2.1756   328  3.02232  314  -5.2  100   -5.2  0     0     1007.7   NA       0.0000   9999     820   0     0    
2019/08/18  03:49:02  BASE  2.25792  310  3.02232  314  -5.2  100   -5.2  0     0     1007.8   NA       0.0000   9999     890   0     0    
2019/08/18  03:50:02  BASE  2.31084  294  3.02232  314  -5.2  100   -5.2  0     0     1007.8   NA       0.0000   9999     890   0     0    
2019/08/18  03:51:02  BASE  2.29908  290  3.02232  314  -5.2  100   -5.2  0     0     1007.8   NA       0.0000   9999     850   0     0    
2019/08/18  03:52:02  BASE  2.39316  297  3.02232  314  -5.2  100   -5.2  0     0     1007.8   NA       0.0000   9999     920   0     0    
2019/08/18  03:53:03  BASE  2.3814   290  3.02232  314  -5.2  100   -5.2  0     0     1007.8   NA       0.0000   9999     980   0     0    
2019/08/18  03:54:02  BASE  2.06388  283  3.02232  314  -5.2  100   -5.2  0     0     1007.7   NA       0.0000   9999     1120  0     0    
2019/08/18  03:55:02  BASE  1.76988  295  3.02232  314  -5.2  100   -5.2  0     0     1007.7   NA       0.0000   9999     1310  0     0    
2019/08/18  03:56:02  BASE  1.30536  300  2.93412  289  -5.1  100   -5.1  0     0     1007.6   NA       0.0000   9999     1250  0     0    
2019/08/18  03:57:02  BASE  0.96432  308  2.93412  289  -5.1  100   -5.1  0     0     1007.6   NA       0.0000   9999     1180  2720  0    
2019/08/18  03:58:02  BASE  1.28184  293  2.93412  289  -5.1  100   -5.1  0     0     1007.6   NA       0.0000   9999     1150  0     0    
2019/08/18  03:59:02  BASE  1.323    268  2.93412  289  -5.1  100   -5.1  0     0     1007.5   NA       0.0000   9999     1150  0     0    
2019/08/18  04:00:02  BASE  1.04076  252  2.93412  289  -5.1  100   -5.1  0     0     1007.5   NA       0.0000   9999     1180  0     0    
2019/08/18  04:01:02  BASE  1.01136  268  2.93412  289  -5.1  100   -5.1  0     0     1007.5   NA       0.0000   9999     1120  0     0    
2019/08/18  04:02:02  BASE  1.18188  303  2.93412  289  -5.1  100   -5.1  0     0     1007.4   NA       0.0000   9999     1050  0     0    
2019/08/18  04:03:02  BASE  1.31712  314  2.48136  313  -5.1  100   -5.1  0     0     1007.3   NA       0.0000   9999     1020  0     0    
2019/08/18  04:04:02  BASE  1.1172   330  2.42256  251  -5.1  100   -5.1  0     0     1007.3   NA       0.0000   9999     950   0     0    
2019/08/18  04:05:04  BASE  1.21128  337  2.42256  251  -5.1  100   -5.1  0     0     1007.2   NA       0.0000   9999     950   0     0    
2019/08/18  04:06:02  BASE  1.66992  329  2.42256  251  -5.1  100   -5.1  0     0     1007.2   NA       0.0000   9999     950   0     0    
2019/08/18  04:07:02  BASE  1.77576  324  2.42256  251  -5.2  100   -5.2  0     0     1007.2   NA       0.0000   9999     950   0     0    
2019/08/18  04:08:03  BASE  1.95804  329  2.48136  331  -5.2  100   -5.2  0     0     1007.2   NA       0.0000   9999     980   0     0    
2019/08/18  04:09:02  BASE  2.00508  330  2.48136  331  -5.2  100   -5.2  0     0     1007.2   NA       0.0000   9999     950   0     0    
2019/08/18  04:10:02  BASE  1.68756  316  2.48136  331  -5.2  100   -5.2  0     0     1007.2   NA       0.0000   9999     950   0     0    
2019/08/18  04:11:02  BASE  1.57584  311  2.48136  331  -5.2  100   -5.2  0     0     1007.2   NA       0.0000   9999     950   0     0    
2019/08/18  04:12:03  BASE  1.53468  312  2.48136  331  -5.2  100   -5.2  0     0     1007.2   NA       0.0000   9999     980   0     0    
2019/08/18  04:13:03  BASE  1.72872  314  2.48136  331  -5.2  100   -5.2  0     0     1007.2   NA       0.0000   9999     950   0     0    
2019/08/18  04:14:02  BASE  2.2638   325  2.90472  322  -5.2  100   -5.2  0     0     1007.2   NA       0.0000   9999     950   0     0    
2019/08/18  04:15:03  BASE  2.37552  331  2.90472  322  -5.2  100   -5.2  0     0     1007.2   NA       0.0000   9999     950   0     0    
2019/08/18  04:16:02  BASE  2.15208  337  2.90472  322  -5.2  100   -5.2  0     0     1007.2   NA       0.0000   9999     950   0     0    
2019/08/18  04:17:02  BASE  2.205    340  2.90472  322  -5.2  100   -5.2  0     0     1007.2   NA       0.0000   9999     950   0     0    
2019/08/18  04:18:02  BASE  2.4696   342  2.90472  322  -5.2  100   -5.2  0     0     1007.2   NA       0.0000   9999     950   0     0    
2019/08/18  04:19:02  BASE  2.352    345  2.90472  322  -5.2  100   -5.2  0     0     1007.2   NA       0.0000   9999     950   0     0    
2019/08/18  04:20:01  BASE  2.1756   346  2.90472  322  -5.2  100   -5.2  0     0     1007.2   NA       0.0000   9999     980   0     0    
2019/08/18  04:21:02  BASE  2.11092  348  2.90472  322  -5.2  100   -5.2  0     0     1007.2   NA       0.0000   9999     1020  0     0    
2019/08/18  04:22:03  BASE  2.03448  341  2.90472  322  -5.2  100   -5.2  0     0     1007.2   NA       0.0000   9999     980   0     0    
2019/08/18  04:23:03  BASE  2.0286   332  2.90472  322  -5.2  100   -5.2  0     0     1007.2   NA       0.0000   9999     980   0     0    
2019/08/18  04:24:02  BASE  1.9992   340  2.87532  341  -5.2  100   -5.2  0     0     1007.2   NA       0.0000   9999     980   0     0    
2019/08/18  04:25:02  BASE  1.87572  354  2.87532  341  -5.2  100   -5.2  0     0     1007.2   NA       0.0000   9999     980   0     0    
2019/08/18  04:26:02  BASE  1.78752  355  2.87532  341  -5.2  100   -5.2  0     0     1007.2   NA       0.0000   9999     980   0     0    
2019/08/18  04:27:02  BASE  1.95216  351  2.87532  341  -5.2  100   -5.2  0     0     1007.2   NA       0.0000   9999     950   0     0    
2019/08/18  04:28:02  BASE  2.04624  344  2.56956  352  -5.2  100   -5.2  0     0     1007.2   NA       0.0000   9999     950   0     0    
2019/08/18  04:29:02  BASE  2.01096  339  2.38728  347  -5.1  100   -5.1  0     0     1007.2   NA       0.0000   9999     980   0     0    
2019/08/18  04:30:02  BASE  2.01096  340  2.35788  327  -5.1  100   -5.1  0     0     1007.2   NA       0.0000   9999     950   0     0    
2019/08/18  04:31:08  BASE  2.09916  337  2.42256  329  -5.1  100   -5.1  0     0     1007.2   NA       0.0000   9999     950   0     0    
2019/08/18  04:32:00  BASE  2.34612  330  2.69304  331  -5.2  100   -5.2  0     0     1007.2   NA       0.0000   9999     950   0     0    
2019/08/18  04:33:02  BASE  2.45784  326  2.69304  331  -5.2  100   -5.2  0     0     1007.2   NA       0.0000   9999     950   0     0    
2019/08/18  04:34:02  BASE  2.33436  328  2.69304  331  -5.2  100   -5.2  0     0     1007.2   NA       0.0000   9999     950   0     0    
2019/08/18  04:35:02  BASE  2.13444  326  2.69304  331  -5.2  100   -5.2  0     0     1007.2   NA       0.0000   9999     950   0     0    
2019/08/18  04:36:02  BASE  1.98156  324  2.69304  331  -5.2  100   -5.2  0     0     1007.2   NA       0.0000   9999     850   0     0    
2019/08/18  04:37:02  BASE  1.8228   318  2.69304  331  -5.2  100   -5.2  0     0     1007.2   NA       0.0000   9999     850   0     0    
2019/08/18  04:38:02  BASE  1.49352  308  2.69304  331  -5.2  100   -5.2  0     0     1007.2   NA       0.0000   9999     850   0     0    
2019/08/18  04:39:03  BASE  1.72872  316  2.81064  326  -5.2  100   -5.2  0     0     1007.2   NA       0.0000   9999     890   0     0    
2019/08/18  04:40:02  BASE  1.99332  331  2.81064  326  -5.2  100   -5.2  0     0     1007.2   NA       0.0000   9999     790   0     0    
2019/08/18  04:41:02  BASE  1.98156  350  2.81064  326  -5.2  100   -5.2  0     0     1007.2   NA       0.0000   9999     720   0     0    
2019/08/18  04:42:02  BASE  2.36964  350  3.1458   331  -5.2  100   -5.2  0     0     1007.2   NA       0.0000   9999     820   0     0    
2019/08/18  04:43:02  BASE  2.86356  338  3.44568  335  -5.2  100   -5.2  0     0     1007.2   NA       0.0000   9999     920   0     0    
2019/08/18  04:44:03  BASE  3.25164  336  3.56916  331  -5.2  100   -5.2  0     0     1007.2   NA       0.0000   9999     920   0     0    
2019/08/18  04:45:02  BASE  3.38688  331  3.59856  331  -5.2  100   -5.2  0     0     1007.2   NA       0.0000   9999     890   0     0    
2019/08/18  04:46:02  BASE  3.04584  329  3.59856  331  -5.2  100   -5.2  0     0     1007.2   NA       0.0000   9999     890   0     0    
2019/08/18  04:47:02  BASE  2.69892  331  3.59856  331  -5.2  100   -5.2  0     0     1007.2   NA       0.0000   9999     890   0     0    
2019/08/18  04:48:03  BASE  2.72244  335  3.59856  331  -5.2  100   -5.2  0     0     1007.2   NA       0.0000   9999     850   0     0    
2019/08/18  04:49:03  BASE  2.78124  334  3.59856  331  -5.2  100   -5.2  0     0     1007.2   NA       0.0000   9999     890   0     0    
2019/08/18  04:50:02  BASE  2.63424  330  3.59856  331  -5.2  100   -5.2  0     0     1007.2   NA       0.0000   9999     820   0     0    
2019/08/18  04:51:01  BASE  2.16384  323  3.59856  331  -5.2  100   -5.2  0     0     1007.2   NA       0.0000   9999     850   0     0    
2019/08/18  04:52:02  BASE  2.03448  329  3.59856  331  -5.2  100   -5.2  0     0     1007.2   NA       0.0000   9999     850   0     0    
2019/08/18  04:53:02  BASE  2.205    345  3.59856  331  -5.2  100   -5.2  0     0     1007.2   NA       0.0000   9999     920   0     0    
2019/08/18  04:54:02  BASE  2.36964  340  3.59856  331  -5.2  100   -5.2  0     0     1007.2   NA       0.0000   9999     890   0     0    
2019/08/18  04:55:02  BASE  2.5578   329  3.2046   334  -5.2  100   -5.2  0     0     1007.2   NA       0.0000   9999     920   0     0    
2019/08/18  04:56:03  BASE  2.25204  324  3.2046   334  -5.2  100   -5.2  0     0     1007.2   NA       0.0000   9999     890   0     0    
2019/08/18  04:57:02  BASE  1.71108  329  3.2046   334  -5.2  100   -5.2  0     0     1007.2   NA       0.0000   9999     890   0     0    
2019/08/18  04:58:02  BASE  1.86984  336  2.96352  332  -5.2  100   -5.2  0     0     1007.2   NA       0.0000   9999     890   0     0    
2019/08/18  04:59:02  BASE  2.45784  337  2.87532  337  -5.2  100   -5.2  0     0     1007.2   NA       0.0000   9999     890   0     0    
2019/08/18  05:00:02  BASE  2.59308  344  2.87532  337  -5.2  100   -5.2  0     0     1007.2   NA       0.0000   9999     890   0     0    
2019/08/18  05:01:02  BASE  2.63424  349  2.87532  347  -5.2  100   -5.2  0     0     1007.2   NA       0.0000   9999     890   0     0    
2019/08/18  05:02:03  BASE  2.48724  350  2.87532  347  -5.2  100   -5.2  0     0     1007.2   NA       0.0000   9999     920   0     0    
2019/08/18  05:03:02  BASE  2.18148  347  2.87532  347  -5.2  100   -5.2  0     0     1007.2   NA       0.0000   9999     920   2590  0    
2019/08/18  05:04:02  BASE  2.34612  342  2.99292  341  -5.2  100   -5.2  0     0     1007.2   NA       0.0000   9999     890   0     0    
2019/08/18  05:05:03  BASE  2.36964  341  2.99292  341  -5.2  100   -5.2  0     0     1007.2   NA       0.0000   9999     850   0     0    
2019/08/18  05:06:03  BASE  2.39316  339  2.99292  341  -5.2  100   -5.2  0     0     1007.2   NA       0.0000   9999     890   0     0    
2019/08/18  05:07:02  BASE  2.42844  335  2.99292  341  -5.2  100   -5.2  0     0     1007.2   NA       0.0000   9999     920   0     0    
2019/08/18  05:08:02  BASE  2.21088  337  2.99292  341  -5.2  100   -5.2  0     0     1007.2   NA       0.0000   9999     850   0     0    
2019/08/18  05:09:02  BASE  2.10504  343  2.99292  341  -5.2  100   -5.2  0     0     1007.2   NA       0.0000   9999     890   0     0    
2019/08/18  05:10:02  BASE  2.058    347  2.99292  341  -5.1  100   -5.1  0     0     1007.2   NA       0.0000   9999     850   2530  0    
2019/08/18  05:11:02  BASE  2.22852  355  2.99292  341  -5.1  100   -5.1  0     0     1007.2   NA       0.0000   9999     920   2460  0    
2019/08/18  05:12:02  BASE  2.3814   3    2.99292  341  -5.1  100   -5.1  0     0     1007.2   NA       0.0000   9999     890   2430  0    
2019/08/18  05:13:02  BASE  2.55192  3    3.02232  360  -5.1  100   -5.1  0     0     1007.2   NA       0.0000   9999     890   0     0    
2019/08/18  05:14:03  BASE  2.5578   359  3.02232  360  -5.1  100   -5.1  0     0     1007.2   NA       0.0000   9999     890   0     0    
2019/08/18  05:15:02  BASE  2.59896  358  3.234    6    -5.1  100   -5.1  0     0     1007.1   NA       0.0000   9999     850   0     0    
2019/08/18  05:16:03  BASE  2.8518   359  3.234    6    -5.1  100   -5.1  0     0     1007.1   NA       0.0000   9999     980   0     0    
2019/08/18  05:17:03  BASE  2.76948  0    3.234    6    -5.1  100   -5.1  0     0     1007.1   NA       0.0000   9999     890   0     0    
2019/08/18  05:18:02  BASE  2.57544  1    3.234    6    -5.1  100   -5.1  0     0     1007.1   NA       0.0000   9999     920   0     0    
2019/08/18  05:19:02  BASE  2.45196  2    3.234    6    -5.1  100   -5.1  0     0     1007.1   NA       0.0000   9999     920   0     0    
2019/08/18  05:20:02  BASE  2.2932   3    3.234    6    -5.0  100   -5.0  0     0     1007.1   NA       0.0000   9999     850   0     0    
2019/08/18  05:21:02  BASE  2.49312  357  3.234    6    -5.0  100   -5.0  0     0     1007.1   NA       0.0000   9999     850   0     0    
2019/08/18  05:22:02  BASE  2.78712  353  3.234    6    -5.0  100   -5.0  0     0     1007.1   NA       0.0000   9999     850   0     0    
2019/08/18  05:23:02  BASE  2.98116  2    3.51036  7    -5.0  100   -5.0  0     0     1007.1   NA       0.0000   9999     750   0     0    
2019/08/18  05:24:02  BASE  3.06348  3    3.51036  7    -5.0  100   -5.0  0     0     1007.1   NA       0.0000   9999     750   0     0    
2019/08/18  05:25:02  BASE  2.66364  346  3.51036  7    -5.0  100   -5.0  0     0     1007.2   NA       0.0000   9999     750   0     0    
2019/08/18  05:26:02  BASE  2.15796  342  3.51036  7    -4.9  100   -4.9  0     0     1007.2   NA       0.0000   9999     790   0     0    
2019/08/18  05:27:02  BASE  2.15796  352  3.51036  7    -4.9  100   -4.9  0     0     1007.2   NA       0.0000   9999     660   0     0    
2019/08/18  05:28:02  BASE  2.30496  2    3.51036  7    -4.9  100   -4.9  0     0     1007.2   NA       0.0000   9999     690   0     0    
2019/08/18  05:29:03  BASE  2.25204  359  3.51036  7    -4.9  100   -4.9  0     0     1007.1   NA       0.0000   9999     620   0     0    
2019/08/18  05:30:02  BASE  2.45784  347  3.51036  7    -4.9  100   -4.9  0     0     1007.1   NA       0.0000   9999     660   0     0    
2019/08/18  05:31:02  BASE  2.54604  355  3.51036  7    -4.8  100   -4.8  0     0     1007.1   NA       0.0000   9999     660   0     0    
2019/08/18  05:32:02  BASE  2.29908  5    3.51036  7    -4.8  100   -4.8  0     0     1007.1   NA       0.0000   9999     490   0     0    
2019/08/18  05:33:01  BASE  2.49312  8    3.48096  338  -4.8  100   -4.8  0     0     1007.1   NA       0.0000   9999     560   0     0    
2019/08/18  05:34:02  BASE  2.793    10   3.41628  336  -4.8  100   -4.8  0     0     1007.1   NA       0.0000   9999     720   0     0    
2019/08/18  05:35:02  BASE  2.3814   8    3.29868  254  -4.8  100   -4.8  0     0     1007.2   NA       0.0000   9999     690   0     0    
2019/08/18  05:36:03  BASE  1.42296  17   3.29868  254  -4.8  100   -4.8  0     0     1007.2   NA       0.0000   9999     520   0     0    
2019/08/18  05:37:02  BASE  0.588    19   3.29868  254  -4.8  100   -4.8  0     0     1007.2   NA       0.0000   9999     590   0     0    
2019/08/18  05:38:02  BASE  0.69384  11   3.29868  254  -4.7  100   -4.7  0     0     1007.1   NA       0.0000   9999     620   0     0    
2019/08/18  05:39:02  BASE  1.74048  13   3.29868  254  -4.7  100   -4.7  0     0     1007.1   NA       0.0000   9999     620   0     0    
2019/08/18  05:40:02  BASE  2.26968  3    3.234    5    -4.7  100   -4.7  0     0     1007.1   NA       0.0000   9999     590   0     0    
2019/08/18  05:41:02  BASE  2.1756   344  3.234    5    -4.7  100   -4.7  0     0     1007.1   NA       0.0000   9999     660   0     0    
2019/08/18  05:42:03  BASE  2.4696   340  3.234    5    -4.7  100   -4.7  0     0     1007.0   NA       0.0000   9999     520   0     0    
2019/08/18  05:43:02  BASE  2.76948  343  3.75144  345  -4.7  100   -4.7  0     0     1006.9   NA       0.0000   9999     520   0     0    
2019/08/18  05:44:03  BASE  3.31632  344  4.2042   346  -4.7  100   -4.7  0     0     1006.9   NA       0.0000   9999     560   0     0    
2019/08/18  05:45:02  BASE  3.45156  343  4.41588  334  -4.7  100   -4.7  0     0     1006.9   NA       0.0000   9999     560   0     0    
2019/08/18  05:46:02  BASE  2.98116  348  4.41588  334  -4.7  100   -4.7  0     0     1006.9   NA       0.0000   9999     490   0     0    
2019/08/18  05:47:02  BASE  2.86944  350  4.41588  334  -4.7  100   -4.7  0     0     1006.9   NA       0.0000   9999     520   0     0    
2019/08/18  05:48:02  BASE  2.79888  347  4.41588  334  -4.7  100   -4.7  0     0     1006.9   NA       0.0000   9999     560   0     0    
2019/08/18  05:49:02  BASE  2.7342   347  4.41588  334  -4.7  100   -4.7  0     0     1006.9   NA       0.0000   9999     490   0     0    
2019/08/18  05:50:02  BASE  2.45196  346  4.41588  334  -4.7  100   -4.7  0     0     1006.9   NA       0.0000   9999     620   0     0    
2019/08/18  05:51:02  BASE  2.11092  331  4.41588  334  -4.7  100   -4.7  0     0     1007.0   NA       0.0000   9999     520   0     0    
2019/08/18  05:52:03  BASE  1.83456  315  4.41588  334  -4.8  100   -4.8  0     0     1007.0   NA       0.0000   9999     560   0     0    
2019/08/18  05:53:02  BASE  1.911    322  4.41588  334  -4.8  100   -4.8  0     0     1007.0   NA       0.0000   9999     520   0     0    
2019/08/18  05:54:03  BASE  2.04036  330  4.41588  334  -4.8  100   -4.8  0     0     1006.9   NA       0.0000   9999     520   0     0    
2019/08/18  05:55:02  BASE  2.18736  336  3.29868  344  -4.8  100   -4.8  0     0     1006.9   NA       0.0000   9999     490   0     0    
2019/08/18  05:56:04  BASE  2.38728  343  3.29868  344  -4.7  100   -4.7  0     0     1007.0   NA       0.0000   9999     490   0     0    
2019/08/18  05:57:03  BASE  2.62836  341  3.29868  344  -4.7  100   -4.7  0     0     1006.9   NA       0.0000   9999     490   0     0    
2019/08/18  05:58:02  BASE  2.46372  328  3.29868  344  -4.7  100   -4.7  0     0     1007.0   NA       0.0000   9999     460   0     0    
2019/08/18  05:59:02  BASE  2.22852  326  3.1752   332  -4.7  100   -4.7  0     0     1006.9   NA       0.0000   9999     430   0     0    
2019/08/18  06:00:02  BASE  2.56956  332  3.1752   332  -4.7  100   -4.7  0     0     1006.9   NA       0.0000   9999     330   0     0    
2019/08/18  06:01:02  BASE  3.06348  334  4.08072  336  -4.7  100   -4.7  0     0     1006.9   NA       0.0000   9999     330   0     0    
2019/08/18  06:02:02  BASE  3.45156  329  4.08072  336  -4.7  100   -4.7  0     0     1006.9   NA       0.0000   9999     430   0     0    
2019/08/18  06:03:02  BASE  3.0576   316  4.08072  336  -4.7  100   -4.7  0     0     1006.9   NA       0.0000   9999     260   0     0    
2019/08/18  06:04:02  BASE  2.51664  323  4.08072  336  -4.7  100   -4.7  0     0     1006.9   NA       0.0000   9999     300   0     0    
2019/08/18  06:05:03  BASE  2.69304  339  4.08072  336  -4.7  100   -4.7  0     0     1006.9   NA       0.0000   9999     300   0     0    
2019/08/18  06:06:02  BASE  3.01644  334  4.08072  336  -4.7  100   -4.7  0     0     1006.9   NA       0.0000   9999     390   0     0    
2019/08/18  06:07:02  BASE  2.66952  325  4.08072  336  -4.6  100   -4.6  0     0     1006.9   NA       0.0000   9999     330   0     0    
2019/08/18  06:08:03  BASE  1.90512  322  4.08072  336  -4.6  100   -4.6  0     0     1006.9   NA       0.0000   9999     330   0     0    
2019/08/18  06:09:03  BASE  2.01096  334  4.08072  336  -4.6  100   -4.6  0     0     1006.8   NA       0.0000   9999     260   0     0    
2019/08/18  06:10:02  BASE  2.84592  341  4.08072  336  -4.6  100   -4.6  0     0     1006.8   NA       0.0000   9999     300   0     0    
2019/08/18  06:11:02  BASE  3.39864  334  4.116    333  -4.6  100   -4.6  0     0     1006.8   NA       0.0000   9999     330   0     0    
2019/08/18  06:12:02  BASE  3.49272  341  4.116    333  -4.6  100   -4.6  0     0     1006.7   NA       0.0000   9999     300   0     0    
2019/08/18  06:13:02  BASE  3.19284  345  4.116    333  -4.6  100   -4.6  0     0     1006.7   NA       0.0000   9999     200   0     0    
2019/08/18  06:14:02  BASE  2.8812   345  4.116    333  -4.6  100   -4.6  0     0     1006.7   NA       0.0000   9999     200   0     0    
2019/08/18  06:15:02  BASE  2.92824  342  4.263    317  -4.6  100   -4.6  0     0     1006.7   NA       0.0000   9999     260   0     0    
2019/08/18  06:16:02  BASE  3.15168  334  4.263    317  -4.6  100   -4.6  0     0     1006.8   NA       0.0000   9999     300   0     0    
2019/08/18  06:17:02  BASE  2.95764  331  4.263    317  -4.6  100   -4.6  0     0     1006.8   NA       0.0000   9999     230   0     0    
2019/08/18  06:18:02  BASE  3.22812  326  4.263    317  -4.6  100   -4.6  0     0     1006.9   NA       0.0000   9999     230   0     0    
2019/08/18  06:19:02  BASE  3.51624  320  4.263    317  -4.6  100   -4.6  0     0     1006.9   NA       0.0000   9999     230   0     0    
2019/08/18  06:20:02  BASE  2.66952  315  4.263    317  -4.6  100   -4.6  0     0     1006.9   NA       0.0000   9999     0     0     0    
2019/08/18  06:21:02  BASE  2.36964  316  4.263    317  -4.6  100   -4.6  0     0     1006.9   NA       0.0000   9999     0     0     0    
2019/08/18  06:22:02  BASE  2.86356  326  4.263    317  -4.6  100   -4.6  0     0     1006.9   NA       0.0000   9999     0     0     0    
2019/08/18  06:23:02  BASE  2.84592  330  4.263    317  -4.6  100   -4.6  0     0     1006.9   NA       0.0000   9999     200   0     0    
2019/08/18  06:24:02  BASE  2.7342   335  4.263    317  -4.6  100   -4.6  0     0     1006.9   NA       0.0000   9999     200   0     0    
2019/08/18  06:25:02  BASE  2.499    350  4.08072  321  -4.6  100   -4.6  0     0     1006.9   NA       0.0000   9999     200   0     0    
2019/08/18  06:26:02  BASE  2.39316  340  4.08072  321  -4.6  100   -4.6  0     0     1007.0   NA       0.0000   9999     200   0     0    
2019/08/18  06:27:02  BASE  2.33436  321  4.08072  321  -4.6  100   -4.6  0     0     1007.0   NA       0.0000   9999     0     0     0    
2019/08/18  06:28:02  BASE  2.2344   322  3.75144  325  -4.6  100   -4.6  0     0     1007.0   NA       0.0000   9999     0     0     0    
2019/08/18  06:29:02  BASE  2.2932   326  3.234    360  -4.6  100   -4.6  0     0     1007.0   NA       0.0000   9999     200   0     0    
2019/08/18  06:30:02  BASE  2.058    335  3.234    360  -4.6  100   -4.6  0     0     1007.0   NA       0.0000   9999     160   0     0    
2019/08/18  06:31:02  BASE  2.09916  333  3.234    360  -4.6  100   -4.6  0     0     1007.0   NA       0.0000   9999     0     0     0    
2019/08/18  06:32:02  BASE  2.13444  331  3.234    360  -4.6  100   -4.6  0     0     1007.0   NA       0.0000   9999     200   0     0    
2019/08/18  06:33:02  BASE  2.058    338  3.234    360  -4.6  100   -4.6  0     0     1006.9   NA       0.0000   9999     200   0     0    
2019/08/18  06:34:02  BASE  2.12856  342  3.234    360  -4.6  100   -4.6  0     0     1006.9   NA       0.0000   9999     230   0     0    
2019/08/18  06:35:02  BASE  2.13444  340  2.93412  318  -4.6  100   -4.6  0     0     1006.9   NA       0.0000   9999     160   0     0    
2019/08/18  06:36:03  BASE  2.16384  334  2.87532  316  -4.7  100   -4.7  0     0     1006.9   NA       0.0000   9999     200   0     0    
2019/08/18  06:37:02  BASE  2.35788  335  2.93412  348  -4.7  100   -4.7  0     0     1006.8   NA       0.0000   9999     200   0     0    
2019/08/18  06:38:02  BASE  2.85768  341  3.48096  349  -4.7  100   -4.7  0     0     1006.8   NA       0.0000   9999     230   0     0    
2019/08/18  06:39:02  BASE  2.7636   351  3.48096  349  -4.7  100   -4.7  0     0     1006.8   NA       0.0000   9999     200   0     0    
2019/08/18  06:40:02  BASE  2.60484  352  3.48096  349  -4.6  100   -4.6  0     0     1006.9   NA       0.0000   9999     200   0     0    
2019/08/18  06:41:02  BASE  2.75184  345  3.48096  349  -4.6  100   -4.6  0     0     1006.8   NA       0.0000   9999     200   0     0    
2019/08/18  06:42:03  BASE  2.78124  340  3.48096  349  -4.6  100   -4.6  0     0     1006.9   NA       0.0000   9999     0     0     0    
2019/08/18  06:43:02  BASE  2.78712  343  3.48096  349  -4.6  100   -4.6  0     0     1006.9   NA       0.0000   9999     160   0     0    
2019/08/18  06:44:03  BASE  2.59308  350  3.48096  349  -4.6  100   -4.6  0     0     1006.8   NA       0.0000   9999     160   0     0    
2019/08/18  06:45:02  BASE  2.5578   348  3.48096  349  -4.6  100   -4.6  0     0     1006.7   NA       0.0000   9999     160   0     0    
2019/08/18  06:46:02  BASE  2.60484  346  3.48096  349  -4.6  100   -4.6  0     0     1006.7   NA       0.0000   9999     160   1970  0    
2019/08/18  06:47:02  BASE  2.72244  352  3.48096  349  -4.6  100   -4.6  0     0     1006.7   NA       0.0000   9999     160   1970  0    
2019/08/18  06:48:02  BASE  2.97528  2    3.56916  4    -4.6  100   -4.6  0     0     1006.7   NA       0.0000   9999     230   1800  0    
2019/08/18  06:49:02  BASE  3.15168  7    3.59856  1    -4.6  100   -4.6  0     0     1006.6   NA       0.0000   9999     230   1740  0    
2019/08/18  06:50:02  BASE  3.2634   9    3.59856  1    -4.6  100   -4.6  0     0     1006.6   NA       0.0000   9999     430   1710  0    
2019/08/18  06:51:02  BASE  3.29868  13   3.59856  1    -4.6  100   -4.6  0     0     1006.6   NA       0.0000   9999     300   1710  0    
2019/08/18  06:52:02  BASE  3.07524  13   3.59856  1    -4.6  100   -4.6  0     0     1006.6   NA       0.0000   9999     490   1480  0    
2019/08/18  06:53:02  BASE  2.94588  6    3.59856  1    -4.5  100   -4.5  0     0     1006.6   NA       0.0000   9999     490   1440  0    
2019/08/18  06:54:02  BASE  2.9988   356  3.59856  1    -4.5  100   -4.5  0     0     1006.6   NA       0.0000   9999     560   1380  0    
2019/08/18  06:55:02  BASE  2.92236  360  3.59856  1    -4.5  100   -4.5  0     0     1006.6   NA       0.0000   9999     490   1310  0    
2019/08/18  06:56:03  BASE  3.00468  9    3.59856  1    -4.5  100   -4.5  0     0     1006.6   NA       0.0000   9999     560   1210  0    
2019/08/18  06:57:02  BASE  3.21048  5    4.35708  341  -4.5  100   -4.5  0     0     1006.6   NA       0.0000   9999     560   1120  0    
2019/08/18  06:58:02  BASE  3.04584  354  4.35708  341  -4.5  100   -4.5  0     0     1006.6   NA       0.0000   9999     560   1020  0    
2019/08/18  06:59:02  BASE  2.78712  355  4.35708  341  -4.5  100   -4.5  0     0     1006.6   NA       0.0000   9999     620   0     0    
2019/08/18  07:00:02  BASE  2.92824  2    4.35708  341  -4.5  100   -4.5  0     0     1006.6   NA       0.0000   9999     850   0     0    
2019/08/18  07:01:04  BASE  3.08112  10   4.35708  341  -4.4  100   -4.4  0     0     1006.6   NA       0.0000   9999     560   0     0    
2019/08/18  07:02:02  BASE  3.06936  16   4.35708  341  -4.4  100   -4.4  0     0     1006.6   NA       0.0000   9999     690   0     0    
2019/08/18  07:03:02  BASE  2.9988   10   4.35708  341  -4.4  100   -4.4  0     0     1006.6   NA       0.0000   9999     620   0     0    
2019/08/18  07:04:03  BASE  3.0576   2    4.35708  341  -4.4  100   -4.4  0     0     1006.6   NA       0.0000   9999     560   0     0    
2019/08/18  07:05:03  BASE  3.18108  357  4.35708  341  -4.4  100   -4.4  0     0     1006.6   NA       0.0000   9999     620   0     0    
2019/08/18  07:06:03  BASE  3.59856  353  4.35708  341  -4.4  100   -4.4  0     0     1006.6   NA       0.0000   9999     590   0     0    
2019/08/18  07:07:02  BASE  3.65736  346  4.32768  346  -4.4  100   -4.4  0     0     1006.6   NA       0.0000   9999     560   0     0    
2019/08/18  07:08:02  BASE  2.84592  345  4.32768  346  -4.4  100   -4.4  0     0     1006.6   NA       0.0000   9999     520   0     0    
2019/08/18  07:09:02  BASE  2.499    351  4.32768  346  -4.4  100   -4.4  0     0     1006.6   NA       0.0000   9999     390   0     0    
2019/08/18  07:10:02  BASE  2.9106   358  4.32768  346  -4.4  100   -4.4  0     0     1006.6   NA       0.0000   9999     430   0     0    
2019/08/18  07:11:03  BASE  3.27516  354  4.32768  346  -4.4  100   -4.4  0     0     1006.6   NA       0.0000   9999     360   0     0    
2019/08/18  07:12:03  BASE  2.94588  352  4.32768  346  -4.3  100   -4.3  0     0     1006.6   NA       0.0000   9999     330   0     0    
2019/08/18  07:13:02  BASE  2.80476  349  4.32768  346  -4.3  100   -4.3  0     0     1006.6   NA       0.0000   9999     330   0     0    
2019/08/18  07:14:02  BASE  3.01644  340  4.32768  346  -4.3  100   -4.3  0     0     1006.6   NA       0.0000   9999     330   0     0    
2019/08/18  07:15:02  BASE  2.96352  333  4.32768  346  -4.3  100   -4.3  0     0     1006.6   NA       0.0000   9999     300   0     0    
2019/08/18  07:16:02  BASE  3.22812  333  4.263    325  -4.3  100   -4.3  0     0     1006.6   NA       0.0000   9999     330   0     0    
2019/08/18  07:17:02  BASE  3.25752  350  4.263    325  -4.3  100   -4.3  0     0     1006.6   NA       0.0000   9999     390   0     0    
2019/08/18  07:18:02  BASE  3.08112  350  4.35708  342  -4.3  100   -4.3  0     0     1006.6   NA       0.0000   9999     390   0     0    
2019/08/18  07:19:02  BASE  3.1164   345  4.35708  342  -4.3  100   -4.3  0     0     1006.6   NA       0.0000   9999     300   0     0    
2019/08/18  07:20:02  BASE  3.1458   351  4.35708  342  -4.3  100   -4.3  0     0     1006.6   NA       0.0000   9999     300   0     0    
2019/08/18  07:21:02  BASE  3.16932  350  4.35708  342  -4.3  100   -4.3  0     0     1006.6   NA       0.0000   9999     330   0     0    
2019/08/18  07:22:02  BASE  3.06936  357  4.35708  342  -4.3  100   -4.3  0     0     1006.6   NA       0.0000   9999     390   0     0    
2019/08/18  07:23:02  BASE  2.86944  356  4.35708  342  -4.3  100   -4.3  0     0     1006.6   NA       0.0000   9999     330   0     0    
2019/08/18  07:24:02  BASE  2.44608  353  4.35708  342  -4.3  100   -4.3  0     0     1006.6   NA       0.0000   9999     360   0     0    
2019/08/18  07:25:02  BASE  2.3226   351  4.35708  342  -4.3  100   -4.3  0     0     1006.6   NA       0.0000   9999     390   0     0    
2019/08/18  07:26:02  BASE  2.499    340  4.35708  342  -4.3  100   -4.3  0     0     1006.6   NA       0.0000   9999     390   0     0    
2019/08/18  07:27:03  BASE  2.75184  331  4.35708  342  -4.3  100   -4.3  0     0     1006.6   NA       0.0000   9999     490   0     0    
2019/08/18  07:28:03  BASE  2.94     331  3.62796  346  -4.3  100   -4.3  0     0     1006.6   NA       0.0000   9999     360   0     0    
2019/08/18  07:29:02  BASE  2.84592  327  3.59856  351  -4.3  100   -4.3  0     0     1006.6   NA       0.0000   9999     330   0     0    
2019/08/18  07:30:02  BASE  2.34612  322  3.48096  360  -4.3  100   -4.3  0     0     1006.6   NA       0.0000   9999     230   0     0    
2019/08/18  07:31:02  BASE  1.86396  329  3.38688  319  -4.3  100   -4.3  0     0     1006.6   NA       0.0000   9999     0     0     0    
2019/08/18  07:32:02  BASE  2.00508  330  3.38688  319  -4.3  100   -4.3  0     0     1006.6   NA       0.0000   9999     260   0     0    
2019/08/18  07:33:02  BASE  2.35788  329  3.38688  319  -4.3  100   -4.3  0     0     1006.6   NA       0.0000   9999     300   0     0    
2019/08/18  07:34:02  BASE  2.46372  336  3.38688  319  -4.3  100   -4.3  0     0     1006.6   NA       0.0000   9999     300   0     0    
2019/08/18  07:35:02  BASE  2.29908  343  3.38688  319  -4.3  100   -4.3  0     0     1006.6   NA       0.0000   9999     200   0     0    
2019/08/18  07:36:02  BASE  2.7342   341  3.75144  337  -4.3  100   -4.3  0     0     1006.6   NA       0.0000   9999     300   0     0    
2019/08/18  07:37:02  BASE  3.15168  333  3.75144  337  -4.3  100   -4.3  0     0     1006.6   NA       0.0000   9999     330   0     0    
2019/08/18  07:38:02  BASE  2.98116  326  3.75144  337  -4.3  100   -4.3  0     0     1006.6   NA       0.0000   9999     360   0     0    
2019/08/18  07:39:02  BASE  3.234    329  4.263    329  -4.3  100   -4.3  0     0     1006.6   NA       0.0000   9999     360   0     0    
2019/08/18  07:40:02  BASE  3.38688  340  4.263    329  -4.3  100   -4.3  0     0     1006.5   NA       0.0000   9999     360   0     0    
2019/08/18  07:41:02  BASE  3.34572  343  4.263    329  -4.3  100   -4.3  0     0     1006.5   NA       0.0000   9999     330   0     0    
2019/08/18  07:42:02  BASE  3.48096  339  4.263    329  -4.3  100   -4.3  0     0     1006.5   NA       0.0000   9999     330   0     0    
2019/08/18  07:43:02  BASE  3.54564  338  4.263    329  -4.3  100   -4.3  0     0     1006.5   NA       0.0000   9999     260   0     0    
2019/08/18  07:44:02  BASE  3.53976  342  4.263    329  -4.3  100   -4.3  0     0     1006.5   NA       0.0000   9999     300   0     0    
2019/08/18  07:45:03  BASE  3.381    346  4.263    329  -4.3  100   -4.3  0     0     1006.5   NA       0.0000   9999     300   0     0    
2019/08/18  07:46:02  BASE  3.09288  342  4.263    329  -4.3  100   -4.3  0     0     1006.5   NA       0.0000   9999     300   0     0    
2019/08/18  07:47:02  BASE  3.05172  333  4.263    329  -4.3  100   -4.3  0     0     1006.6   NA       0.0000   9999     360   0     0    
2019/08/18  07:48:02  BASE  2.92236  331  4.263    329  -4.3  100   -4.3  0     0     1006.6   NA       0.0000   9999     330   0     0    
2019/08/18  07:49:02  BASE  2.65776  335  3.86904  336  -4.3  100   -4.3  0     0     1006.6   NA       0.0000   9999     330   0     0    
2019/08/18  07:50:02  BASE  2.69892  331  3.86904  336  -4.3  100   -4.3  0     0     1006.5   NA       0.0000   9999     330   0     0    
2019/08/18  07:51:02  BASE  3.087    334  3.86904  337  -4.3  100   -4.3  0     0     1006.4   NA       0.0000   9999     330   0     0    
2019/08/18  07:52:02  BASE  3.78672  342  4.263    339  -4.3  100   -4.3  0     0     1006.3   NA       0.0000   9999     330   0     0    
2019/08/18  07:53:02  BASE  3.528    349  4.263    339  -4.3  100   -4.3  0     0     1006.3   NA       0.0000   9999     300   0     0    
2019/08/18  07:54:03  BASE  2.646    336  4.263    339  -4.3  100   -4.3  0     0     1006.4   NA       0.0000   9999     260   0     0    
2019/08/18  07:55:03  BASE  2.54604  317  4.263    339  -4.3  100   -4.3  0     0     1006.4   NA       0.0000   9999     330   0     0    
2019/08/18  07:56:02  BASE  2.6754   314  4.263    339  -4.3  100   -4.3  0     0     1006.4   NA       0.0000   9999     360   0     0    
2019/08/18  07:57:02  BASE  3.07524  322  4.263    339  -4.3  100   -4.3  0     0     1006.2   NA       0.0000   9999     390   0     0    
2019/08/18  07:58:02  BASE  4.1454   330  5.35668  326  -4.3  100   -4.3  0     0     1006.2   NA       0.0000   9999     360   0     0    
2019/08/18  07:59:02  BASE  4.36296  332  5.35668  326  -4.3  100   -4.3  0     0     1006.2   NA       0.0000   9999     330   0     0    
2019/08/18  08:00:02  BASE  4.09836  330  5.35668  326  -4.3  100   -4.3  0     0     1006.3   NA       0.0000   9999     330   0     0    
2019/08/18  08:01:02  BASE  3.88668  325  5.35668  326  -4.3  100   -4.3  0     0     1006.3   NA       0.0000   9999     300   0     0    
2019/08/18  08:02:02  BASE  4.2336   318  5.47428  312  -4.3  100   -4.3  0     0     1006.2   NA       0.0000   9999     430   0     0    
2019/08/18  08:03:02  BASE  3.94548  314  5.47428  312  -4.3  100   -4.3  0     0     1006.2   NA       0.0000   9999     390   0     0    
2019/08/18  08:04:02  BASE  3.18108  314  5.47428  312  -4.3  100   -4.3  0     0     1006.2   NA       0.0000   9999     430   0     0    
2019/08/18  08:05:03  BASE  3.24576  299  5.47428  312  -4.3  100   -4.3  0     0     1006.3   NA       0.0000   9999     390   0     0    
2019/08/18  08:06:02  BASE  3.49272  290  5.47428  312  -4.3  100   -4.3  0     0     1006.2   NA       0.0000   9999     520   0     0    
2019/08/18  08:07:02  BASE  3.9102   307  5.47428  312  -4.3  100   -4.3  0     0     1006.2   NA       0.0000   9999     490   0     0    
2019/08/18  08:08:02  BASE  4.0572   313  5.47428  312  -4.3  100   -4.3  0     0     1006.3   NA       0.0000   9999     360   0     0    
2019/08/18  08:09:02  BASE  4.36884  311  5.47428  311  -4.3  100   -4.3  0     0     1006.3   NA       0.0000   9999     360   0     0    
2019/08/18  08:10:02  BASE  4.6746   315  5.47428  311  -4.3  100   -4.3  0     0     1006.3   NA       0.0000   9999     360   0     0    
2019/08/18  08:11:02  BASE  4.65108  298  5.86824  292  -4.3  100   -4.3  0     0     1006.3   NA       0.0000   9999     300   0     0    
2019/08/18  08:12:03  BASE  3.56916  285  5.86824  292  -4.3  100   -4.3  0     0     1006.4   NA       0.0000   9999     330   0     0    
2019/08/18  08:13:02  BASE  2.7048   297  5.86824  292  -4.3  100   -4.3  0     0     1006.4   NA       0.0000   9999     300   0     0    
2019/08/18  08:14:02  BASE  3.62796  303  5.86824  292  -4.3  100   -4.3  0     0     1006.4   NA       0.0000   9999     330   0     0    
2019/08/18  08:15:02  BASE  4.04544  305  5.86824  292  -4.3  100   -4.3  0     0     1006.4   NA       0.0000   9999     300   0     0    
2019/08/18  08:16:02  BASE  3.4398   294  5.86824  292  -4.3  100   -4.3  0     0     1006.4   NA       0.0000   9999     300   0     0    
2019/08/18  08:17:02  BASE  3.33396  266  5.86824  292  -4.3  100   -4.3  0     0     1006.4   NA       0.0000   9999     300   0     0    
2019/08/18  08:18:02  BASE  3.08112  267  5.86824  292  -4.3  100   -4.3  0     0     1006.4   NA       0.0000   9999     300   0     0    
2019/08/18  08:19:02  BASE  2.45784  273  5.86824  292  -4.3  100   -4.3  0     0     1006.4   NA       0.0000   9999     300   0     0    
2019/08/18  08:20:02  BASE  2.3226   270  5.86824  292  -4.3  100   -4.3  0     0     1006.4   NA       0.0000   9999     300   0     0    
2019/08/18  08:21:02  BASE  2.36376  281  5.2626   298  -4.3  100   -4.3  0     0     1006.4   NA       0.0000   9999     300   0     0    
2019/08/18  08:22:02  BASE  2.2638   280  5.2626   298  -4.3  100   -4.3  0     0     1006.5   NA       0.0000   9999     260   0     0    
2019/08/18  08:23:02  BASE  2.29908  277  5.2626   298  -4.3  100   -4.3  0     0     1006.4   NA       0.0000   9999     260   0     0    
2019/08/18  08:24:02  BASE  2.21088  264  4.29828  246  -4.3  100   -4.3  0     0     1006.4   NA       0.0000   9999     300   0     0    
2019/08/18  08:25:02  BASE  1.84632  258  4.29828  246  -4.3  100   -4.3  0     0     1006.4   NA       0.0000   9999     230   0     0    
2019/08/18  08:26:02  BASE  2.02272  274  4.29828  246  -4.4  100   -4.4  0     0     1006.4   NA       0.0000   9999     230   0     0    
2019/08/18  08:27:02  BASE  2.22264  277  3.90432  255  -4.4  100   -4.4  0     0     1006.4   NA       0.0000   9999     230   1080  0    
2019/08/18  08:28:02  BASE  1.9698   278  3.90432  255  -4.4  100   -4.4  0     0     1006.4   NA       0.0000   9999     300   0     0    
2019/08/18  08:29:02  BASE  2.32848  280  3.90432  255  -4.4  100   -4.4  0     0     1006.4   NA       0.0000   9999     260   1150  0    
2019/08/18  08:30:02  BASE  2.56956  282  3.087    292  -4.4  100   -4.4  0     0     1006.4   NA       0.0000   9999     230   0     0    
2019/08/18  08:31:02  BASE  2.84592  289  3.86904  293  -4.4  100   -4.4  0     0     1006.3   NA       0.0000   9999     260   0     0    
2019/08/18  08:32:02  BASE  3.51624  290  4.05132  293  -4.4  100   -4.4  0     0     1006.3   NA       0.0000   9999     230   0     0    
2019/08/18  08:33:02  BASE  3.42804  289  4.05132  293  -4.4  100   -4.4  0     0     1006.3   NA       0.0000   9999     300   0     0    
2019/08/18  08:34:02  BASE  3.27516  285  4.05132  293  -4.5  100   -4.5  0     0     1006.3   NA       0.0000   9999     300   0     0    
2019/08/18  08:35:02  BASE  2.98116  283  4.05132  293  -4.5  100   -4.5  0     0     1006.3   NA       0.0000   9999     300   0     0    
2019/08/18  08:36:02  BASE  2.97528  285  4.1454   269  -4.5  100   -4.5  0     0     1006.2   NA       0.0000   9999     260   0     0    
2019/08/18  08:37:02  BASE  3.16344  280  4.1454   269  -4.5  100   -4.5  0     0     1006.2   NA       0.0000   9999     260   0     0    
2019/08/18  08:38:02  BASE  2.82828  278  4.1454   269  -4.5  100   -4.5  0     0     1006.1   NA       0.0000   9999     260   0     0    
2019/08/18  08:39:02  BASE  2.9106   281  4.1454   269  -4.6  100   -4.6  0     0     1006.1   NA       0.0000   9999     260   0     0    
2019/08/18  08:40:02  BASE  2.9988   281  4.1454   269  -4.6  100   -4.6  0     0     1006.1   NA       0.0000   9999     260   0     0    
2019/08/18  08:41:01  BASE  2.75772  282  4.1454   269  -4.6  100   -4.6  0     0     1006.1   NA       0.0000   9999     230   0     0    
2019/08/18  08:42:02  BASE  2.646    278  4.1454   269  -4.6  100   -4.6  0     0     1006.1   NA       0.0000   9999     260   0     0    
2019/08/18  08:43:02  BASE  2.5578   272  4.1454   269  -4.6  100   -4.6  0     0     1006.1   NA       0.0000   9999     260   0     0    
2019/08/18  08:44:02  BASE  2.68128  273  4.1454   269  -4.6  100   -4.6  0     0     1006.1   NA       0.0000   9999     230   0     0    
2019/08/18  08:45:02  BASE  2.78712  276  4.1454   269  -4.6  100   -4.6  0     0     1006.1   NA       0.0000   9999     200   0     0    
2019/08/18  08:46:02  BASE  2.49312  280  3.86904  272  -4.6  100   -4.6  0     0     1006.1   NA       0.0000   9999     200   0     0    
2019/08/18  08:47:02  BASE  2.25204  288  3.69264  271  -4.6  100   -4.6  0     0     1006.1   NA       0.0000   9999     160   0     0    
2019/08/18  08:48:02  BASE  2.352    287  3.69264  271  -4.6  100   -4.6  0     0     1006.1   NA       0.0000   9999     200   0     0    
2019/08/18  08:49:02  BASE  2.56956  284  3.41628  256  -4.6  100   -4.6  0     0     1005.9   NA       0.0000   9999     160   0     0    
2019/08/18  08:50:02  BASE  2.57544  293  3.41628  256  -4.6  100   -4.6  0     0     1005.9   NA       0.0000   9999     0     0     0    
2019/08/18  08:51:02  BASE  2.22264  314  3.41628  256  -4.6  100   -4.6  0     0     1005.9   NA       0.0000   9999     0     0     0    
2019/08/18  08:52:03  BASE  1.911    338  3.41628  256  -4.7  100   -4.7  0     0     1005.9   NA       0.0000   9999     0     0     0    
2019/08/18  08:53:02  BASE  1.86984  338  3.41628  256  -4.7  100   -4.7  0     0     1005.9   NA       0.0000   9999     330   0     0    
2019/08/18  08:54:02  BASE  1.91688  334  3.02232  279  -4.7  100   -4.7  0     0     1005.9   NA       0.0000   9999     0     0     0    
2019/08/18  08:55:02  BASE  1.98156  334  3.02232  279  -4.7  100   -4.7  0     0     1005.9   NA       0.0000   9999     0     0     0    
2019/08/18  08:56:02  BASE  1.9992   338  2.96352  285  -4.7  100   -4.7  0     0     1005.9   NA       0.0000   9999     0     0     0    
2019/08/18  08:57:01  BASE  2.0286   340  2.96352  285  -4.7  100   -4.7  0     0     1005.8   NA       0.0000   9999     160   0     0    
2019/08/18  08:58:02  BASE  2.0286   344  2.96352  285  -4.7  100   -4.7  0     0     1005.8   NA       0.0000   9999     0     0     0    
2019/08/18  08:59:02  BASE  2.09916  352  2.81064  294  -4.7  100   -4.7  0     0     1005.8   NA       0.0000   9999     0     0     0    
2019/08/18  09:00:03  BASE  2.15208  352  2.45196  310  -4.7  100   -4.7  0     0     1005.8   NA       0.0000   9999     160   0     0    
2019/08/18  09:01:03  BASE  2.15208  350  2.24028  350  -4.7  100   -4.7  0     0     1005.8   NA       0.0000   9999     160   0     0    
2019/08/18  09:02:03  BASE  2.12856  345  2.29908  340  -4.7  100   -4.7  0     0     1005.8   NA       0.0000   9999     160   0     0    
2019/08/18  09:03:02  BASE  2.21088  344  2.48136  344  -4.7  100   -4.7  0     0     1005.8   NA       0.0000   9999     0     0     0    
2019/08/18  09:04:03  BASE  2.24028  346  2.48136  344  -4.7  100   -4.7  0     0     1005.8   NA       0.0000   9999     0     0     0    
2019/08/18  09:05:04  BASE  2.19324  341  2.48136  344  -4.7  100   -4.7  0     0     1005.8   NA       0.0000   9999     0     0     0    
2019/08/18  09:06:03  BASE  2.36376  330  2.69304  323  -4.7  100   -4.7  0     0     1005.8   NA       0.0000   9999     0     0     0    
2019/08/18  09:07:03  BASE  2.37552  325  2.69304  323  -4.7  100   -4.7  0     0     1005.8   NA       0.0000   9999     0     0     0    
2019/08/18  09:08:03  BASE  2.3226   319  2.81064  314  -4.7  100   -4.7  0     0     1005.8   NA       0.0000   9999     0     0     0    
2019/08/18  09:09:03  BASE  2.45784  317  2.84592  315  -4.7  100   -4.7  0     0     1005.8   NA       0.0000   9999     0     0     0    
2019/08/18  09:10:03  BASE  2.54016  323  2.87532  312  -4.7  100   -4.7  0     0     1005.8   NA       0.0000   9999     0     0     0    
2019/08/18  09:11:03  BASE  2.65776  323  2.93412  320  -4.7  100   -4.7  0     0     1005.8   NA       0.0000   9999     0     0     0    
2019/08/18  09:12:03  BASE  2.75772  320  3.087    320  -4.6  100   -4.6  0     0     1005.8   NA       0.0000   9999     0     0     0    
2019/08/18  09:13:03  BASE  2.66364  318  3.087    320  -4.6  100   -4.6  0     0     1005.8   NA       0.0000   9999     0     0     0    
2019/08/18  09:14:03  BASE  2.5578   326  3.087    320  -4.6  100   -4.6  0     0     1005.8   NA       0.0000   9999     0     0     0    
2019/08/18  09:15:03  BASE  2.65188  333  3.087    320  -4.6  100   -4.6  0     0     1005.7   NA       0.0000   9999     0     0     0    
2019/08/18  09:16:04  BASE  2.8518   330  3.234    324  -4.6  100   -4.6  0     0     1005.7   NA       0.0000   9999     0     0     0    
2019/08/18  09:17:03  BASE  3.2046   322  3.62796  320  -4.6  100   -4.6  0     0     1005.7   NA       0.0000   9999     0     0     0    
2019/08/18  09:18:03  BASE  3.19284  326  3.62796  320  -4.6  100   -4.6  0     0     1005.7   NA       0.0000   9999     0     0     0    
2019/08/18  09:19:02  BASE  2.94588  339  3.62796  320  -4.5  100   -4.5  0     0     1005.7   NA       0.0000   9999     0     0     0    
2019/08/18  09:20:03  BASE  2.97528  334  3.62796  320  -4.5  100   -4.5  0     0     1005.8   NA       0.0000   9999     0     0     0    
2019/08/18  09:21:03  BASE  3.18108  320  3.62796  320  -4.5  100   -4.5  0     0     1005.8   NA       0.0000   9999     0     0     0    
2019/08/18  09:22:02  BASE  3.35748  322  3.62796  331  -4.5  100   -4.5  0     0     1005.8   NA       0.0000   9999     0     0     0    
2019/08/18  09:23:03  BASE  3.52212  326  4.2336   319  -4.5  100   -4.5  0     0     1005.8   NA       0.0000   9999     0     0     0    
2019/08/18  09:24:03  BASE  4.12776  316  4.93332  306  -4.5  100   -4.5  0     0     1005.7   NA       0.0000   9999     0     0     0    
2019/08/18  09:25:03  BASE  4.32768  311  4.93332  306  -4.5  100   -4.5  0     0     1005.8   NA       0.0000   9000     0     0     0    
2019/08/18  09:26:03  BASE  4.03956  315  4.93332  306  -4.5  100   -4.5  0     0     1005.8   NA       0.0000   9000     0     0     0    
2019/08/18  09:27:03  BASE  4.03956  318  4.93332  306  -4.5  100   -4.5  0     0     1005.8   NA       0.0000   9999     0     0     0    
2019/08/18  09:28:03  BASE  4.06308  316  4.93332  306  -4.5  100   -4.5  0     0     1005.8   NA       0.0000   9999     0     0     0    
2019/08/18  09:29:03  BASE  3.75144  315  4.93332  306  -4.5  100   -4.5  0     0     1005.8   NA       0.0000   9999     0     0     0    
2019/08/18  09:30:03  BASE  3.44568  320  4.93332  306  -4.5  100   -4.5  0     0     1005.8   NA       0.0000   9000     0     0     0    
2019/08/18  09:31:03  BASE  3.42216  321  4.93332  306  -4.5  100   -4.5  0     0     1005.8   NA       0.0000   8000     0     0     0    
2019/08/18  09:32:03  BASE  3.19872  323  4.93332  306  -4.5  100   -4.5  0     0     1005.8   NA       0.0000   BR       8000  0     0    
2019/08/18  09:33:03  BASE  2.98704  325  4.93332  306  -4.5  100   -4.5  0     0     1005.8   NA       0.0000   BR       9999  0     0    
2019/08/18  09:34:03  BASE  3.25752  318  4.59816  315  -4.5  100   -4.5  0     0     1005.7   NA       0.0000   BR       9999  0     0    
2019/08/18  09:35:03  BASE  3.675    314  4.59816  315  -4.5  100   -4.5  0     0     1005.7   NA       0.0000   BR       9999  0     0    
2019/08/18  09:36:03  BASE  3.65148  314  4.59816  315  -4.4  100   -4.4  0     0     1005.7   NA       0.0000   9999     0     0     0    
2019/08/18  09:37:03  BASE  3.675    318  4.35708  317  -4.4  100   -4.4  0     0     1005.6   NA       0.0000   9999     0     0     0    
2019/08/18  09:38:03  BASE  4.01604  321  4.65696  316  -4.4  100   -4.4  0     0     1005.6   NA       0.0000   9999     0     0     0    
2019/08/18  09:39:03  BASE  4.09836  323  4.65696  316  -4.4  100   -4.4  0     0     1005.5   NA       0.0000   9999     0     0     0    
2019/08/18  09:40:03  BASE  3.99252  326  4.65696  316  -4.4  100   -4.4  0     0     1005.4   NA       0.0000   9999     0     0     0    
2019/08/18  09:41:02  BASE  3.95136  323  4.65696  316  -4.4  100   -4.4  0     0     1005.4   NA       0.0000   9999     0     0     0    
2019/08/18  09:42:03  BASE  4.16304  321  4.89804  326  -4.3  100   -4.3  0     0     1005.4   NA       0.0000   9999     0     0     0    
2019/08/18  09:43:02  BASE  4.36296  324  4.89804  326  -4.3  100   -4.3  0     0     1005.3   NA       0.0000   9999     0     0     0    
2019/08/18  09:44:03  BASE  4.32768  321  4.89804  326  -4.3  100   -4.3  0     0     1005.3   NA       0.0000   9999     0     0     0    
2019/08/18  09:45:03  BASE  4.39824  320  5.08032  314  -4.3  100   -4.3  0     0     1005.3   NA       0.0000   9999     0     0     0    
2019/08/18  09:46:03  BASE  4.41     324  5.08032  314  -4.3  100   -4.3  0     0     1005.3   NA       0.0000   9000     0     0     0    
2019/08/18  09:47:03  BASE  4.42176  322  5.08032  314  -4.2  100   -4.2  0     0     1005.2   NA       0.0000   9999     0     0     0    
2019/08/18  09:48:03  BASE  4.45116  323  5.08032  314  -4.2  100   -4.2  0     0     1005.2   NA       0.0000   9999     0     0     0    
2019/08/18  09:49:03  BASE  4.57464  322  5.41548  301  -4.2  100   -4.2  0     0     1005.2   NA       0.0000   9999     0     0     0    
2019/08/18  09:50:02  BASE  4.66872  322  5.41548  301  -4.2  100   -4.2  0     0     1005.2   NA       0.0000   9999     0     0     0    
2019/08/18  09:51:03  BASE  4.43352  327  5.41548  301  -4.2  100   -4.2  0     0     1005.2   NA       0.0000   9999     0     0     0    
2019/08/18  09:52:02  BASE  4.23948  330  5.41548  301  -4.2  100   -4.2  0     0     1005.2   NA       0.0000   9999     0     0     0    
2019/08/18  09:53:02  BASE  4.32768  325  5.41548  301  -4.2  100   -4.2  0     0     1005.2   NA       0.0000   9999     0     0     0    
2019/08/18  09:54:03  BASE  4.53936  322  5.47428  317  -4.1  100   -4.1  0     0     1005.2   NA       0.0000   9999     0     0     0    
2019/08/18  09:55:03  BASE  4.71576  328  5.47428  317  -4.1  100   -4.1  0     0     1005.2   NA       0.0000   9999     0     0     0    
2019/08/18  09:56:03  BASE  4.62756  329  5.47428  317  -4.1  100   -4.1  0     0     1005.2   NA       0.0000   9000     0     0     0    
2019/08/18  09:57:03  BASE  4.35708  323  5.62716  312  -4.1  100   -4.1  0     0     1005.2   NA       0.0000   8000     0     0     0    
2019/08/18  09:58:03  BASE  3.97488  322  5.62716  312  -4.1  100   -4.1  0     0     1005.3   NA       0.0000   BR       7000  0     0    
2019/08/18  09:59:03  BASE  3.81612  325  5.62716  312  -4.1  100   -4.1  0     0     1005.3   NA       0.0000   BR       8000  0     0    
2019/08/18  10:00:03  BASE  3.9102   324  5.62716  312  -4.1  100   -4.1  0     0     1005.3   NA       0.0000   BR       9999  0     0    
2019/08/18  10:01:03  BASE  3.90432  322  5.62716  312  -4.1  100   -4.1  0     0     1005.3   NA       0.0000   BR       9999  0     0    
2019/08/18  10:02:02  BASE  4.04544  325  5.62716  312  -4.1  100   -4.1  0     0     1005.3   NA       0.0000   BR       9999  0     0    
2019/08/18  10:03:03  BASE  3.91608  329  5.62716  312  -4.1  100   -4.1  0     0     1005.3   NA       0.0000   BR       9000  0     0    
2019/08/18  10:04:03  BASE  3.68088  326  5.62716  312  -4.1  100   -4.1  0     0     1005.3   NA       0.0000   BR       9000  0     0    
2019/08/18  10:05:04  BASE  3.63972  322  5.62716  312  -4.0  100   -4.0  0     0     1005.4   NA       0.0000   BR       9000  0     0    
2019/08/18  10:06:03  BASE  3.63972  313  5.62716  312  -4.0  100   -4.0  0     0     1005.4   NA       0.0000   BR       9999  0     0    
2019/08/18  10:07:03  BASE  3.58092  315  4.96272  337  -4.0  100   -4.0  0     0     1005.3   NA       0.0000   BR       9000  0     0    
2019/08/18  10:08:03  BASE  3.56916  328  4.96272  337  -4.0  100   -4.0  0     0     1005.3   NA       0.0000   BR       9999  0     0    
2019/08/18  10:09:03  BASE  3.822    329  4.96272  337  -4.0  100   -4.0  0     0     1005.3   NA       0.0000   BR       9999  0     0    
2019/08/18  10:10:03  BASE  4.13364  322  4.96272  337  -4.0  100   -4.0  0     0     1005.2   NA       0.0000   BR       9999  0     0    
2019/08/18  10:11:03  BASE  3.969    325  4.96272  337  -4.0  100   -4.0  0     0     1005.2   NA       0.0000   9999     0     0     0    
2019/08/18  10:12:03  BASE  3.7926   326  4.86864  323  -4.0  100   -4.0  0     0     1005.2   NA       0.0000   9999     0     0     0    
2019/08/18  10:13:03  BASE  4.19832  318  5.2038   317  -4.0  100   -4.0  0     0     1005.1   NA       0.0000   9999     0     0     0    
2019/08/18  10:14:03  BASE  4.1748   318  5.2038   317  -4.0  100   -4.0  0     0     1005.1   NA       0.0000   9999     0     0     0    
2019/08/18  10:15:03  BASE  4.06896  319  5.2038   317  -4.0  100   -4.0  0     0     1005.1   NA       0.0000   9999     0     0     0    
2019/08/18  10:16:03  BASE  4.35708  315  5.2038   317  -4.0  100   -4.0  0     0     1005.1   NA       0.0000   9999     0     0     0    
2019/08/18  10:17:03  BASE  4.3218   313  5.2038   317  -4.0  100   -4.0  0     0     1004.9   NA       0.0000   9999     0     0     0    
2019/08/18  10:18:03  BASE  4.36296  316  5.2038   317  -4.0  100   -4.0  0     0     1005.0   NA       0.0000   9999     0     0     0    
2019/08/18  10:19:03  BASE  4.41     316  5.2038   317  -4.0  100   -4.0  0     0     1005.0   NA       0.0000   9999     0     0     0    
2019/08/18  10:20:03  BASE  4.55112  317  5.2038   318  -4.0  100   -4.0  0     0     1005.0   NA       0.0000   9999     0     0     0    
2019/08/18  10:21:03  BASE  5.00388  317  6.10932  305  -4.0  100   -4.0  0     0     1004.9   NA       0.0000   9999     0     0     0    
2019/08/18  10:22:03  BASE  5.00388  314  6.10932  305  -4.0  100   -4.0  0     0     1004.9   NA       0.0000   9000     0     0     0    
2019/08/18  10:23:03  BASE  4.99212  310  6.10932  305  -3.9  100   -3.9  0     0     1004.9   NA       0.0000   9999     0     0     0    
2019/08/18  10:24:03  BASE  4.91568  307  6.10932  305  -3.9  100   -3.9  0     0     1004.9   NA       0.0000   9999     0     0     0    
2019/08/18  10:25:03  BASE  4.68048  309  6.10932  305  -3.9  100   -3.9  0     0     1004.9   NA       0.0000   9999     200   7640  0    
2019/08/18  10:26:03  BASE  4.86276  311  6.10932  305  -3.9  100   -3.9  0     0     1004.8   NA       0.0000   9999     200   7640  0    
2019/08/18  10:27:03  BASE  4.9392   308  6.10932  305  -3.9  100   -3.9  0     0     1004.8   NA       0.0000   9999     200   7710  0    
2019/08/18  10:28:03  BASE  4.99212  305  6.10932  305  -3.9  100   -3.9  0     0     1004.8   NA       0.0000   9999     300   7580  0    
2019/08/18  10:29:02  BASE  5.06268  304  6.10932  305  -3.9  100   -3.9  0     0     1004.8   NA       0.0000   9999     300   7550  0    
2019/08/18  10:30:03  BASE  4.99212  299  6.10932  305  -3.9  100   -3.9  0     0     1004.9   NA       0.0000   9999     360   7450  0    
2019/08/18  10:31:03  BASE  4.69224  297  5.71536  292  -3.8  100   -3.8  0     0     1004.9   NA       0.0000   9999     360   7420  0    
2019/08/18  10:32:03  BASE  4.19832  302  5.71536  292  -3.8  100   -3.8  0     0     1004.9   NA       0.0000   9999     390   7450  0    
2019/08/18  10:33:03  BASE  3.71616  305  5.71536  292  -3.8  100   -3.8  0     0     1005.0   NA       0.0000   9999     360   7420  0    
2019/08/18  10:34:03  BASE  3.30456  306  5.71536  292  -3.8  100   -3.8  0     0     1005.1   NA       0.0000   9999     360   7280  0    
2019/08/18  10:35:03  BASE  3.06936  301  5.71536  292  -3.8  100   -3.8  0     0     1005.1   NA       0.0000   9999     390   7220  0    
2019/08/18  10:36:04  BASE  3.01056  295  5.71536  292  -3.8  100   -3.8  0     0     1005.1   NA       0.0000   9999     430   7150  0    
2019/08/18  10:37:03  BASE  2.95176  301  5.71536  292  -3.8  100   -3.8  0     0     1005.2   NA       0.0000   9999     460   7150  0    
2019/08/18  10:38:03  BASE  2.50488  313  5.59776  302  -3.8  100   -3.8  0     0     1005.2   NA       0.0000   9999     460   7120  0    
2019/08/18  10:39:02  BASE  1.95216  319  5.41548  294  -3.8  100   -3.8  0     0     1005.2   NA       0.0000   9999     460   0     0    
2019/08/18  10:40:03  BASE  1.66404  314  5.292    295  -3.8  100   -3.8  0     0     1005.2   NA       0.0000   9999     490   0     0    
2019/08/18  10:41:03  BASE  1.74048  311  4.38648  311  -3.8  100   -3.8  0     0     1005.3   NA       0.0000   9999     460   0     0    
2019/08/18  10:42:02  BASE  1.8522   321  3.90432  285  -3.8  100   -3.8  0     0     1005.3   NA       0.0000   9999     460   0     0    
2019/08/18  10:43:03  BASE  1.84632  325  3.69264  287  -3.8  100   -3.8  0     0     1005.3   NA       0.0000   9999     430   0     0    
2019/08/18  10:44:03  BASE  1.62288  324  3.69264  287  -3.8  100   -3.8  0     0     1005.2   NA       0.0000   9999     430   0     0    
2019/08/18  10:45:03  BASE  1.72284  326  3.69264  287  -3.8  100   -3.8  0     0     1005.2   NA       0.0000   9999     460   0     0    
2019/08/18  10:46:03  BASE  2.06976  327  3.29868  307  -3.8  100   -3.8  0     0     1005.2   NA       0.0000   9999     430   0     0    
2019/08/18  10:47:02  BASE  2.03448  329  2.48136  306  -3.8  100   -3.8  0     0     1005.3   NA       0.0000   9999     460   0     0    
2019/08/18  10:48:03  BASE  1.9992   318  2.56956  293  -3.8  100   -3.8  0     0     1005.3   NA       0.0000   9999     430   0     0    
2019/08/18  10:49:02  BASE  2.07564  312  2.56956  293  -3.8  100   -3.8  0     0     1005.3   NA       0.0000   9999     460   0     0    
2019/08/18  10:50:02  BASE  2.50488  313  3.29868  312  -3.8  100   -3.8  0     0     1005.2   NA       0.0000   9999     490   0     0    
2019/08/18  10:51:04  BASE  2.97528  307  4.08072  307  -3.8  100   -3.8  0     0     1005.2   NA       0.0000   9999     520   2560  0    
2019/08/18  10:52:03  BASE  2.8224   299  4.08072  307  -3.8  100   -3.8  0     0     1005.2   NA       0.0000   9999     490   0     0    
2019/08/18  10:53:03  BASE  2.14032  299  4.08072  307  -3.8  100   -3.8  0     0     1005.3   NA       0.0000   9999     520   0     0    
2019/08/18  10:54:03  BASE  1.71108  301  4.08072  307  -3.8  100   -3.8  0     0     1005.3   NA       0.0000   9999     520   2620  0    
2019/08/18  10:55:02  BASE  1.87572  297  4.08072  307  -3.8  100   -3.8  0     0     1005.3   NA       0.0000   9999     490   0     0    
2019/08/18  10:56:02  BASE  2.25792  286  4.08072  307  -3.8  100   -3.8  0     0     1005.3   NA       0.0000   9999     490   0     0    
2019/08/18  10:57:02  BASE  2.3226   280  4.08072  307  -3.8  100   -3.8  0     0     1005.3   NA       0.0000   9999     460   0     0    
2019/08/18  10:58:03  BASE  2.04036  284  4.08072  307  -3.8  100   -3.8  0     0     1005.3   NA       0.0000   9999     520   0     0    
2019/08/18  10:59:02  BASE  2.00508  285  4.08072  307  -3.8  100   -3.8  0     0     1005.3   NA       0.0000   9999     520   1870  0    
2019/08/18  11:00:03  BASE  2.13444  287  4.08072  307  -3.8  100   -3.8  0     0     1005.3   NA       0.0000   9999     460   1840  0    
2019/08/18  11:01:02  BASE  2.49312  289  3.65736  273  -3.8  100   -3.8  0     0     1005.3   NA       0.0000   9999     490   1800  0    
2019/08/18  11:02:03  BASE  3.1752   291  3.83964  288  -3.8  100   -3.8  0     0     1005.2   NA       0.0000   9999     390   15390 0    
2019/08/18  11:03:02  BASE  3.40452  292  4.35708  280  -3.8  100   -3.8  0     0     1005.2   NA       0.0000   9999     490   4270  0    
2019/08/18  11:04:02  BASE  3.31632  293  4.35708  280  -3.8  100   -3.8  0     0     1005.1   NA       0.0000   9999     520   4330  0    
2019/08/18  11:05:03  BASE  3.22812  295  4.35708  280  -3.8  100   -3.8  0     0     1005.1   NA       0.0000   9999     520   4200  0    
2019/08/18  11:06:03  BASE  3.25164  296  4.35708  280  -3.9  100   -3.9  0     0     1005.0   NA       0.0000   9999     4230  15390 0    
2019/08/18  11:07:02  BASE  3.54564  294  4.35708  280  -3.9  100   -3.9  0     0     1004.9   NA       0.0000   9999     4170  15360 0    
2019/08/18  11:08:03  BASE  3.83964  296  4.41588  293  -3.9  100   -3.9  0     0     1004.9   NA       0.0000   9999     4170  0     0    
2019/08/18  11:09:02  BASE  3.93372  302  4.44528  301  -3.9  100   -3.9  0     0     1004.9   NA       0.0000   9999     4040  15390 0    
2019/08/18  11:10:02  BASE  3.77496  304  4.44528  301  -4.0  100   -4.0  0     0     1004.8   NA       0.0000   9999     3970  0     0    
2019/08/18  11:11:02  BASE  3.9984   301  4.75104  293  -4.0  100   -4.0  0     0     1004.8   NA       0.0000   9999     3900  0     0    
2019/08/18  11:12:02  BASE  4.263    299  4.80984  293  -4.0  100   -4.0  0     0     1004.8   NA       0.0000   9999     3900  0     0    
2019/08/18  11:13:02  BASE  4.28652  303  4.80984  293  -4.0  100   -4.0  0     0     1004.8   NA       0.0000   9999     3940  0     0    
2019/08/18  11:14:03  BASE  4.0866   301  4.80984  293  -4.0  100   -4.0  0     0     1004.8   NA       0.0000   9999     3970  0     0    
2019/08/18  11:15:01  BASE  4.06308  295  5.145    280  -4.0  100   -4.0  0     0     1004.8   NA       0.0000   9999     3870  0     0    
2019/08/18  11:16:03  BASE  4.2924   295  5.145    280  -4.0  100   -4.0  0     0     1004.8   NA       0.0000   9999     3970  0     0    
2019/08/18  11:17:02  BASE  3.92196  300  5.145    280  -4.0  100   -4.0  0     0     1004.8   NA       0.0000   9999     4040  0     0    
2019/08/18  11:18:02  BASE  4.1454   298  5.2332   291  -4.0  100   -4.0  0     0     1004.8   NA       0.0000   9999     4040  0     0    
2019/08/18  11:19:02  BASE  4.31004  298  5.2332   291  -4.0  100   -4.0  0     0     1004.9   NA       0.0000   9999     4040  0     0    
2019/08/18  11:20:02  BASE  3.8514   298  5.2332   291  -4.0  100   -4.0  0     0     1004.9   NA       0.0000   9999     4040  0     0    
2019/08/18  11:21:02  BASE  3.69852  297  5.2332   291  -4.0  100   -4.0  0     0     1005.0   NA       0.0000   9999     4070  0     0    
2019/08/18  11:22:02  BASE  3.68088  297  5.2332   291  -4.0  100   -4.0  0     0     1005.1   NA       0.0000   9999     3970  0     0    
2019/08/18  11:23:02  BASE  3.78672  295  5.2332   291  -4.0  100   -4.0  0     0     1005.1   NA       0.0000   9999     3940  0     0    
2019/08/18  11:24:02  BASE  3.85728  291  5.2332   291  -4.0  100   -4.0  0     0     1005.1   NA       0.0000   9999     4000  0     0    
2019/08/18  11:25:02  BASE  3.54564  291  5.2332   291  -4.1  100   -4.1  0     0     1005.2   NA       0.0000   9999     4000  0     0    
2019/08/18  11:26:02  BASE  3.43392  288  5.2332   291  -4.1  100   -4.1  0     0     1005.2   NA       0.0000   9999     4000  0     0    
2019/08/18  11:27:02  BASE  3.2928   288  5.2332   291  -4.1  100   -4.1  0     0     1005.2   NA       0.0000   9999     4040  0     0    
2019/08/18  11:28:02  BASE  3.0576   296  4.86864  293  -4.1  100   -4.1  0     0     1005.2   NA       0.0000   9999     3970  0     0    
2019/08/18  11:29:02  BASE  3.31632  298  4.35708  298  -4.1  100   -4.1  0     0     1005.2   NA       0.0000   9999     3840  0     0    
2019/08/18  11:30:02  BASE  3.25164  300  4.29828  297  -4.1  100   -4.1  0     0     1005.2   NA       0.0000   9999     3770  0     0    
2019/08/18  11:31:02  BASE  2.81652  299  4.263    295  -4.1  100   -4.1  0     0     1005.2   NA       0.0000   9999     3310  3770  0    
2019/08/18  11:32:02  BASE  2.75184  292  4.263    295  -4.1  100   -4.1  0     0     1005.3   NA       0.0000   9999     3310  0     0    
2019/08/18  11:33:02  BASE  2.81064  293  4.2042   289  -4.1  100   -4.1  0     0     1005.3   NA       0.0000   9999     3310  0     0    
2019/08/18  11:34:02  BASE  2.6754   296  3.99252  305  -4.1  100   -4.1  0     0     1005.3   NA       0.0000   9999     3250  0     0    
2019/08/18  11:35:02  BASE  2.5284   300  3.99252  305  -4.1  100   -4.1  0     0     1005.3   NA       0.0000   9999     2760  3510  0    
2019/08/18  11:36:02  BASE  2.42256  303  3.99252  305  -4.1  100   -4.1  0     0     1005.3   NA       0.0000   9999     2760  0     0    
2019/08/18  11:37:02  BASE  2.28732  300  3.99252  305  -4.1  100   -4.1  0     0     1005.3   NA       0.0000   9999     2790  0     0    
2019/08/18  11:38:02  BASE  1.9404   296  3.99252  305  -4.1  100   -4.1  0     0     1005.3   NA       0.0000   9999     2850  0     0    
2019/08/18  11:39:02  BASE  1.68168  300  3.53976  302  -4.1  100   -4.1  0     0     1005.3   NA       0.0000   9999     2850  0     0    
2019/08/18  11:40:02  BASE  1.8816   300  3.29868  288  -4.1  100   -4.1  0     0     1005.3   NA       0.0000   9999     3050  3940  0    
2019/08/18  11:41:02  BASE  1.99332  291  3.29868  288  -4.1  100   -4.1  0     0     1005.3   NA       0.0000   9999     3080  3870  0    
2019/08/18  11:42:02  BASE  2.16972  292  3.29868  288  -4.1  100   -4.1  0     0     1005.2   NA       0.0000   9999     2660  0     0    
2019/08/18  11:43:02  BASE  2.48724  294  3.29868  288  -4.1  100   -4.1  0     0     1005.2   NA       0.0000   9999     2760  0     0    
2019/08/18  11:44:02  BASE  2.24616  297  2.96352  281  -4.1  100   -4.1  0     0     1005.2   NA       0.0000   9999     2620  0     0    
2019/08/18  11:45:02  BASE  2.01096  300  2.96352  281  -4.2  100   -4.2  0     0     1005.2   NA       0.0000   9999     2620  0     0    
2019/08/18  11:46:02  BASE  1.98156  295  2.87532  291  -4.2  100   -4.2  0     0     1005.2   NA       0.0000   9999     2820  0     0    
2019/08/18  11:47:02  BASE  1.81692  284  2.87532  291  -4.2  100   -4.2  0     0     1005.2   NA       0.0000   9999     2790  0     0    
2019/08/18  11:48:02  BASE  1.54056  276  2.87532  291  -4.2  100   -4.2  0     0     1005.2   NA       0.0000   9999     2000  2820  0    
2019/08/18  11:49:01  BASE  1.42296  279  2.87532  291  -4.2  100   -4.2  0     0     1005.2   NA       0.0000   9999     1970  2820  3710 
2019/08/18  11:50:02  BASE  1.59348  282  2.87532  291  -4.1  100   -4.1  0     0     1005.1   NA       0.0000   9999     1970  2790  3640 
2019/08/18  11:51:02  BASE  1.63464  283  2.87532  291  -4.1  100   -4.1  0     0     1005.2   NA       0.0000   9999     2000  2760  0    
2019/08/18  11:52:01  BASE  2.14032  277  3.1164   270  -4.1  100   -4.1  0     0     1005.1   NA       0.0000   9999     1840  2720  3640 
2019/08/18  11:53:02  BASE  2.6754   277  3.29868  293  -4.1  100   -4.1  0     0     1005.1   NA       0.0000   9999     850   1740  0    
2019/08/18  11:54:02  BASE  3.02232  282  4.47468  277  -4.1  100   -4.1  0     0     1005.1   NA       0.0000   9999     720   1740  0    
2019/08/18  11:55:02  BASE  3.27516  278  4.47468  277  -4.1  100   -4.1  0     0     1005.1   NA       0.0000   9999     750   1800  0    
2019/08/18  11:56:03  BASE  3.03408  281  4.47468  277  -4.1  100   -4.1  0     0     1005.1   NA       0.0000   9999     1800  2660  0    
2019/08/18  11:57:02  BASE  2.8812   286  4.47468  277  -4.1  100   -4.1  1     0     1005.1   NA       0.0000   9999     720   1800  0    
2019/08/18  11:58:02  BASE  3.25752  283  4.47468  277  -4.1  100   -4.1  1     0     1005.1   NA       0.0000   9999     720   1710  0    
2019/08/18  11:59:02  BASE  3.528    278  4.47468  277  -4.1  100   -4.1  1     0     1005.1   NA       0.0000   9999     1710  2490  0    
2019/08/18  12:00:01  BASE  3.4692   281  4.47468  277  -4.1  100   -4.1  1     0     1005.1   NA       0.0000   9999     1710  2590  0    
2019/08/18  12:01:01  BASE  3.35748  285  4.47468  277  -4.1  100   -4.1  2     0     1005.1   NA       0.0000   9999     1710  2620  0    
2019/08/18  12:02:02  BASE  3.1752   282  4.47468  277  -4.1  100   -4.1  2     0     1005.1   NA       0.0000   9999     1770  2620  0    
2019/08/18  12:03:02  BASE  3.09288  282  4.47468  277  -4.1  100   -4.1  2     0     1005.1   NA       0.0000   9999     790   1770  0    
2019/08/18  12:04:02  BASE  3.10464  281  4.41588  289  -4.1  100   -4.1  3     0     1005.1   NA       0.0000   9999     720   1770  0    
2019/08/18  12:05:03  BASE  3.09288  287  4.41588  289  -4.2  100   -4.2  3     0     1005.0   NA       0.0000   9999     1770  2530  0    
2019/08/18  12:06:02  BASE  3.15168  287  4.41588  289  -4.2  100   -4.2  3     0     1005.0   NA       0.0000   9999     1740  0     0    
2019/08/18  12:07:02  BASE  3.39276  279  4.41588  289  -4.2  100   -4.2  4     0     1005.0   NA       0.0000   9999     690   1740  0    
2019/08/18  12:08:02  BASE  3.18696  282  4.41588  289  -4.2  100   -4.2  4     0     1004.9   NA       0.0000   9999     660   1710  0    
2019/08/18  12:09:02  BASE  2.86356  290  4.41588  289  -4.2  100   -4.2  4     0     1004.9   NA       0.0000   9999     720   1710  0    
2019/08/18  12:10:02  BASE  3.1164   291  4.35708  289  -4.2  100   -4.2  4     0     1004.9   NA       0.0000   9999     720   1710  0    
2019/08/18  12:11:02  BASE  3.56916  287  4.44528  276  -4.2  100   -4.2  4     0     1004.9   NA       0.0000   9999     1670  2660  0    
2019/08/18  12:12:02  BASE  3.56328  287  4.44528  276  -4.2  100   -4.2  4     0     1004.9   NA       0.0000   9999     2660  3220  0    
2019/08/18  12:13:02  BASE  3.36924  290  4.44528  276  -4.2  100   -4.2  5     0     1004.9   NA       0.0000   9999     1610  2660  3180 
2019/08/18  12:14:02  BASE  3.16932  286  4.44528  276  -4.2  100   -4.2  5     0     1004.9   NA       0.0000   9999     1540  2690  3180 
2019/08/18  12:15:03  BASE  2.8812   286  4.44528  276  -4.2  100   -4.2  5     0     1005.0   NA       0.0000   9999     1540  2720  0    
2019/08/18  12:16:03  BASE  2.64012  289  4.44528  276  -4.2  100   -4.2  5     0     1004.9   NA       0.0000   9999     1510  2690  0    
2019/08/18  12:17:02  BASE  2.85768  283  4.44528  276  -4.2  100   -4.2  6     0     1004.9   NA       0.0000   9999     1570  2660  0    
2019/08/18  12:18:03  BASE  3.08112  284  4.44528  276  -4.2  100   -4.2  6     0     1004.9   NA       0.0000   9999     1540  2660  0    
2019/08/18  12:19:02  BASE  3.06348  288  4.44528  276  -4.2  100   -4.2  6     0     1004.9   NA       0.0000   9999     2660  0     0    
2019/08/18  12:20:03  BASE  2.94588  292  4.44528  276  -4.2  100   -4.2  7     0     1004.9   NA       0.0000   9999     2530  3050  0    
2019/08/18  12:21:03  BASE  2.66364  295  4.32768  278  -4.2  100   -4.2  7     0     1004.9   NA       0.0000   9999     2530  3020  0    
2019/08/18  12:22:03  BASE  2.89884  293  4.32768  278  -4.2  100   -4.2  8     0     1004.9   NA       0.0000   9999     2590  3610  9150 
2019/08/18  12:23:03  BASE  3.02232  295  3.96312  279  -4.2  100   -4.2  8     0     1004.9   NA       0.0000   9999     2620  9190  0    
2019/08/18  12:24:03  BASE  2.96352  297  3.96312  279  -4.3  100   -4.3  8     0     1005.0   NA       0.0000   9999     2990  3540  9220 
2019/08/18  12:25:03  BASE  3.22224  294  3.96312  279  -4.3  100   -4.3  9     0     1005.0   NA       0.0000   9999     2990  0     0    
2019/08/18  12:26:03  BASE  3.234    294  3.96312  279  -4.3  100   -4.3  9     0     1005.0   NA       0.0000   9999     1540  2950  0    
2019/08/18  12:27:03  BASE  3.02232  299  3.75144  286  -4.3  100   -4.3  9     0     1004.9   NA       0.0000   9999     2890  9420  0    
2019/08/18  12:28:03  BASE  2.9988   298  3.75144  286  -4.3  100   -4.3  10    0     1004.9   NA       0.0000   9999     2890  9350  0    
2019/08/18  12:29:03  BASE  3.087    295  3.75144  286  -4.3  100   -4.3  10    0     1004.9   NA       0.0000   9999     2850  0     0    
2019/08/18  12:30:03  BASE  3.12816  299  3.75144  299  -4.3  100   -4.3  11    0     1004.9   NA       0.0000   9999     2850  0     0    
2019/08/18  12:31:03  BASE  3.24576  301  3.81024  298  -4.3  100   -4.3  11    0     1004.9   NA       0.0000   9999     620   2850  0    
2019/08/18  12:32:03  BASE  3.05172  301  3.81024  298  -4.3  100   -4.3  12    0     1004.9   NA       0.0000   9999     660   2820  0    
2019/08/18  12:33:03  BASE  2.79888  303  3.81024  298  -4.3  100   -4.3  12    0     1004.9   NA       0.0000   9999     520   2820  0    
2019/08/18  12:34:03  BASE  3.11052  300  3.86904  290  -4.3  100   -4.3  13    0     1004.9   NA       0.0000   9999     520   2850  0    
2019/08/18  12:35:03  BASE  3.13992  299  3.86904  290  -4.3  100   -4.3  14    0     1004.9   NA       0.0000   9999     2820  0     0    
2019/08/18  12:36:03  BASE  3.1458   297  4.38648  284  -4.3  100   -4.3  15    0     1004.9   NA       0.0000   9999     620   2790  0    
2019/08/18  12:37:03  BASE  3.2046   294  4.38648  284  -4.2  100   -4.2  16    0     1004.9   NA       0.0000   9999     560   2790  0    
2019/08/18  12:38:03  BASE  3.1458   296  4.38648  284  -4.2  100   -4.2  17    0     1004.9   NA       0.0000   9999     2820  0     0    
2019/08/18  12:39:02  BASE  3.06936  299  4.38648  284  -4.2  100   -4.2  17    0     1005.0   NA       0.0000   9999     620   2790  0    
2019/08/18  12:40:03  BASE  3.06348  302  4.38648  284  -4.2  100   -4.2  18    0     1005.0   NA       0.0000   9999     2760  0     0    
2019/08/18  12:41:03  BASE  3.02232  300  4.38648  284  -4.2  100   -4.2  19    0     1005.0   NA       0.0000   9999     2720  0     0    
2019/08/18  12:42:03  BASE  2.75772  298  4.38648  284  -4.2  100   -4.2  20    0     1005.1   NA       0.0000   9999     2760  0     0    
2019/08/18  12:43:03  BASE  2.793    302  4.38648  284  -4.2  100   -4.2  20    0     1005.1   NA       0.0000   9999     460   2760  0    
2019/08/18  12:44:03  BASE  2.9106   302  4.38648  284  -4.2  100   -4.2  21    0     1005.1   NA       0.0000   9999     390   2760  0    
2019/08/18  12:45:03  BASE  2.95176  297  4.38648  284  -4.2  100   -4.2  23    0     1005.1   NA       0.0000   9999     360   2720  0    
2019/08/18  12:46:03  BASE  2.7636   299  4.08072  297  -4.2  100   -4.2  23    0     1005.1   NA       0.0000   9999     390   2720  0    
2019/08/18  12:47:03  BASE  2.7636   304  4.08072  297  -4.2  100   -4.2  24    0     1005.1   NA       0.0000   9999     360   2760  0    
2019/08/18  12:48:03  BASE  2.87532  307  4.08072  297  -4.2  100   -4.2  24    0     1005.1   NA       0.0000   9999     360   2760  0    
2019/08/18  12:49:03  BASE  2.8812   310  4.08072  297  -4.2  100   -4.2  24    0     1005.1   NA       0.0000   9999     330   2820  0    
2019/08/18  12:50:03  BASE  3.12816  307  4.08072  297  -4.2  100   -4.2  24    0     1005.1   NA       0.0000   9999     300   2850  0    
2019/08/18  12:51:03  BASE  3.11052  310  4.08072  297  -4.2  100   -4.2  24    0     1005.0   NA       0.0000   9999     230   2850  0    
2019/08/18  12:52:03  BASE  2.88708  320  4.08072  297  -4.2  100   -4.2  25    0     1004.9   NA       0.0000   9999     300   1350  0    
2019/08/18  12:53:03  BASE  2.8224   319  4.08072  297  -4.2  100   -4.2  25    0     1004.9   NA       0.0000   9999     360   1380  0    
2019/08/18  12:54:03  BASE  2.94     318  4.08072  297  -4.2  100   -4.2  26    0     1004.9   NA       0.0000   9999     300   2850  0    
2019/08/18  12:55:02  BASE  2.94588  320  3.53976  291  -4.2  100   -4.2  26    0     1004.9   NA       0.0000   9999     330   2790  0    
2019/08/18  12:56:03  BASE  2.95176  319  3.53976  291  -4.2  100   -4.2  27    0     1004.9   NA       0.0000   9999     360   2790  0    
2019/08/18  12:57:03  BASE  3.09876  317  3.53976  291  -4.2  100   -4.2  27    0     1004.9   NA       0.0000   9999     430   2720  0    
2019/08/18  12:58:03  BASE  3.03408  321  3.53976  291  -4.2  100   -4.2  28    0     1004.9   NA       0.0000   9999     430   2720  0    
2019/08/18  12:59:03  BASE  2.8812   322  3.53976  291  -4.2  100   -4.2  28    0     1004.9   NA       0.0000   9999     430   2660  0    
2019/08/18  13:00:03  BASE  2.96352  320  3.51036  314  -4.2  100   -4.2  28    0     1004.9   NA       0.0000   9999     460   2690  0    
2019/08/18  13:01:03  BASE  3.05172  316  3.51036  314  -4.2  100   -4.2  29    0     1004.9   NA       0.0000   9999     460   2760  0    
2019/08/18  13:02:02  BASE  2.90472  314  3.56916  320  -4.2  100   -4.2  29    0     1004.9   NA       0.0000   9999     520   2720  0    
2019/08/18  13:03:03  BASE  2.92236  312  3.75144  309  -4.2  100   -4.2  30    0     1004.9   NA       0.0000   9999     520   2720  0    
2019/08/18  13:04:03  BASE  2.75184  315  3.75144  309  -4.2  100   -4.2  31    0     1004.9   NA       0.0000   9999     520   2690  0    
2019/08/18  13:05:04  BASE  2.49312  322  3.75144  309  -4.2  100   -4.2  32    0     1004.9   NA       0.0000   9999     460   2690  0    
2019/08/18  13:06:03  BASE  2.58132  324  3.75144  309  -4.2  100   -4.2  34    0     1004.8   NA       0.0000   9999     490   2690  0    
2019/08/18  13:07:03  BASE  2.56368  323  3.75144  309  -4.2  100   -4.2  35    0     1004.8   NA       0.0000   9999     520   2660  0    
2019/08/18  13:08:03  BASE  2.33436  321  3.75144  309  -4.2  100   -4.2  36    0     1004.8   NA       0.0000   9999     490   2690  0    
2019/08/18  13:09:03  BASE  2.62836  324  3.75144  309  -4.2  100   -4.2  37    0     1004.8   NA       0.0000   9999     520   2660  0    
2019/08/18  13:10:03  BASE  2.97528  327  3.75144  309  -4.2  100   -4.2  37    0     1004.7   NA       0.0000   9999     490   2620  0    
2019/08/18  13:11:02  BASE  3.0576   324  3.81024  330  -4.2  100   -4.2  38    0     1004.7   NA       0.0000   9999     460   2590  0    
2019/08/18  13:12:03  BASE  3.12228  315  3.81024  330  -4.2  100   -4.2  38    0     1004.7   NA       0.0000   9999     490   2620  0    
2019/08/18  13:13:03  BASE  2.75772  308  3.81024  330  -4.2  100   -4.2  38    0     1004.7   NA       0.0000   9999     490   2620  0    
2019/08/18  13:14:03  BASE  2.47548  305  3.81024  330  -4.2  100   -4.2  39    0     1004.7   NA       0.0000   9999     520   2590  0    
2019/08/18  13:15:03  BASE  2.45784  307  3.81024  330  -4.2  100   -4.2  39    0     1004.7   NA       0.0000   9999     560   2560  0    
2019/08/18  13:16:03  BASE  2.38728  306  3.81024  330  -4.2  100   -4.2  40    0     1004.7   NA       0.0000   9999     490   2530  0    
2019/08/18  13:17:03  BASE  2.45196  312  3.81024  330  -4.2  100   -4.2  41    0     1004.7   NA       0.0000   9999     460   2560  0    
2019/08/18  13:18:03  BASE  2.5872   323  3.81024  330  -4.2  100   -4.2  42    0     1004.7   NA       0.0000   9999     490   2560  0    
2019/08/18  13:19:03  BASE  2.58132  322  3.81024  330  -4.2  100   -4.2  43    0     1004.7   NA       0.0000   9999     490   2660  0    
2019/08/18  13:20:03  BASE  2.62836  319  3.81024  330  -4.2  100   -4.2  46    0     1004.6   NA       0.0000   9999     490   2660  0    
2019/08/18  13:21:03  BASE  2.38728  326  3.48096  314  -4.2  100   -4.2  48    0     1004.6   NA       0.0000   9999     360   2660  0    
2019/08/18  13:22:03  BASE  2.21088  336  3.48096  314  -4.2  100   -4.2  51    0     1004.6   NA       0.0000   9999     490   2660  0    
2019/08/18  13:23:03  BASE  2.37552  340  3.48096  314  -4.2  100   -4.2  53    0     1004.6   NA       0.0000   9999     490   2620  0    
2019/08/18  13:24:03  BASE  2.54016  340  3.48096  314  -4.2  100   -4.2  54    0     1004.6   NA       0.0000   9999     460   2620  0    
2019/08/18  13:25:03  BASE  2.79888  334  3.48096  314  -4.2  100   -4.2  56    0     1004.6   NA       0.0000   9999     490   2560  0    
2019/08/18  13:26:03  BASE  2.59896  330  3.48096  314  -4.2  100   -4.2  58    0     1004.6   NA       0.0000   9999     490   2590  0    
2019/08/18  13:27:03  BASE  2.32848  325  3.48096  314  -4.2  100   -4.2  62    0     1004.6   NA       0.0000   9999     430   2530  0    
2019/08/18  13:28:03  BASE  2.28732  316  3.48096  314  -4.2  100   -4.2  65    0     1004.6   NA       0.0000   9999     490   2460  0    
2019/08/18  13:29:02  BASE  2.24028  314  3.48096  314  -4.2  100   -4.2  68    0     1004.6   NA       0.0000   9999     490   2400  0    
2019/08/18  13:30:02  BASE  2.59308  320  3.35748  324  -4.2  100   -4.2  70    0     1004.5   NA       0.0000   9999     430   2360  0    
2019/08/18  13:31:03  BASE  3.00468  322  3.35748  324  -4.2  100   -4.2  72    0     1004.5   NA       0.0000   9999     430   2330  0    
2019/08/18  13:32:03  BASE  3.00468  322  3.35748  324  -4.2  100   -4.2  74    0     1004.5   NA       0.0000   9999     430   2330  0    
2019/08/18  13:33:03  BASE  3.01644  319  3.44568  312  -4.2  100   -4.2  76    0     1004.5   NA       0.0000   9999     460   2330  0    
2019/08/18  13:34:03  BASE  3.01056  322  3.44568  312  -4.1  100   -4.2  76    0     1004.5   NA       0.0000   9999     460   2330  0    
2019/08/18  13:35:03  BASE  2.89884  322  3.44568  312  -4.1  100   -4.1  75    0     1004.5   NA       0.0000   9999     520   2360  0    
2019/08/18  13:36:03  BASE  2.98704  314  3.56916  306  -4.1  100   -4.1  74    0     1004.5   NA       0.0000   9999     430   2330  0    
2019/08/18  13:37:03  BASE  2.78712  309  3.56916  306  -4.1  100   -4.1  74    0     1004.6   NA       0.0000   9999     430   2360  0    
2019/08/18  13:38:03  BASE  2.32848  305  3.56916  306  -4.1  100   -4.1  69    0     1004.6   NA       0.0000   9999     490   2430  0    
2019/08/18  13:39:02  BASE  2.16384  306  3.56916  306  -4.1  100   -4.1  67    0     1004.6   NA       0.0000   9999     360   2460  0    
2019/08/18  13:40:03  BASE  2.33436  305  3.56916  306  -4.1  100   -4.1  72    0     1004.6   NA       0.0000   9999     430   2360  0    
2019/08/18  13:41:02  BASE  2.42256  309  3.56916  306  -4.1  100   -4.1  76    0     1004.6   NA       0.0000   9999     560   2400  0    
2019/08/18  13:42:03  BASE  2.44608  321  3.56916  306  -4.1  100   -4.1  80    0     1004.6   NA       0.0000   9999     490   2400  0    
2019/08/18  13:43:03  BASE  2.59896  324  3.56916  306  -4.1  100   -4.1  86    0     1004.5   NA       0.0000   9999     490   2360  0    
2019/08/18  13:44:02  BASE  2.49312  319  3.56916  306  -4.1  100   -4.1  92    0     1004.5   NA       0.0000   9999     590   2300  0    
2019/08/18  13:45:02  BASE  2.2932   318  3.56916  306  -4.1  100   -4.1  89    0     1004.5   NA       0.0000   9999     2360  0     0    
2019/08/18  13:46:03  BASE  2.352    321  3.234    326  -4.1  100   -4.1  77    0     1004.4   NA       0.0000   9999     2330  0     0    
2019/08/18  13:47:03  BASE  2.36376  323  3.234    326  -4.1  100   -4.1  70    0     1004.4   NA       0.0000   9999     720   2360  0    
2019/08/18  13:48:03  BASE  2.38728  332  3.234    326  -4.1  100   -4.1  64    0     1004.3   NA       0.0000   9999     2260  0     0    
2019/08/18  13:49:03  BASE  2.42256  338  3.234    326  -4.1  100   -4.1  62    0     1004.2   NA       0.0000   9999     2100  0     0    
2019/08/18  13:50:02  BASE  2.499    340  3.234    326  -4.1  100   -4.1  63    0     1004.2   NA       0.0000   9999     1770  0     0    
2019/08/18  13:51:03  BASE  2.56956  344  3.234    326  -4.1  100   -4.1  64    0     1004.2   NA       0.0000   9999     2360  0     0    
2019/08/18  13:52:03  BASE  2.46372  342  3.234    326  -4.1  100   -4.1  69    0     1004.1   NA       0.0000   9999     2400  0     0    
2019/08/18  13:53:03  BASE  2.48724  336  3.02232  322  -4.1  100   -4.1  74    0     1004.1   NA       0.0000   9999     2430  0     0    
2019/08/18  13:54:03  BASE  2.2932   334  3.02232  322  -4.1  100   -4.1  78    0     1004.1   NA       0.0000   9999     2430  0     0    
2019/08/18  13:55:03  BASE  2.352    342  3.02232  322  -4.1  100   -4.1  79    0     1004.1   NA       0.0000   9999     590   2490  0    
2019/08/18  13:56:03  BASE  2.74596  343  3.087    339  -4.1  100   -4.1  74    0     1004.1   NA       0.0000   9999     720   2400  0    
2019/08/18  13:57:03  BASE  2.94588  336  3.38688  342  -4.1  100   -4.1  74    0     1004.0   NA       0.0000   9999     560   2460  0    
2019/08/18  13:58:03  BASE  3.19872  339  3.56916  340  -4.1  100   -4.1  79    0     1004.0   NA       0.0000   9999     2360  0     0    
2019/08/18  13:59:03  BASE  3.33984  344  3.56916  340  -4.1  100   -4.1  79    0     1004.0   NA       0.0000   9999     2330  0     0    
2019/08/18  14:00:03  BASE  3.47508  340  3.78084  333  -4.1  100   -4.1  81    0     1004.0   NA       0.0000   9999     2430  0     0    
2019/08/18  14:01:03  BASE  3.39276  339  3.78084  333  -4.1  100   -4.1  79    0     1004.0   NA       0.0000   9999     2360  0     0    
2019/08/18  14:02:03  BASE  3.3222   337  3.78084  333  -4.1  100   -4.1  80    0     1004.0   NA       0.0000   9999     2430  0     0    
2019/08/18  14:03:04  BASE  3.43392  333  3.78084  333  -4.1  100   -4.1  80    0     1004.1   NA       0.0000   9999     2400  0     0    
2019/08/18  14:04:03  BASE  3.39276  334  3.78084  333  -4.1  100   -4.1  79    0     1004.0   NA       0.0000   9999     2400  0     0    
2019/08/18  14:05:04  BASE  3.19872  335  3.78084  333  -4.1  100   -4.1  81    0     1004.0   NA       0.0000   9999     2430  21130 0    
2019/08/18  14:06:03  BASE  3.11052  335  3.78084  333  -4.1  100   -4.1  82    0     1004.0   NA       0.0000   9999     2400  0     0    
2019/08/18  14:07:03  BASE  3.2046   335  3.78084  333  -4.1  100   -4.1  82    0     1004.0   NA       0.0000   9999     2360  0     0    
2019/08/18  14:08:03  BASE  3.3222   336  4.1454   327  -4.1  100   -4.1  88    0     1004.0   NA       0.0000   9999     2430  0     0    
2019/08/18  14:09:03  BASE  3.31632  332  4.1454   327  -4.1  100   -4.1  93    0     1004.1   NA       0.0000   9999     2400  0     0    
2019/08/18  14:10:03  BASE  3.381    327  4.1454   327  -4.1  100   -4.1  97    0     1004.1   NA       0.0000   9999     2400  0     0    
2019/08/18  14:11:03  BASE  3.56328  327  4.2042   329  -4.1  100   -4.1  105   0     1004.1   NA       0.0000   9999     2360  0     0    
2019/08/18  14:12:03  BASE  3.63972  328  4.2042   329  -4.0  100   -4.0  109   0     1004.0   NA       0.0000   9999     2360  21520 0    
2019/08/18  14:13:03  BASE  3.7926   327  4.2042   329  -4.0  100   -4.0  109   0     1004.0   NA       0.0000   9999     2330  0     0    
2019/08/18  14:14:03  BASE  3.85728  323  4.2042   329  -4.0  100   -4.0  109   0     1004.0   NA       0.0000   9999     2300  0     0    
2019/08/18  14:15:02  BASE  4.0278   323  4.65696  329  -4.0  100   -4.0  106   0     1004.0   NA       0.0000   9999     2300  0     0    
2019/08/18  14:16:03  BASE  3.9396   328  4.65696  329  -4.0  100   -4.0  104   0     1004.0   NA       0.0000   9999     2300  0     0    
2019/08/18  14:17:03  BASE  3.73968  324  4.65696  329  -4.0  100   -4.0  101   0     1004.1   NA       0.0000   9999     2400  0     0    
2019/08/18  14:18:03  BASE  3.69852  315  4.65696  329  -4.0  100   -4.0  101   0     1004.1   NA       0.0000   9999     2400  0     0    
2019/08/18  14:19:03  BASE  3.42804  316  4.65696  329  -4.0  100   -4.0  102   0     1004.0   NA       0.0000   9999     2330  0     0    
2019/08/18  14:20:03  BASE  3.46332  318  4.65696  329  -4.0  100   -4.0  104   0     1004.0   NA       0.0000   9999     2300  0     0    
2019/08/18  14:21:02  BASE  3.51624  316  4.65696  329  -4.0  100   -4.0  108   0     1004.0   NA       0.0000   9999     2330  0     0    
2019/08/18  14:22:03  BASE  3.41628  316  4.65696  329  -4.0  100   -4.0  111   0     1004.0   NA       0.0000   9999     2260  0     0    
2019/08/18  14:23:03  BASE  3.39276  308  4.65696  329  -4.0  100   -4.0  113   0     1004.0   NA       0.0000   9999     2330  0     0    
2019/08/18  14:24:03  BASE  3.39276  304  4.65696  329  -4.0  100   -4.0  112   0     1004.0   NA       0.0000   9999     2300  0     0    
2019/08/18  14:25:03  BASE  3.34572  309  4.47468  311  -4.0  100   -4.0  115   0     1004.0   NA       0.0000   9999     2300  0     0    
2019/08/18  14:26:03  BASE  3.29868  308  4.47468  311  -3.9  100   -3.9  119   0     1004.0   NA       0.0000   9999     2360  0     0    
2019/08/18  14:27:03  BASE  3.01056  309  4.1454   309  -3.9  100   -3.9  119   0     1004.0   NA       0.0000   9999     2260  0     0    
2019/08/18  14:28:03  BASE  2.7636   308  4.1454   309  -3.9  100   -3.9  119   0     1004.0   NA       0.0000   9999     2300  0     0    
2019/08/18  14:29:03  BASE  2.8518   306  4.1454   309  -3.9  100   -3.9  119   0     1004.0   NA       0.0000   9999     2300  0     0    
2019/08/18  14:30:03  BASE  2.97528  305  4.1454   309  -3.9  100   -3.9  119   0     1004.1   NA       0.0000   9999     2330  0     0    
2019/08/18  14:31:03  BASE  3.21636  299  4.1454   309  -3.9  100   -3.9  123   0     1004.1   NA       0.0000   9999     2330  0     0    
2019/08/18  14:32:03  BASE  3.234    299  4.05132  291  -3.9  100   -3.9  128   0     1004.1   NA       0.0000   9999     2330  0     0    
2019/08/18  14:33:03  BASE  3.11052  298  4.05132  291  -3.9  100   -3.9  129   0     1004.1   NA       0.0000   9999     2300  0     0    
2019/08/18  14:34:03  BASE  3.1458   297  4.05132  291  -3.9  100   -3.9  132   0     1004.0   NA       0.0000   9999     2260  0     0    
2019/08/18  14:35:03  BASE  3.06348  300  4.05132  291  -3.9  100   -3.9  132   0     1003.9   NA       0.0000   9999     2260  0     0    
2019/08/18  14:36:02  BASE  2.80476  302  3.75144  292  -3.9  100   -3.9  142   0     1003.9   NA       0.0000   9999     2230  21290 0    
2019/08/18  14:37:02  BASE  2.74008  303  3.75144  292  -3.9  100   -3.9  144   0     1003.9   NA       0.0000   9999     2260  0     0    
2019/08/18  14:38:03  BASE  2.8224   304  3.75144  292  -3.9  100   -3.9  138   0     1003.8   NA       0.0000   9999     2260  0     0    
2019/08/18  14:39:02  BASE  2.74008  309  3.75144  292  -3.9  100   -3.9  133   0     1003.8   NA       0.0000   9999     2260  0     0    
2019/08/18  14:40:03  BASE  2.63424  313  3.75144  292  -3.9  100   -3.9  128   0     1003.7   NA       0.0000   9999     2260  0     0    
2019/08/18  14:41:03  BASE  2.57544  312  3.75144  292  -3.9  100   -3.9  127   0     1003.6   NA       0.0000   9999     2260  0     0    
2019/08/18  14:42:03  BASE  2.54016  314  3.75144  292  -3.9  100   -3.9  125   0     1003.6   NA       0.0000   9999     2230  0     0    
2019/08/18  14:43:03  BASE  2.51664  315  3.75144  292  -3.9  100   -3.9  127   0     1003.6   NA       0.0000   9999     2230  0     0    
2019/08/18  14:44:03  BASE  2.65776  314  3.32808  310  -3.9  100   -3.9  129   0     1003.5   NA       0.0000   9999     2260  0     0    
2019/08/18  14:45:03  BASE  2.92236  318  3.32808  310  -3.9  100   -3.9  135   0     1003.4   NA       0.0000   9999     2230  0     0    
2019/08/18  14:46:02  BASE  3.08112  313  3.53976  295  -3.9  100   -3.9  148   0     1003.5   NA       0.0000   9999     2260  0     0    
2019/08/18  14:47:03  BASE  3.19284  304  3.59856  304  -3.9  100   -3.9  164   0     1003.6   NA       0.0000   9999     2260  0     0    
2019/08/18  14:48:03  BASE  3.22224  303  3.59856  304  -3.8  100   -3.8  168   0     1003.7   NA       0.0000   9999     2260  0     0    
2019/08/18  14:49:03  BASE  3.22224  303  3.59856  304  -3.8  100   -3.8  160   0     1003.6   NA       0.0000   9999     2230  0     0    
2019/08/18  14:50:03  BASE  3.22812  304  3.59856  304  -3.8  100   -3.8  157   0     1003.6   NA       0.0000   9999     2230  0     0    
2019/08/18  14:51:03  BASE  3.3222   303  3.86904  310  -3.8  100   -3.8  160   0     1003.6   NA       0.0000   9999     2260  0     0    
2019/08/18  14:52:03  BASE  3.4104   302  3.86904  310  -3.8  100   -3.8  158   0     1003.6   NA       0.0000   9999     2230  0     0    
2019/08/18  14:53:03  BASE  3.33984  307  3.86904  310  -3.8  100   -3.8  163   0     1003.7   NA       0.0000   9999     2230  0     0    
2019/08/18  14:54:02  BASE  3.36336  308  3.86904  310  -3.8  100   -3.8  154   0     1003.8   NA       0.0000   9999     2230  0     0    
2019/08/18  14:55:03  BASE  3.45744  304  3.86904  310  -3.8  100   -3.8  145   0     1003.8   NA       0.0000   9999     2200  0     0    
2019/08/18  14:56:03  BASE  3.4692   301  3.86904  310  -3.8  100   -3.8  138   0     1003.9   NA       0.0000   9999     2200  0     0    
2019/08/18  14:57:03  BASE  3.34572  302  3.86904  310  -3.8  100   -3.8  125   0     1003.9   NA       0.0000   9999     2200  0     0    
2019/08/18  14:58:03  BASE  3.2046   302  3.86904  310  -3.8  100   -3.8  117   0     1003.7   NA       0.0000   9999     2170  0     0    
2019/08/18  14:59:02  BASE  2.793    309  3.86904  310  -3.8  100   -3.8  113   0     1003.6   NA       0.0000   9999     2100  8270  0    
2019/08/18  15:00:02  BASE  2.60484  317  3.86904  310  -3.8  100   -3.8  108   0     1003.6   NA       0.0000   9999     2100  6590  8200 
2019/08/18  15:01:02  BASE  2.84592  317  3.78084  297  -3.8  100   -3.8  100   0     1003.7   NA       0.0000   9999     2100  6230  0    
2019/08/18  15:02:03  BASE  2.76948  308  3.75144  298  -3.8  100   -3.8  93    0     1003.8   NA       0.0000   9999     2170  6370  0    
2019/08/18  15:03:03  BASE  2.52252  308  3.75144  298  -3.8  100   -3.8  85    0     1003.9   NA       0.0000   9999     2100  6300  23130
2019/08/18  15:04:03  BASE  2.5872   309  3.75144  298  -3.8  100   -3.8  78    0     1003.9   NA       0.0000   9999     2070  23030 0    
2019/08/18  15:05:04  BASE  2.646    309  3.75144  298  -3.8  100   -3.8  72    0     1003.8   NA       0.0000   9999     2030  0     0    
2019/08/18  15:06:03  BASE  2.5284   319  3.75144  298  -3.8  100   -3.8  67    0     1003.8   NA       0.0000   9999     2100  0     0    
2019/08/18  15:07:03  BASE  2.42844  324  3.75144  298  -3.8  100   -3.8  64    0     1003.8   NA       0.0000   9999     2130  5870  0    
2019/08/18  15:08:03  BASE  2.46372  324  3.48096  315  -3.8  100   -3.8  61    0     1003.8   NA       0.0000   9999     2130  0     0    
2019/08/18  15:09:03  BASE  2.87532  324  3.86904  318  -3.8  100   -3.8  60    0     1003.7   NA       0.0000   9999     2100  0     0    
2019/08/18  15:10:02  BASE  2.68716  321  3.86904  318  -3.8  100   -3.8  59    0     1003.6   NA       0.0000   9999     2100  5250  0    
2019/08/18  15:11:02  BASE  2.26968  322  3.86904  318  -3.8  100   -3.8  58    0     1003.7   NA       0.0000   9999     2100  5150  0    
2019/08/18  15:12:02  BASE  2.1756   316  3.86904  318  -3.8  100   -3.8  58    0     1003.8   NA       0.0000   9999     690   2100  0    
2019/08/18  15:13:02  BASE  2.54604  309  3.86904  318  -3.8  100   -3.8  56    0     1003.8   NA       0.0000   9999     2100  0     0    
2019/08/18  15:14:03  BASE  2.7048   305  3.86904  318  -3.8  100   -3.8  56    0     1003.8   NA       0.0000   9999     2100  0     0    
2019/08/18  15:15:03  BASE  2.27556  315  3.86904  318  -3.8  100   -3.8  55    0     1003.8   NA       0.0000   9999     2070  0     0    
2019/08/18  15:16:02  BASE  2.11092  326  3.86904  318  -3.8  100   -3.8  53    0     1003.8   NA       0.0000   9999     2070  3810  0    
2019/08/18  15:17:02  BASE  2.36376  319  3.86904  318  -3.9  100   -3.9  52    0     1003.8   NA       0.0000   9999     2070  3810  0    
2019/08/18  15:18:03  BASE  2.56368  317  3.86904  318  -3.9  100   -3.9  51    0     1003.8   NA       0.0000   9999     2070  0     0    
2019/08/18  15:19:03  BASE  2.49312  319  3.53976  306  -3.9  100   -3.9  49    0     1003.8   NA       0.0000   9999     2000  0     0    
2019/08/18  15:20:02  BASE  2.27556  321  3.53976  306  -3.9  100   -3.9  49    0     1003.8   NA       0.0000   9999     2000  0     0    
2019/08/18  15:21:02  BASE  2.19912  325  3.53976  306  -3.9  100   -3.9  48    0     1003.8   NA       0.0000   -SN      9000  1970  0    
2019/08/18  15:22:02  BASE  2.3226   326  3.53976  306  -3.9  100   -3.9  48    0     1003.8   NA       0.0000   -SN      5000  460   0    
2019/08/18  15:23:03  BASE  2.36376  327  3.32808  293  -3.9  100   -3.9  48    0     1003.8   NA       0.0000   -SN      5000  390   2000 
2019/08/18  15:24:02  BASE  2.5284   328  2.96352  311  -3.9  100   -3.9  48    0     1003.8   NA       0.0000   -SN      BR    9999  2000 
2019/08/18  15:25:02  BASE  2.47548  327  2.96352  311  -3.9  100   -3.9  49    0     1003.8   NA       0.0000   -SN      BR    9999  520  
2019/08/18  15:26:02  BASE  2.49312  325  3.0576   329  -3.9  100   -3.9  50    0     1003.8   NA       0.0000   -SN      BR    9999  520  
2019/08/18  15:27:02  BASE  2.6754   329  3.2046   340  -3.9  100   -3.9  51    0     1003.7   NA       0.0000   -SN      BR    9999  490  
2019/08/18  15:28:03  BASE  2.69892  335  3.26928  340  -3.9  100   -3.9  53    0     1003.6   NA       0.0000   -SN      BR    9999  0    
2019/08/18  15:29:03  BASE  2.72244  334  3.26928  340  -3.9  100   -3.9  54    0     1003.6   NA       0.0000   -SN      BR    9999  0    
2019/08/18  15:30:02  BASE  2.59308  330  3.26928  340  -3.9  100   -3.9  54    0     1003.6   NA       0.0000   -SN      BR    9999  0    
2019/08/18  15:31:03  BASE  2.46372  324  3.26928  340  -3.9  100   -3.9  56    0     1003.6   NA       0.0000   -SN      BR    9999  590  
2019/08/18  15:32:02  BASE  2.24616  320  3.26928  340  -3.9  100   -3.9  58    0     1003.6   NA       0.0000   -SN      9999  560   2070 
2019/08/18  15:33:03  BASE  2.10504  323  3.26928  340  -3.9  100   -3.9  59    0     1003.6   NA       0.0000   -SN      9999  720   2030 
2019/08/18  15:34:03  BASE  2.24616  333  3.26928  340  -3.9  100   -3.9  59    0     1003.6   NA       0.0000   -SN      9999  2070  0    
2019/08/18  15:35:03  BASE  2.43432  343  3.26928  340  -3.9  100   -3.9  60    0     1003.5   NA       0.0000   -SN      9999  2070  0    
2019/08/18  15:36:03  BASE  2.79888  342  3.35748  338  -3.9  100   -3.9  62    0     1003.5   NA       0.0000   -SN      9999  590   2170 
2019/08/18  15:37:03  BASE  3.00468  340  3.35748  350  -3.9  100   -3.9  62    0     1003.5   NA       0.0000   -SN      9999  2430  0    
2019/08/18  15:38:03  BASE  2.9988   345  3.48096  350  -3.9  100   -3.9  63    0     1003.4   NA       0.0000   -SN      9999  850   0    
2019/08/18  15:39:03  BASE  2.8224   350  3.48096  350  -3.9  100   -3.9  62    0     1003.4   NA       0.0000   -SN      9999  790   5450 
2019/08/18  15:40:03  BASE  2.84004  354  3.48096  350  -3.9  100   -3.9  63    0     1003.4   NA       0.0000   -SN      9999  560   2920 
2019/08/18  15:41:03  BASE  2.9988   354  3.48096  350  -3.9  100   -3.9  65    0     1003.4   NA       0.0000   -SN      9999  2920  5380 
2019/08/18  15:42:03  BASE  2.98116  354  3.48096  350  -3.8  100   -3.8  65    0     1003.4   NA       0.0000   -SN      9999  2920  5280 
2019/08/18  15:43:03  BASE  3.02232  354  3.48096  350  -3.8  100   -3.8  65    0     1003.4   NA       0.0000   -SN      9999  2760  0    
2019/08/18  15:44:03  BASE  3.16932  353  3.90432  354  -3.8  100   -3.8  66    0     1003.4   NA       0.0000   9999     2760  5280  0    
2019/08/18  15:45:03  BASE  3.10464  347  3.90432  354  -3.8  100   -3.8  67    0     1003.4   NA       0.0000   9999     2760  5280  0    
2019/08/18  15:46:03  BASE  2.94     346  3.90432  354  -3.8  100   -3.8  68    0     1003.4   NA       0.0000   9999     2790  5280  0    
2019/08/18  15:47:03  BASE  2.793    356  3.90432  354  -3.8  100   -3.8  69    0     1003.3   NA       0.0000   9999     720   2790  0    
2019/08/18  15:48:03  BASE  2.5872   1    3.90432  354  -3.8  100   -3.8  70    0     1003.3   NA       0.0000   9999     620   2790  0    
2019/08/18  15:49:02  BASE  2.60484  1    3.90432  354  -3.8  100   -3.8  70    0     1003.3   NA       0.0000   9999     2790  5050  0    
2019/08/18  15:50:02  BASE  2.49312  2    3.90432  354  -3.8  100   -3.8  69    0     1003.3   NA       0.0000   9999     2820  5250  0    
2019/08/18  15:51:03  BASE  2.63424  353  3.90432  354  -3.8  100   -3.8  68    0     1003.3   NA       0.0000   9999     2850  5180  0    
2019/08/18  15:52:02  BASE  2.92236  343  3.90432  354  -3.8  100   -3.8  68    0     1003.3   NA       0.0000   9999     2790  0     0    
2019/08/18  15:53:03  BASE  3.06348  342  3.90432  354  -3.8  100   -3.8  69    0     1003.2   NA       0.0000   9999     2130  0     0    
2019/08/18  15:54:02  BASE  3.234    340  3.69264  343  -3.8  100   -3.8  69    0     1003.2   NA       0.0000   9999     2100  0     0    
2019/08/18  15:55:02  BASE  3.09288  337  3.69264  343  -3.8  100   -3.8  69    0     1003.2   NA       0.0000   9999     2070  2950  0    
2019/08/18  15:56:03  BASE  3.06348  339  3.69264  343  -3.8  100   -3.8  69    0     1003.2   NA       0.0000   9999     2030  0     0    
2019/08/18  15:57:03  BASE  3.19284  338  3.69264  343  -3.8  100   -3.8  68    0     1003.2   NA       0.0000   9999     2070  0     0    
2019/08/18  15:58:03  BASE  3.12228  336  3.69264  343  -3.8  100   -3.8  66    0     1003.2   NA       0.0000   9999     2030  0     0    
2019/08/18  15:59:03  BASE  3.087    341  3.69264  343  -3.8  100   -3.8  65    0     1003.3   NA       0.0000   9999     2070  0     0    
2019/08/18  16:00:03  BASE  3.0282   333  3.69264  343  -3.8  100   -3.8  64    0     1003.3   NA       0.0000   9999     2030  0     0    
2019/08/18  16:01:04  BASE  2.77536  330  3.69264  343  -3.8  100   -3.8  64    0     1003.3   NA       0.0000   9999     2000  0     0    
2019/08/18  16:02:03  BASE  2.62836  336  3.69264  343  -3.8  100   -3.8  65    0     1003.2   NA       0.0000   9999     2000  0     0    
2019/08/18  16:03:03  BASE  2.78124  337  3.62796  343  -3.7  100   -3.7  65    0     1003.2   NA       0.0000   9999     920   0     0    
2019/08/18  16:04:03  BASE  2.54604  340  3.62796  343  -3.7  100   -3.7  65    0     1003.2   NA       0.0000   9999     1970  0     0    
2019/08/18  16:05:04  BASE  2.45196  337  3.62796  343  -3.7  100   -3.7  65    0     1003.2   NA       0.0000   9999     1080  0     0    
2019/08/18  16:06:03  BASE  2.63424  335  3.62796  343  -3.7  100   -3.7  64    0     1003.2   NA       0.0000   9999     1080  0     0    
2019/08/18  16:07:02  BASE  2.62836  337  3.44568  341  -3.7  100   -3.7  64    0     1003.2   NA       0.0000   9999     1940  0     0    
2019/08/18  16:08:03  BASE  2.69892  338  3.44568  341  -3.7  100   -3.7  64    0     1003.2   NA       0.0000   9999     1940  0     0    
2019/08/18  16:09:03  BASE  2.793    341  3.53976  338  -3.7  100   -3.7  65    0     1003.1   NA       0.0000   9999     1940  0     0    
2019/08/18  16:10:02  BASE  2.72244  340  3.53976  338  -3.7  100   -3.7  66    0     1003.1   NA       0.0000   9999     1870  0     0    
2019/08/18  16:11:03  BASE  2.39316  338  3.53976  338  -3.7  100   -3.7  67    0     1003.2   NA       0.0000   9999     1900  0     0    
2019/08/18  16:12:03  BASE  2.34024  347  3.53976  338  -3.7  100   -3.7  69    0     1003.1   NA       0.0000   9999     1870  0     0    
2019/08/18  16:13:02  BASE  2.04624  3    3.53976  338  -3.7  100   -3.7  71    0     1003.0   NA       0.0000   9999     1900  0     0    
2019/08/18  16:14:03  BASE  2.0286   1    3.53976  338  -3.6  100   -3.6  71    0     1003.0   NA       0.0000   9999     1870  0     0    
2019/08/18  16:15:03  BASE  2.95176  349  4.02192  354  -3.6  100   -3.6  69    0     1003.0   NA       0.0000   9999     1840  0     0    
2019/08/18  16:16:03  BASE  3.43392  349  4.02192  354  -3.6  100   -3.6  69    0     1002.9   NA       0.0000   9999     1840  0     0    
2019/08/18  16:17:02  BASE  3.34572  350  4.02192  354  -3.6  100   -3.6  70    0     1002.8   NA       0.0000   9999     1800  0     0    
2019/08/18  16:18:03  BASE  2.38728  356  4.02192  354  -3.6  100   -3.6  72    0     1002.8   NA       0.0000   9999     1870  0     0    
2019/08/18  16:19:03  BASE  1.65816  348  4.02192  354  -3.6  100   -3.6  73    0     1002.9   NA       0.0000   9999     1870  0     0    
2019/08/18  16:20:02  BASE  1.71108  318  4.02192  354  -3.6  100   -3.6  72    0     1003.0   NA       0.0000   9999     1940  0     0    
2019/08/18  16:21:03  BASE  1.31712  320  4.02192  354  -3.6  100   -3.6  72    0     1003.0   NA       0.0000   9999     1970  0     0    
2019/08/18  16:22:03  BASE  2.22852  337  4.41588  340  -3.5  100   -3.5  73    0     1002.9   NA       0.0000   9999     1940  0     0    
2019/08/18  16:23:03  BASE  2.55192  347  4.41588  340  -3.5  100   -3.5  71    0     1002.9   NA       0.0000   9999     1900  0     0    
2019/08/18  16:24:02  BASE  1.93452  354  4.41588  340  -3.5  100   -3.5  68    0     1002.9   NA       0.0000   9999     1120  0     0    
2019/08/18  16:25:03  BASE  2.14032  345  4.41588  340  -3.5  100   -3.5  65    0     1002.9   NA       0.0000   9999     820   1940  0    
2019/08/18  16:26:03  BASE  2.1756   341  4.41588  340  -3.5  100   -3.5  65    0     1002.9   NA       0.0000   9999     790   1900  0    
2019/08/18  16:27:03  BASE  1.93452  22   4.41588  340  -3.6  100   -3.6  65    0     1002.8   NA       0.0000   9999     590   1900  0    
2019/08/18  16:28:03  BASE  1.86396  42   4.41588  340  -3.6  100   -3.6  65    0     1002.8   NA       0.0000   7000     390   1900  0    
2019/08/18  16:29:03  BASE  2.18148  13   4.41588  340  -3.5  100   -3.5  66    0     1002.8   NA       0.0000   9999     720   1870  0    
2019/08/18  16:30:02  BASE  2.4108   355  4.41588  340  -3.5  100   -3.5  66    0     1002.9   NA       0.0000   9999     850   1870  0    
2019/08/18  16:31:03  BASE  2.28144  358  4.41588  340  -3.5  100   -3.5  63    0     1002.9   NA       0.0000   9999     820   1940  0    
2019/08/18  16:32:03  BASE  2.33436  4    2.87532  1    -3.5  100   -3.5  59    0     1002.9   NA       0.0000   9999     430   1970  0    
2019/08/18  16:33:02  BASE  2.69304  359  3.1164   217  -3.5  100   -3.5  56    0     1002.8   NA       0.0000   9999     390   0     0    
2019/08/18  16:34:03  BASE  2.45196  348  3.1164   217  -3.5  100   -3.5  55    0     1002.8   NA       0.0000   9999     390   1970  0    
2019/08/18  16:35:03  BASE  2.22264  346  3.1164   217  -3.5  100   -3.5  53    0     1002.8   NA       0.0000   9999     330   0     0    
2019/08/18  16:36:03  BASE  2.24028  347  3.1164   217  -3.5  100   -3.5  51    0     1002.8   NA       0.0000   9000     360   0     0    
2019/08/18  16:37:03  BASE  2.2638   351  3.1164   217  -3.5  100   -3.5  50    0     1002.9   NA       0.0000   UP       8000  300   0    
2019/08/18  16:38:02  BASE  2.09916  354  3.1164   217  -3.5  100   -3.5  50    0     1002.9   NA       0.0000   UP       7000  360   0    
2019/08/18  16:39:02  BASE  1.7934   5    3.1164   217  -3.5  100   -3.5  50    0     1002.9   NA       0.0000   UP       BR    4900  300  
2019/08/18  16:40:03  BASE  1.7346   11   3.1164   217  -3.5  100   -3.5  51    0     1002.9   NA       0.0000   UP       BR    4400  300  
2019/08/18  16:41:03  BASE  1.66404  17   3.1164   217  -3.5  100   -3.5  52    0     1002.9   NA       0.0000   UP       BR    5000  300  
2019/08/18  16:42:03  BASE  1.36416  27   3.1164   217  -3.5  100   -3.5  53    0     1002.9   NA       0.0000   UP       BR    4300  300  
2019/08/18  16:43:03  BASE  1.55232  36   2.81064  330  -3.5  100   -3.5  55    0     1002.8   NA       0.0000   UP       BR    3400  300  
2019/08/18  16:44:03  BASE  2.06388  29   2.81064  330  -3.5  100   -3.5  56    0     1002.8   NA       0.0000   UP       BR    3600  300  
2019/08/18  16:45:02  BASE  2.48136  23   3.1458   15   -3.5  100   -3.5  58    0     1002.8   NA       0.0000   UP       BR    5000  330  
2019/08/18  16:46:03  BASE  2.95176  32   4.02192  26   -3.5  100   -3.5  58    0     1002.8   NA       0.0000   UP       BR    6000  330  
2019/08/18  16:47:03  BASE  3.087    33   4.02192  26   -3.5  100   -3.5  57    0     1002.8   NA       0.0000   UP       BR    6000  300  
2019/08/18  16:48:02  BASE  2.87532  28   4.02192  26   -3.4  100   -3.4  56    0     1002.8   NA       0.0000   UP       BR    8000  330  
2019/08/18  16:49:02  BASE  2.75772  33   4.02192  26   -3.4  100   -3.4  55    0     1002.8   NA       0.0000   UP       BR    5000  300  
2019/08/18  16:50:02  BASE  2.55192  46   4.02192  26   -3.4  100   -3.4  55    0     1002.9   NA       0.0000   UP       BR    3200  300  
2019/08/18  16:51:02  BASE  2.21088  47   4.02192  26   -3.4  100   -3.4  55    0     1002.9   NA       0.0000   UP       BR    3100  300  
2019/08/18  16:52:02  BASE  2.1462   44   4.02192  26   -3.4  100   -3.4  55    0     1002.9   NA       0.0000   UP       BR    4100  300  
2019/08/18  16:53:03  BASE  1.95804  31   4.02192  26   -3.4  100   -3.4  55    0     1002.8   NA       0.0000   UP       BR    4400  300  
2019/08/18  16:54:03  BASE  1.83456  6    4.02192  26   -3.4  100   -3.4  55    0     1002.8   NA       0.0000   UP       BR    4000  300  
2019/08/18  16:55:03  BASE  1.97568  3    4.02192  26   -3.4  100   -3.4  55    0     1002.8   NA       0.0000   UP       BR    4200  300  
2019/08/18  16:56:03  BASE  2.2638   15   3.44568  42   -3.4  100   -3.4  54    0     1002.8   NA       0.0000   -SN      BR    5000  300  
2019/08/18  16:57:02  BASE  2.22264  12   3.44568  42   -3.4  100   -3.4  54    0     1002.9   NA       0.0000   -SN      BR    6000  300  
2019/08/18  16:58:03  BASE  1.91688  9    3.44568  42   -3.4  100   -3.4  54    0     1002.9   NA       0.0000   -SN      BR    4700  300  
2019/08/18  16:59:03  BASE  1.617    14   3.1752   38   -3.4  100   -3.4  53    0     1002.9   NA       0.0000   -SN      BR    4000  300  
2019/08/18  17:00:02  BASE  1.42884  15   3.1752   38   -3.4  100   -3.4  51    0     1002.9   NA       0.0000   -SN      BR    4200  300  
2019/08/18  17:01:03  BASE  1.3818   12   3.1752   38   -3.4  100   -3.4  51    0     1002.9   NA       0.0000   -SN      BR    3500  300  
2019/08/18  17:02:03  BASE  1.38768  10   2.84592  20   -3.4  100   -3.4  51    0     1002.9   NA       0.0000   -SN      BR    5000  330  
2019/08/18  17:03:02  BASE  1.4112   13   2.84592  20   -3.4  100   -3.4  52    0     1002.9   NA       0.0000   -SN      BR    5000  330  
2019/08/18  17:04:03  BASE  1.39944  4    2.84592  20   -3.4  100   -3.4  52    0     1002.9   NA       0.0000   -SN      BR    4600  330  
2019/08/18  17:05:04  BASE  1.37592  350  2.84592  20   -3.4  100   -3.4  52    0     1002.9   NA       0.0000   -SN      BR    6000  330  
2019/08/18  17:06:03  BASE  1.01724  355  2.51076  1    -3.4  100   -3.4  51    0     1002.9   NA       0.0000   -SN      BR    7000  330  
2019/08/18  17:07:03  BASE  1.21716  21   2.058    17   -3.4  100   -3.4  50    0     1002.8   NA       0.0000   -SN      BR    5000  330  
2019/08/18  17:08:03  BASE  1.9992   38   2.75184  39   -3.4  100   -3.4  49    0     1002.8   NA       0.0000   -SN      BR    3500  300  
2019/08/18  17:09:03  BASE  2.24028  30   2.75184  39   -3.4  100   -3.4  48    0     1002.8   NA       0.0000   -SN      BR    3000  260  
2019/08/18  17:10:02  BASE  2.62248  21   3.62796  18   -3.4  100   -3.4  48    0     1002.8   NA       0.0000   -SN      BR    3900  260  
2019/08/18  17:11:03  BASE  2.96352  18   3.62796  18   -3.4  100   -3.4  47    0     1002.7   NA       0.0000   -SN      BR    6000  260  
2019/08/18  17:12:03  BASE  2.8812   12   3.86904  10   -3.3  100   -3.3  47    0     1002.7   NA       0.0000   -SN      BR    9000  230  
2019/08/18  17:13:03  BASE  2.54016  18   3.86904  10   -3.3  100   -3.3  47    0     1002.7   NA       0.0000   -SN      BR    7000  230  
2019/08/18  17:14:03  BASE  2.205    31   3.86904  10   -3.3  100   -3.3  48    0     1002.7   NA       0.0000   -SN      BR    5000  230  
2019/08/18  17:15:03  BASE  2.1168   29   3.86904  10   -3.3  100   -3.3  48    0     1002.7   NA       0.0000   -SN      BR    4500  230  
2019/08/18  17:16:03  BASE  1.9992   20   3.86904  10   -3.3  100   -3.3  49    0     1002.7   NA       0.0000   -SN      BR    5000  230  
2019/08/18  17:17:02  BASE  2.04036  21   3.86904  10   -3.3  100   -3.3  50    0     1002.7   NA       0.0000   -SN      BR    5000  230  
2019/08/18  17:18:02  BASE  2.13444  24   3.86904  10   -3.3  100   -3.3  51    0     1002.6   NA       0.0000   -SN      BR    4100  230  
2019/08/18  17:19:05  BASE  2.22264  19   3.86904  10   -3.3  100   -3.3  51    0     1002.6   NA       0.0000   -SN      BR    4600  260  
2019/08/18  17:20:03  BASE  2.15208  15   3.86904  10   -3.3  100   -3.3  51    0     1002.6   NA       0.0000   -SN      BR    5000  230  
2019/08/18  17:21:03  BASE  2.06388  11   3.86904  10   -3.3  100   -3.3  52    0     1002.5   NA       0.0000   -SN      BR    4800  230  
2019/08/18  17:22:03  BASE  2.29908  13   2.63424  16   -3.3  100   -3.3  54    0     1002.5   NA       0.0000   -SN      BR    4100  230  
2019/08/18  17:23:02  BASE  2.39904  9    2.63424  16   -3.3  100   -3.3  55    0     1002.6   NA       0.0000   -SN      BR    5000  260  
2019/08/18  17:24:03  BASE  2.34024  352  2.63424  16   -3.3  100   -3.3  57    0     1002.6   NA       0.0000   -SN      BR    8000  260  
2019/08/18  17:25:03  BASE  2.32848  346  2.63424  16   -3.3  100   -3.3  58    0     1002.6   NA       0.0000   -SN      BR    9999  260  
2019/08/18  17:26:02  BASE  2.51664  356  2.93412  1    -3.3  100   -3.3  60    0     1002.5   NA       0.0000   -SN      BR    9999  0    
2019/08/18  17:27:03  BASE  2.7048   7    2.96352  7    -3.3  100   -3.3  61    0     1002.5   NA       0.0000   -SN      BR    9999  300  
2019/08/18  17:28:03  BASE  2.64012  10   2.96352  7    -3.3  100   -3.3  62    0     1002.5   NA       0.0000   -SN      BR    9999  300  
2019/08/18  17:29:02  BASE  2.4696   9    2.96352  7    -3.3  100   -3.3  61    0     1002.6   NA       0.0000   -SN      BR    9999  330  
2019/08/18  17:30:02  BASE  2.29908  6    2.96352  7    -3.3  100   -3.3  61    0     1002.6   NA       0.0000   -SN      BR    9999  360  
2019/08/18  17:31:03  BASE  2.24028  5    2.96352  7    -3.3  100   -3.3  62    0     1002.6   NA       0.0000   -SN      BR    9999  390  
2019/08/18  17:32:03  BASE  2.25204  6    2.96352  7    -3.3  100   -3.3  63    0     1002.6   NA       0.0000   -SN      9999  360   0    
2019/08/18  17:33:03  BASE  2.44608  4    3.02232  354  -3.3  100   -3.3  62    0     1002.6   NA       0.0000   -SN      9999  360   0    
2019/08/18  17:34:03  BASE  2.65188  356  3.02232  354  -3.3  100   -3.3  61    0     1002.6   NA       0.0000   -SN      9999  360   0    
2019/08/18  17:35:02  BASE  2.6166   350  3.02232  354  -3.3  100   -3.3  60    0     1002.6   NA       0.0000   -SN      9999  360   0    
2019/08/18  17:36:03  BASE  2.65776  342  3.087    345  -3.3  100   -3.3  60    0     1002.6   NA       0.0000   -SN      9999  360   0    
2019/08/18  17:37:03  BASE  2.56368  340  3.087    345  -3.3  100   -3.3  62    0     1002.6   NA       0.0000   -SN      9999  330   0    
2019/08/18  17:38:03  BASE  2.74596  342  3.26928  333  -3.3  100   -3.3  63    0     1002.5   NA       0.0000   9999     330   0     0    
2019/08/18  17:39:02  BASE  3.0576   337  3.26928  330  -3.3  100   -3.3  63    0     1002.6   NA       0.0000   9999     360   0     0    
2019/08/18  17:40:02  BASE  2.72832  335  3.26928  330  -3.3  100   -3.3  63    0     1002.6   NA       0.0000   9999     330   0     0    
2019/08/18  17:41:02  BASE  2.32848  339  3.26928  330  -3.3  100   -3.3  63    0     1002.5   NA       0.0000   9999     300   0     0    
2019/08/18  17:42:03  BASE  1.81104  341  3.26928  330  -3.3  100   -3.3  62    0     1002.4   NA       0.0000   9999     300   0     0    
2019/08/18  17:43:03  BASE  1.25244  345  3.26928  330  -3.3  100   -3.3  62    0     1002.5   NA       0.0000   -SN      8000  300   0    
2019/08/18  17:44:03  BASE  1.28184  352  3.26928  330  -3.3  100   -3.3  62    0     1002.4   NA       0.0000   -SN      6000  330   0    
2019/08/18  17:45:03  BASE  1.74048  349  3.26928  330  -3.3  100   -3.3  62    0     1002.3   NA       0.0000   -SN      5000  300   0    
2019/08/18  17:46:03  BASE  1.77576  347  3.26928  330  -3.3  100   -3.3  62    0     1002.3   NA       0.0000   -SN      BR    4700  260  
2019/08/18  17:47:03  BASE  1.5582   2    3.26928  330  -3.3  100   -3.3  60    0     1002.2   NA       0.0000   -SN      BR    4800  260  
2019/08/18  17:48:03  BASE  1.89336  12   3.26928  330  -3.3  100   -3.3  59    0     1002.2   NA       0.0000   -SN      BR    4800  260  
2019/08/18  17:49:02  BASE  2.3226   7    2.84592  340  -3.3  100   -3.3  58    0     1002.2   NA       0.0000   -SN      BR    6000  300  
2019/08/18  17:50:03  BASE  2.352    5    2.81064  331  -3.3  100   -3.3  58    0     1002.2   NA       0.0000   -SN      BR    7000  300  
2019/08/18  17:51:03  BASE  2.09916  4    2.69304  6    -3.3  100   -3.3  58    0     1002.1   NA       0.0000   -SN      BR    6000  300  
2019/08/18  17:52:03  BASE  2.18148  3    2.69304  6    -3.3  100   -3.3  58    0     1002.1   NA       0.0000   -SN      BR    8000  330  
2019/08/18  17:53:03  BASE  2.65188  352  3.1458   350  -3.3  100   -3.3  58    0     1002.1   NA       0.0000   -SN      BR    9000  330  
2019/08/18  17:54:03  BASE  2.78124  351  3.1458   350  -3.2  100   -3.2  60    0     1002.1   NA       0.0000   -SN      BR    9000  330  
2019/08/18  17:55:02  BASE  2.55192  355  3.1458   350  -3.2  100   -3.2  62    0     1002.0   NA       0.0000   -SN      BR    9000  360  
2019/08/18  17:56:02  BASE  2.39316  351  3.1458   350  -3.2  100   -3.2  62    0     1002.1   NA       0.0000   -SN      BR    9000  360  
2019/08/18  17:57:03  BASE  2.71656  337  3.75144  326  -3.2  100   -3.2  63    0     1002.1   NA       0.0000   -SN      BR    9000  330  
2019/08/18  17:58:03  BASE  3.35748  322  3.75144  322  -3.2  100   -3.2  64    0     1002.2   NA       0.0000   -SN      BR    9000  390  
2019/08/18  17:59:02  BASE  3.74556  322  4.35708  333  -3.2  100   -3.2  65    0     1002.1   NA       0.0000   -SN      BR    9000  330  
2019/08/18  18:00:02  BASE  3.969    326  4.78044  325  -3.2  100   -3.2  65    0     1002.1   NA       0.0000   -SN      BR    8000  360  
2019/08/18  18:01:02  BASE  3.8808   326  4.78044  325  -3.2  100   -3.2  64    0     1002.2   NA       0.0000   BR       8000  390   0    
2019/08/18  18:02:03  BASE  3.47508  319  4.78044  325  -3.2  100   -3.2  62    0     1002.2   NA       0.0000   BR       8000  390   0    
2019/08/18  18:03:02  BASE  3.42216  310  4.78044  325  -3.2  100   -3.2  59    0     1002.1   NA       0.0000   BR       8000  360   0    
2019/08/18  18:04:03  BASE  3.22224  305  4.78044  325  -3.2  100   -3.2  55    0     1002.1   NA       0.0000   BR       8000  330   0    
2019/08/18  18:05:03  BASE  2.76948  313  4.78044  325  -3.2  100   -3.2  53    0     1002.1   NA       0.0000   BR       7000  360   0    
2019/08/18  18:06:03  BASE  2.5284   325  4.78044  325  -3.2  100   -3.2  51    0     1002.0   NA       0.0000   BR       7000  360   0    
2019/08/18  18:07:02  BASE  2.49312  328  4.78044  325  -3.2  100   -3.2  49    0     1001.9   NA       0.0000   BR       7000  360   0    
2019/08/18  18:08:03  BASE  2.78712  333  4.78044  325  -3.2  100   -3.2  48    0     1001.8   NA       0.0000   BR       7000  390   0    
2019/08/18  18:09:03  BASE  3.45744  338  4.78044  325  -3.2  100   -3.2  47    0     1001.7   NA       0.0000   BR       7000  390   0    
2019/08/18  18:10:02  BASE  3.97488  334  4.263    330  -3.2  100   -3.2  49    0     1001.7   NA       0.0000   BR       8000  330   0    
2019/08/18  18:11:02  BASE  4.19832  333  4.59816  339  -3.2  100   -3.2  53    0     1001.6   NA       0.0000   -SN      BR    9000  330  
2019/08/18  18:12:03  BASE  4.39236  336  5.1744   336  -3.2  100   -3.2  56    0     1001.6   NA       0.0000   -SN      BR    9000  260  
2019/08/18  18:13:03  BASE  4.93332  335  6.47388  329  -3.2  100   -3.2  57    0     1001.6   NA       0.0000   -SN      BR    9000  300  
2019/08/18  18:14:02  BASE  5.05092  334  6.47388  329  -3.2  100   -3.2  59    0     1001.6   NA       0.0000   -SN      BR    7000  0    
2019/08/18  18:15:02  BASE  4.72164  327  6.47388  329  -3.2  100   -3.2  60    0     1001.6   NA       0.0000   -SN      BR    5000  0    
2019/08/18  18:16:03  BASE  4.77456  327  6.47388  329  -3.2  100   -3.2  62    0     1001.5   NA       0.0000   -SN      BR    6000  0    
2019/08/18  18:17:03  BASE  4.66284  331  6.47388  329  -3.2  100   -3.2  63    0     1001.5   NA       0.0000   -SN      BR    8000  0    
2019/08/18  18:18:03  BASE  4.75104  335  6.47388  329  -3.2  100   -3.2  65    0     1001.5   NA       0.0000   -SN      BR    8000  0    
2019/08/18  18:19:02  BASE  4.95684  341  6.47388  329  -3.2  100   -3.2  67    0     1001.5   NA       0.0000   -SN      BR    8000  0    
2019/08/18  18:20:02  BASE  5.06268  340  6.47388  329  -3.2  100   -3.2  69    0     1001.4   NA       0.0000   -SN      BR    8000  300  
2019/08/18  18:21:02  BASE  5.03916  341  6.47388  329  -3.2  100   -3.2  70    0     1001.4   NA       0.0000   -SN      BR    9999  390  
2019/08/18  18:22:03  BASE  5.12736  341  6.47388  329  -3.2  100   -3.2  70    0     1001.4   NA       0.0000   -SN      BR    9999  430  
2019/08/18  18:23:03  BASE  5.48604  338  6.77376  332  -3.2  100   -3.2  70    0     1001.4   NA       0.0000   -SN      BR    9999  360  
2019/08/18  18:24:03  BASE  5.29788  338  6.77376  332  -3.2  100   -3.2  69    0     1001.4   NA       0.0000   -SN      BR    9999  360  
2019/08/18  18:25:02  BASE  5.10972  343  6.77376  332  -3.2  100   -3.2  69    0     1001.4   NA       0.0000   -SN      BR    9999  390  
2019/08/18  18:26:02  BASE  5.03916  347  6.77376  332  -3.2  100   -3.2  68    0     1001.4   NA       0.0000   -SN      9999  360   5510 
2019/08/18  18:27:03  BASE  5.02152  347  6.77376  332  -3.2  100   -3.2  67    0     1001.3   NA       0.0000   -SN      9999  390   5610 
2019/08/18  18:28:03  BASE  4.99212  345  6.77376  332  -3.2  100   -3.2  66    0     1001.3   NA       0.0000   -SN      9999  360   5580 
2019/08/18  18:29:02  BASE  5.16852  345  6.77376  332  -3.1  100   -3.1  65    0     1001.3   NA       0.0000   9999     850   5480  0    
2019/08/18  18:30:03  BASE  5.29788  341  6.77376  332  -3.1  100   -3.1  64    0     1001.3   NA       0.0000   9999     430   5480  0    
2019/08/18  18:31:03  BASE  4.86276  333  6.77376  332  -3.1  100   -3.1  62    0     1001.4   NA       0.0000   9999     690   5410  0    
2019/08/18  18:32:03  BASE  4.36296  329  6.77376  332  -3.1  100   -3.1  62    0     1001.3   NA       0.0000   9999     490   5380  0    
2019/08/18  18:33:03  BASE  4.43352  337  6.53268  333  -3.1  100   -3.1  62    0     1001.3   NA       0.0000   9999     620   5350  0    
2019/08/18  18:34:02  BASE  4.98036  345  6.53268  333  -3.1  100   -3.1  63    0     1001.3   NA       0.0000   9999     490   5450  0    
2019/08/18  18:35:02  BASE  5.1156   345  6.53268  333  -3.1  100   -3.1  64    0     1001.3   NA       0.0000   9999     430   5410  0    
2019/08/18  18:36:02  BASE  4.93332  341  6.53268  333  -3.1  100   -3.1  64    0     1001.3   NA       0.0000   9999     390   5350  0    
2019/08/18  18:37:03  BASE  4.98036  336  6.53268  333  -3.0  100   -3.0  65    0     1001.2   NA       0.0000   9999     490   5280  0    
2019/08/18  18:38:03  BASE  4.82748  336  6.53268  333  -3.0  100   -3.0  65    0     1001.2   NA       0.0000   9999     560   4530  0    
2019/08/18  18:39:03  BASE  4.89216  336  6.53268  333  -3.0  100   -3.0  64    0     1001.1   NA       0.0000   9999     520   5150  0    
2019/08/18  18:40:02  BASE  5.13912  343  6.47388  328  -3.0  100   -3.0  62    0     1001.1   NA       0.0000   9999     560   5050  0    
2019/08/18  18:41:02  BASE  4.82748  346  6.47388  328  -3.0  100   -3.0  62    0     1001.2   NA       0.0000   9999     430   0     0    
2019/08/18  18:42:03  BASE  5.28024  339  6.62676  322  -3.0  100   -3.0  64    0     1001.3   NA       0.0000   9999     690   6170  0    
2019/08/18  18:43:03  BASE  5.4978   334  6.62676  322  -3.0  100   -3.0  66    0     1001.3   NA       0.0000   9999     520   6100  0    
2019/08/18  18:44:02  BASE  5.04504  335  6.62676  322  -3.0  100   -3.0  68    0     1001.3   NA       0.0000   9999     430   4890  0    
2019/08/18  18:45:02  BASE  5.292    339  6.62676  322  -3.0  100   -3.0  67    0     1001.3   NA       0.0000   9999     430   4760  0    
2019/08/18  18:46:03  BASE  5.95056  338  6.92664  342  -3.0  100   -3.0  64    0     1001.2   NA       0.0000   9999     490   4630  0    
2019/08/18  18:47:03  BASE  6.50328  334  7.2324   329  -3.0  100   -3.0  61    0     1001.2   NA       0.0000   9999     490   4330  0    
2019/08/18  18:48:03  BASE  6.56796  330  7.74396  324  -3.0  100   -3.0  60    0     1001.2   NA       0.0000   9999     430   4230  0    
2019/08/18  18:49:02  BASE  5.77416  332  7.74396  324  -3.0  100   -3.0  60    0     1001.3   NA       0.0000   9999     390   4170  0    
2019/08/18  18:50:03  BASE  5.31552  336  7.74396  324  -3.0  100   -3.0  59    0     1001.3   NA       0.0000   9999     460   4230  0    
2019/08/18  18:51:03  BASE  5.63304  330  7.74396  324  -3.0  100   -3.0  60    0     1001.3   NA       0.0000   9999     590   4360  0    
2019/08/18  18:52:02  BASE  5.75064  326  7.74396  324  -3.0  100   -3.0  61    0     1001.3   NA       0.0000   9999     620   6330  0    
2019/08/18  18:53:03  BASE  5.96232  328  7.74396  324  -3.0  100   -3.0  62    0     1001.2   NA       0.0000   9999     560   6270  0    
2019/08/18  18:54:02  BASE  6.33864  334  7.74396  324  -3.0  100   -3.0  63    0     1001.2   NA       0.0000   9999     560   6170  0    
2019/08/18  18:55:02  BASE  6.54444  338  7.74396  324  -3.0  100   -3.0  63    0     1001.3   NA       0.0000   9999     5970  11810 0    
2019/08/18  18:56:03  BASE  6.78552  339  7.74396  324  -3.0  100   -3.0  64    0     1001.2   NA       0.0000   9999     6200  11710 0    
2019/08/18  18:57:02  BASE  6.59148  342  7.74396  324  -3.0  100   -3.0  64    0     1001.1   NA       0.0000   9999     690   11580 0    
2019/08/18  18:58:02  BASE  6.37392  340  7.53228  329  -3.0  100   -3.0  64    0     1001.1   NA       0.0000   9999     720   0     0    
2019/08/18  18:59:02  BASE  6.5562   339  7.53228  329  -3.0  100   -3.0  65    0     1001.1   NA       0.0000   9999     590   11610 0    
2019/08/18  19:00:02  BASE  6.60912  339  7.53228  329  -3.0  100   -3.0  63    0     1001.1   NA       0.0000   9999     490   6070  0    
2019/08/18  19:01:03  BASE  6.94428  337  8.10852  336  -3.0  100   -3.0  60    0     1001.1   NA       0.0000   9999     520   6070  0    
2019/08/18  19:02:03  BASE  6.78552  336  8.10852  336  -3.0  100   -3.0  57    0     1001.1   NA       0.0000   9999     490   3940  0    
2019/08/18  19:03:03  BASE  6.4974   334  8.10852  336  -3.0  100   -3.0  57    0     1001.2   NA       0.0000   9999     520   3940  0    
2019/08/18  19:04:03  BASE  6.20928  325  8.10852  336  -3.0  100   -3.0  56    0     1001.3   NA       0.0000   9999     490   3970  0    
2019/08/18  19:05:04  BASE  5.36844  321  8.10852  336  -3.0  100   -3.0  56    0     1001.4   NA       0.0000   9999     360   0     0    
2019/08/18  19:06:02  BASE  5.23908  326  8.10852  336  -3.0  100   -3.0  57    0     1001.4   NA       0.0000   9999     520   0     0    
2019/08/18  19:07:03  BASE  5.38608  333  8.10852  336  -3.0  100   -3.0  56    0     1001.4   NA       0.0000   9999     330   4070  0    
2019/08/18  19:08:03  BASE  5.65656  338  8.10852  336  -3.1  100   -3.1  53    0     1001.3   NA       0.0000   9999     390   4070  0    
2019/08/18  19:09:03  BASE  5.6154   347  8.10852  336  -3.1  100   -3.1  54    0     1001.3   NA       0.0000   9999     460   4100  0    
2019/08/18  19:10:02  BASE  5.23908  349  8.10852  336  -3.1  100   -3.1  53    0     1001.3   NA       0.0000   9999     390   0     0    
2019/08/18  19:11:02  BASE  5.30964  340  7.3206   336  -3.1  100   -3.1  56    0     1001.3   NA       0.0000   9999     490   4170  0    
2019/08/18  19:12:03  BASE  5.0568   336  7.3206   336  -3.1  100   -3.1  58    0     1001.4   NA       0.0000   9999     460   4170  0    
2019/08/18  19:13:02  BASE  4.98624  342  6.71496  322  -3.1  100   -3.1  58    0     1001.3   NA       0.0000   9999     490   4170  0    
2019/08/18  19:14:02  BASE  5.18028  345  6.41508  336  -3.1  100   -3.1  57    0     1001.4   NA       0.0000   9999     360   0     0    
2019/08/18  19:15:02  BASE  4.85688  346  6.41508  336  -3.1  100   -3.1  59    0     1001.4   NA       0.0000   9999     460   0     0    
2019/08/18  19:16:03  BASE  4.3806   346  6.2622   341  -3.1  100   -3.1  62    0     1001.5   NA       0.0000   9999     390   0     0    
2019/08/18  19:17:02  BASE  4.57464  342  6.2622   341  -3.1  100   -3.1  64    0     1001.5   NA       0.0000   9999     390   4200  0    
2019/08/18  19:18:02  BASE  4.91568  339  5.78004  335  -3.0  100   -3.0  62    0     1001.6   NA       0.0000   9999     390   3640  0    
2019/08/18  19:19:02  BASE  5.292    339  6.2328   339  -3.0  100   -3.0  59    0     1001.5   NA       0.0000   9999     390   3640  0    
2019/08/18  19:20:02  BASE  5.25084  341  6.2328   339  -3.0  100   -3.0  56    0     1001.6   NA       0.0000   9999     330   3610  0    
2019/08/18  19:21:02  BASE  4.3218   343  6.2328   339  -3.0  100   -3.0  52    0     1001.6   NA       0.0000   9999     360   3610  0    
2019/08/18  19:22:03  BASE  4.01016  342  6.2328   339  -3.0  100   -3.0  48    0     1001.6   NA       0.0000   9999     430   3610  0    
2019/08/18  19:23:02  BASE  4.32768  340  6.2328   339  -3.0  100   -3.0  45    0     1001.7   NA       0.0000   9999     390   0     0    
2019/08/18  19:24:02  BASE  4.59228  340  6.2328   339  -3.0  100   -3.0  43    0     1001.7   NA       0.0000   9999     430   3640  0    
2019/08/18  19:25:02  BASE  4.62168  344  6.2328   339  -2.9  100   -2.9  43    0     1001.7   NA       0.0000   9999     330   3640  0    
2019/08/18  19:26:03  BASE  4.62756  342  6.2328   339  -2.9  100   -2.9  45    0     1001.7   NA       0.0000   9999     260   3580  0    
2019/08/18  19:27:02  BASE  4.15128  336  6.2328   339  -2.9  100   -2.9  45    0     1001.8   NA       0.0000   9999     360   3540  0    
2019/08/18  19:28:02  BASE  3.74556  340  6.2328   339  -2.9  100   -2.9  43    0     1001.7   NA       0.0000   9999     300   3510  0    
2019/08/18  19:29:02  BASE  3.72204  347  5.35668  330  -2.9  100   -2.9  40    0     1001.7   NA       0.0000   9999     300   3450  0    
2019/08/18  19:30:02  BASE  3.69264  353  5.3214   339  -2.9  100   -2.9  37    0     1001.7   NA       0.0000   9999     360   3410  0    
2019/08/18  19:31:02  BASE  4.06896  355  5.3214   339  -2.9  100   -2.9  36    0     1001.7   NA       0.0000   9999     430   3450  0    
2019/08/18  19:32:03  BASE  4.0866   347  5.3214   339  -2.9  100   -2.9  35    0     1001.7   NA       0.0000   9999     430   3450  0    
2019/08/18  19:33:02  BASE  3.9396   338  5.3214   339  -2.9  100   -2.9  34    0     1001.8   NA       0.0000   9999     520   3450  0    
2019/08/18  19:34:03  BASE  3.80436  331  5.08032  333  -2.9  100   -2.9  33    0     1001.8   NA       0.0000   9999     560   3410  0    
2019/08/18  19:35:02  BASE  3.4986   331  5.08032  333  -2.9  100   -2.9  33    0     1001.8   NA       0.0000   9999     490   3350  0    
2019/08/18  19:36:03  BASE  3.52212  339  4.80984  350  -2.8  100   -2.8  33    0     1001.8   NA       0.0000   9999     490   3280  0    
2019/08/18  19:37:02  BASE  3.41628  339  4.80984  350  -2.8  100   -2.8  32    0     1002.0   NA       0.0000   9999     3150  0     0    
2019/08/18  19:38:03  BASE  3.01644  334  4.80984  350  -2.8  100   -2.8  31    0     1002.0   NA       0.0000   9999     3150  0     0    
2019/08/18  19:39:02  BASE  3.16344  333  4.80984  350  -2.8  100   -2.8  31    0     1002.0   NA       0.0000   9999     720   3120  0    
2019/08/18  19:40:02  BASE  3.21048  333  4.80984  350  -2.8  100   -2.8  30    0     1002.0   NA       0.0000   9999     520   3050  0    
2019/08/18  19:41:02  BASE  3.32808  339  4.65696  333  -2.8  100   -2.8  29    0     1002.0   NA       0.0000   9999     620   3050  0    
2019/08/18  19:42:03  BASE  3.675    340  4.65696  333  -2.8  100   -2.8  27    0     1001.9   NA       0.0000   9999     660   2990  0    
2019/08/18  19:43:02  BASE  3.56916  333  4.56876  317  -2.8  100   -2.8  26    0     1001.9   NA       0.0000   9999     660   2890  0    
2019/08/18  19:44:03  BASE  3.22224  337  4.50996  332  -2.8  100   -2.8  26    0     1001.8   NA       0.0000   9999     2820  0     0    
2019/08/18  19:45:03  BASE  3.39276  334  4.1454   322  -2.8  100   -2.8  25    0     1001.8   NA       0.0000   9999     2760  0     0    
2019/08/18  19:46:03  BASE  3.92784  326  4.53936  322  -2.8  100   -2.8  25    0     1001.7   NA       0.0000   9999     2760  0     0    
2019/08/18  19:47:03  BASE  3.7044   329  4.53936  322  -2.8  100   -2.8  24    0     1001.7   NA       0.0000   9999     2850  0     0    
2019/08/18  19:48:02  BASE  3.68676  338  4.53936  322  -2.8  100   -2.8  23    0     1001.7   NA       0.0000   9999     2890  0     0    
2019/08/18  19:49:02  BASE  4.1454   339  4.83924  333  -2.8  100   -2.8  23    0     1001.6   NA       0.0000   9999     2850  0     0    
2019/08/18  19:50:02  BASE  4.03956  332  4.83924  333  -2.7  100   -2.7  23    0     1001.6   NA       0.0000   9999     2850  0     0    
2019/08/18  19:51:02  BASE  3.7044   331  4.86864  333  -2.7  100   -2.7  22    0     1001.7   NA       0.0000   9999     2850  0     0    
2019/08/18  19:52:03  BASE  3.72792  329  4.86864  333  -2.7  100   -2.7  21    0     1001.7   NA       0.0000   9999     2890  0     0    
2019/08/18  19:53:02  BASE  3.86316  320  4.86864  333  -2.7  100   -2.7  20    0     1001.7   NA       0.0000   9999     2890  0     0    
2019/08/18  19:54:03  BASE  4.04544  318  4.86864  333  -2.8  100   -2.8  20    0     1001.6   NA       0.0000   9999     2230  2850  0    
2019/08/18  19:55:03  BASE  3.68676  319  4.86864  333  -2.8  100   -2.8  20    0     1001.6   NA       0.0000   9999     1250  2170  2890 
2019/08/18  19:56:02  BASE  3.22812  325  4.86864  333  -2.8  100   -2.8  21    0     1001.6   NA       0.0000   9999     1210  2170  0    
2019/08/18  19:57:03  BASE  3.1164   331  4.86864  333  -2.8  100   -2.8  21    0     1001.6   NA       0.0000   9999     1120  2130  0    
2019/08/18  19:58:03  BASE  3.15168  330  4.86864  333  -2.8  100   -2.8  22    0     1001.6   NA       0.0000   9999     790   2030  0    
2019/08/18  19:59:02  BASE  3.55152  323  4.86864  333  -2.8  100   -2.8  22    0     1001.6   NA       0.0000   9999     660   1150  0    
2019/08/18  20:00:02  BASE  3.8514   318  4.86864  333  -2.8  100   -2.8  21    0     1001.6   NA       0.0000   9999     1080  1770  0    
2019/08/18  20:01:02  BASE  4.0278   315  4.89804  290  -2.8  100   -2.8  21    0     1001.6   NA       0.0000   9999     1020  2490  0    
2019/08/18  20:02:02  BASE  4.05132  316  4.89804  290  -2.8  100   -2.8  19    0     1001.6   NA       0.0000   9999     720   2530  0    
2019/08/18  20:03:03  BASE  4.02192  319  4.89804  290  -2.8  100   -2.8  17    0     1001.5   NA       0.0000   9999     690   2560  0    
2019/08/18  20:04:02  BASE  4.263    320  5.1744   319  -2.8  100   -2.8  15    0     1001.4   NA       0.0000   9999     660   2430  0    
2019/08/18  20:05:04  BASE  4.42764  317  5.1744   319  -2.8  100   -2.8  14    0     1001.4   NA       0.0000   9999     890   2430  0    
2019/08/18  20:06:03  BASE  4.263    317  5.1744   319  -2.8  100   -2.8  14    0     1001.4   NA       0.0000   9999     890   2400  0    
2019/08/18  20:07:03  BASE  4.0866   319  5.1744   319  -2.8  100   -2.8  14    0     1001.4   NA       0.0000   9999     790   2360  0    
2019/08/18  20:08:03  BASE  3.5868   318  5.1744   319  -2.8  100   -2.8  15    0     1001.4   NA       0.0000   9999     820   2430  0    
2019/08/18  20:09:02  BASE  3.35748  321  5.1744   319  -2.8  100   -2.8  15    0     1001.4   NA       0.0000   9999     750   2430  0    
2019/08/18  20:10:03  BASE  3.34572  321  5.1744   319  -2.8  100   -2.8  14    0     1001.4   NA       0.0000   9999     660   2400  0    
2019/08/18  20:11:02  BASE  3.39864  317  5.1744   319  -2.8  100   -2.8  13    0     1001.4   NA       0.0000   9999     750   2360  0    
2019/08/18  20:12:02  BASE  4.1454   316  5.80944  312  -2.8  100   -2.8  12    0     1001.3   NA       0.0000   9999     790   2330  0    
2019/08/18  20:13:02  BASE  4.31004  322  5.80944  312  -2.8  100   -2.8  11    0     1001.2   NA       0.0000   9999     690   2330  0    
2019/08/18  20:14:03  BASE  3.79848  331  5.80944  312  -2.8  100   -2.8  10    0     1001.1   NA       0.0000   9999     690   2330  0    
2019/08/18  20:15:03  BASE  3.75144  329  5.80944  312  -2.8  100   -2.8  9     0     1001.0   NA       0.0000   9999     660   2400  0    
2019/08/18  20:16:03  BASE  3.46332  325  5.80944  312  -2.8  100   -2.8  9     0     1001.1   NA       0.0000   9999     620   2460  0    
2019/08/18  20:17:03  BASE  3.19284  332  5.80944  312  -2.8  100   -2.8  8     0     1001.0   NA       0.0000   9999     590   2530  0    
2019/08/18  20:18:03  BASE  3.528    340  5.80944  312  -2.8  100   -2.8  8     0     1001.0   NA       0.0000   9999     620   0     0    
2019/08/18  20:19:03  BASE  3.61032  339  5.80944  312  -2.8  100   -2.8  8     0     1001.1   NA       0.0000   9999     560   0     0    
2019/08/18  20:20:03  BASE  3.42216  334  5.80944  312  -2.8  100   -2.8  8     0     1001.1   NA       0.0000   9999     520   0     0    
2019/08/18  20:21:03  BASE  3.3222   336  5.80944  312  -2.8  100   -2.8  8     0     1001.2   NA       0.0000   9999     560   0     0    
2019/08/18  20:22:03  BASE  3.087    328  4.65696  339  -2.9  100   -2.9  8     0     1001.3   NA       0.0000   9999     460   0     0    
2019/08/18  20:23:03  BASE  2.87532  319  4.65696  339  -2.8  100   -2.8  9     0     1001.3   NA       0.0000   9999     560   0     0    
2019/08/18  20:24:03  BASE  3.3222   316  4.65696  339  -2.8  100   -2.8  8     0     1001.3   NA       0.0000   9999     490   0     0    
2019/08/18  20:25:03  BASE  3.69264  312  4.65696  339  -2.8  100   -2.8  8     0     1001.4   NA       0.0000   9999     390   0     0    
2019/08/18  20:26:03  BASE  3.40452  317  4.65696  339  -2.8  100   -2.8  7     0     1001.4   NA       0.0000   9999     460   0     0    
2019/08/18  20:27:03  BASE  3.1458   316  4.65696  339  -2.8  100   -2.8  7     0     1001.5   NA       0.0000   9999     390   0     0    
2019/08/18  20:28:02  BASE  2.74596  318  4.50996  314  -2.8  100   -2.8  7     0     1001.6   NA       0.0000   9999     260   0     0    
2019/08/18  20:29:02  BASE  2.61072  317  4.50996  314  -2.8  100   -2.8  6     0     1001.6   NA       0.0000   9999     300   0     0    
2019/08/18  20:30:02  BASE  3.01644  307  4.50996  314  -2.8  100   -2.8  6     0     1001.6   NA       0.0000   9999     460   0     0    
2019/08/18  20:31:03  BASE  3.02232  311  4.50996  314  -2.8  100   -2.8  5     0     1001.6   NA       0.0000   9999     390   0     0    
2019/08/18  20:32:03  BASE  2.6166   316  4.50996  314  -2.8  100   -2.8  5     0     1001.7   NA       0.0000   9999     230   0     0    
2019/08/18  20:33:03  BASE  2.75772  302  4.50996  314  -2.8  100   -2.8  4     0     1001.7   NA       0.0000   9999     300   0     0    
2019/08/18  20:34:03  BASE  2.7636   296  4.2042   313  -2.8  100   -2.8  4     0     1001.7   NA       0.0000   9999     230   0     0    
2019/08/18  20:35:03  BASE  2.0286   293  3.83964  308  -2.8  100   -2.8  3     0     1001.7   NA       0.0000   9999     0     0     0    
2019/08/18  20:36:03  BASE  1.64052  298  3.75144  316  -2.8  100   -2.8  3     0     1001.7   NA       0.0000   9999     300   0     0    
2019/08/18  20:37:03  BASE  1.68168  315  3.75144  316  -2.8  100   -2.8  3     0     1001.7   NA       0.0000   9999     200   0     0    
2019/08/18  20:38:03  BASE  1.24068  307  3.75144  316  -2.8  100   -2.8  2     0     1001.7   NA       0.0000   9999     230   0     0    
2019/08/18  20:39:03  BASE  1.16424  305  3.75144  316  -2.8  100   -2.8  2     0     1001.7   NA       0.0000   7000     0     0     0    
2019/08/18  20:40:02  BASE  1.51116  321  3.75144  316  -2.8  100   -2.8  2     0     1001.8   NA       0.0000   9000     0     0     0    
2019/08/18  20:41:03  BASE  1.45236  311  3.59856  288  -2.8  100   -2.8  2     0     1001.8   NA       0.0000   8000     0     0     0    
2019/08/18  20:42:03  BASE  1.28184  303  3.59856  288  -2.9  100   -2.9  1     0     1001.8   NA       0.0000   BR       4100  0     0    
2019/08/18  20:43:03  BASE  1.18188  322  3.2046   305  -2.9  100   -2.9  1     0     1001.8   NA       0.0000   BR       3400  0     0    
2019/08/18  20:44:03  BASE  1.31712  332  2.0286   325  -2.9  100   -2.9  1     0     1001.8   NA       0.0000   BR       6000  0     0    
2019/08/18  20:45:03  BASE  1.19364  333  2.51076  336  -2.9  100   -2.9  1     0     1001.9   NA       0.0000   BR       7000  0     0    
2019/08/18  20:46:03  BASE  1.04076  332  2.51076  336  -2.9  100   -2.9  1     0     1002.0   NA       0.0000   BR       4600  0     0    
2019/08/18  20:47:03  BASE  0.87612  337  2.51076  336  -2.9  100   -2.9  1     0     1002.0   NA       0.0000   BR       3500  0     0    
2019/08/18  20:48:03  BASE  0.34692  342  2.51076  336  -2.9  100   -2.9  1     0     1002.1   NA       0.0000   BR       3200  0     0    
2019/08/18  20:49:03  BASE  0.05292  299  2.51076  336  -2.9  100   -2.9  1     0     1002.1   NA       0.0000   BR       3000  0     0    
2019/08/18  20:50:03  BASE  0.05292  213  2.51076  336  -2.9  100   -2.9  1     0     1002.1   NA       0.0000   BR       2500  0     0    
2019/08/18  20:51:03  BASE  0.05292  104  2.51076  336  -2.9  100   -2.9  1     0     1002.0   NA       0.0000   BR       1500  0     0    
2019/08/18  20:52:02  BASE  0.1176   56   2.51076  336  -2.9  100   -2.9  1     0     1002.0   NA       0.0000   BR       1300  0     0    
2019/08/18  20:53:02  BASE  0.47628  39   2.51076  336  -2.9  100   -2.9  1     0     1002.0   NA       0.0000   BR       1800  0     0    
2019/08/18  20:54:03  BASE  0.88788  28   2.51076  336  -2.9  100   -2.9  1     0     1001.9   NA       0.0000   BR       3200  0     0    
2019/08/18  20:55:02  BASE  0.92316  39   1.57584  330  -2.9  100   -2.9  1     0     1001.8   NA       0.0000   BR       4300  0     0    
2019/08/18  20:56:03  BASE  1.09368  47   1.51116  36   -2.9  100   -2.9  1     0     1001.8   NA       0.0000   BR       3500  0     0    
2019/08/18  20:57:03  BASE  1.32888  29   1.87572  2    -2.9  100   -2.9  1     0     1001.8   NA       0.0000   BR       3100  0     0    
2019/08/18  20:58:03  BASE  2.00508  13   2.87532  11   -2.9  100   -2.9  1     0     1001.8   NA       0.0000   BR       5000  0     0    
2019/08/18  20:59:02  BASE  2.74596  3    3.02232  351  -2.9  100   -2.9  1     0     1001.7   NA       0.0000   BR       9999  0     0    
2019/08/18  21:00:03  BASE  2.64012  354  3.02232  351  -2.9  100   -2.9  1     0     1001.7   NA       0.0000   BR       9999  0     0    
2019/08/18  21:01:02  BASE  2.16972  359  3.02232  351  -2.9  100   -2.9  1     0     1001.7   NA       0.0000   BR       9999  0     0    
2019/08/18  21:02:03  BASE  1.69932  10   3.02232  351  -2.9  100   -2.9  1     0     1001.7   NA       0.0000   BR       7000  0     0    
2019/08/18  21:03:03  BASE  1.76988  1    3.02232  351  -2.9  100   -2.9  1     0     1001.6   NA       0.0000   BR       5000  0     0    
2019/08/18  21:04:03  BASE  2.62836  340  3.44568  332  -2.9  100   -2.9  1     0     1001.7   NA       0.0000   BR       5000  0     0    
2019/08/18  21:05:04  BASE  3.25752  334  3.44568  332  -2.9  100   -2.9  1     0     1001.8   NA       0.0000   BR       5000  0     0    
2019/08/18  21:06:02  BASE  3.21048  331  3.44568  322  -2.9  100   -2.9  1     0     1001.8   NA       0.0000   BR       6000  0     0    
2019/08/18  21:07:03  BASE  2.74008  328  3.44568  322  -2.9  100   -2.9  1     0     1001.7   NA       0.0000   BR       7000  0     0    
2019/08/18  21:08:03  BASE  2.62248  339  3.44568  322  -2.9  100   -2.9  1     0     1001.8   NA       0.0000   BR       6000  0     0    
2019/08/18  21:09:02  BASE  2.8518   333  3.44568  322  -2.9  100   -2.9  1     0     1001.9   NA       0.0000   BR       7000  0     0    
2019/08/18  21:10:03  BASE  2.46372  320  3.44568  322  -2.9  100   -2.9  1     0     1001.9   NA       0.0000   BR       6000  0     0    
2019/08/18  21:11:03  BASE  1.91688  334  3.44568  322  -2.9  100   -2.9  1     0     1001.8   NA       0.0000   BR       4400  0     0    
2019/08/18  21:12:03  BASE  2.42844  341  3.56916  326  -2.9  100   -2.9  1     0     1001.7   NA       0.0000   BR       4200  0     0    
2019/08/18  21:13:03  BASE  3.06348  335  3.56916  326  -2.9  100   -2.9  1     0     1001.7   NA       0.0000   BR       9999  0     0    
2019/08/18  21:14:03  BASE  3.33984  328  4.96272  306  -2.9  100   -2.9  1     0     1001.7   NA       0.0000   BR       9999  0     0    
2019/08/18  21:15:03  BASE  3.48684  316  4.96272  306  -2.9  100   -2.9  1     0     1001.7   NA       0.0000   BR       9999  0     0    
2019/08/18  21:16:03  BASE  3.16344  310  4.96272  306  -2.9  100   -2.9  0     0     1001.7   NA       0.0000   BR       9999  0     0    
2019/08/18  21:17:02  BASE  2.98116  319  4.96272  306  -2.9  100   -2.9  0     0     1001.6   NA       0.0000   BR       9999  0     0    
2019/08/18  21:18:03  BASE  2.83416  321  4.96272  306  -2.9  100   -2.9  0     0     1001.7   NA       0.0000   BR       9999  0     0    
2019/08/18  21:19:02  BASE  2.84004  304  4.96272  306  -2.9  100   -2.9  0     0     1001.7   NA       0.0000   BR       9999  0     0    
2019/08/18  21:20:02  BASE  3.2928   307  4.96272  306  -2.9  100   -2.9  0     0     1001.7   NA       0.0000   BR       9999  200   2300 
2019/08/18  21:21:02  BASE  3.33396  323  4.96272  306  -2.9  100   -2.9  0     0     1001.6   NA       0.0000   BR       9999  200   2260 
2019/08/18  21:22:03  BASE  3.40452  312  5.2038   280  -2.9  100   -2.9  0     0     1001.6   NA       0.0000   9999     0     0     0    
2019/08/18  21:23:03  BASE  3.98664  293  5.2038   280  -2.8  100   -2.8  0     0     1001.5   NA       0.0000   9999     230   0     0    
2019/08/18  21:24:03  BASE  4.05132  290  5.2038   280  -2.8  100   -2.8  0     0     1001.5   NA       0.0000   9999     260   0     0    
2019/08/18  21:25:02  BASE  3.72792  298  5.2038   280  -2.8  100   -2.8  0     0     1001.5   NA       0.0000   9999     0     0     0    
2019/08/18  21:26:02  BASE  3.96312  310  5.86824  298  -2.8  100   -2.8  0     0     1001.4   NA       0.0000   9999     230   2300  0    
2019/08/18  21:27:03  BASE  4.116    312  5.86824  298  -2.8  100   -2.8  0     0     1001.5   NA       0.0000   9999     0     0     0    
2019/08/18  21:28:03  BASE  3.71028  314  5.86824  298  -2.8  100   -2.8  0     0     1001.6   NA       0.0000   9999     230   0     0    
2019/08/18  21:29:03  BASE  3.80436  321  5.86824  298  -2.8  100   -2.8  0     0     1001.6   NA       0.0000   9999     230   0     0    
2019/08/18  21:30:03  BASE  3.6456   305  5.86824  298  -2.8  100   -2.8  0     0     1001.7   NA       0.0000   9999     300   0     0    
2019/08/18  21:31:02  BASE  3.16344  269  5.86824  298  -2.8  100   -2.8  0     0     1001.8   NA       0.0000   9999     260   0     0    
2019/08/18  21:32:03  BASE  2.45784  264  5.86824  298  -2.8  100   -2.8  0     0     1001.8   NA       0.0000   9999     260   0     0    
2019/08/18  21:33:03  BASE  2.13444  293  5.86824  298  -2.8  100   -2.8  0     0     1001.8   NA       0.0000   9999     260   0     0    
2019/08/18  21:34:03  BASE  2.499    310  5.86824  298  -2.9  100   -2.9  0     0     1001.8   NA       0.0000   9999     260   0     0    
2019/08/18  21:35:03  BASE  2.68716  310  5.86824  298  -2.9  100   -2.9  0     0     1001.8   NA       0.0000   9999     260   0     0    
2019/08/18  21:36:02  BASE  2.45784  312  4.86864  348  -2.9  100   -2.9  0     0     1001.9   NA       0.0000   9999     200   0     0    
2019/08/18  21:37:03  BASE  2.26968  311  4.86864  348  -2.9  100   -2.9  0     0     1002.0   NA       0.0000   9999     230   0     0    
2019/08/18  21:38:03  BASE  2.38728  308  4.86864  348  -2.9  100   -2.9  0     0     1001.9   NA       0.0000   9999     230   0     0    
2019/08/18  21:39:03  BASE  2.53428  326  4.263    251  -2.9  100   -2.9  0     0     1001.8   NA       0.0000   9999     260   0     0    
2019/08/18  21:40:03  BASE  3.00468  346  4.263    251  -2.9  100   -2.9  0     0     1001.8   NA       0.0000   9999     230   0     0    
2019/08/18  21:41:03  BASE  3.4398   345  4.1454   349  -2.9  100   -2.9  0     0     1001.8   NA       0.0000   9999     260   0     0    
2019/08/18  21:42:03  BASE  3.33984  336  4.1454   349  -2.9  100   -2.9  0     0     1001.8   NA       0.0000   9999     260   0     0    
2019/08/18  21:43:03  BASE  3.06936  333  4.1454   349  -2.8  100   -2.8  0     0     1001.8   NA       0.0000   9999     230   0     0    
2019/08/18  21:44:02  BASE  3.22224  325  4.68636  321  -2.8  100   -2.8  0     0     1001.7   NA       0.0000   9999     230   0     0    
2019/08/18  21:45:02  BASE  3.822    325  5.47428  322  -2.8  100   -2.8  0     0     1001.6   NA       0.0000   9999     0     0     0    
2019/08/18  21:46:03  BASE  4.73928  329  5.59776  328  -2.9  100   -2.9  0     0     1001.4   NA       0.0000   9999     0     0     0    
2019/08/18  21:47:03  BASE  5.27436  326  5.99172  319  -2.9  100   -2.9  0     0     1001.4   NA       0.0000   9999     0     0     0    
2019/08/18  21:48:03  BASE  5.32728  325  6.02112  322  -2.9  100   -2.9  0     0     1001.4   NA       0.0000   9999     0     0     0    
2019/08/18  21:49:03  BASE  4.93332  330  6.02112  322  -2.9  100   -2.9  0     0     1001.6   NA       0.0000   9999     0     0     0    
2019/08/18  21:50:02  BASE  3.90432  340  6.02112  322  -2.9  100   -2.9  0     0     1001.8   NA       0.0000   9999     0     0     0    
2019/08/18  21:51:03  BASE  2.56956  339  6.02112  322  -2.9  100   -2.9  0     0     1001.9   NA       0.0000   9999     200   0     0    
2019/08/18  21:52:03  BASE  1.6758   340  6.02112  322  -2.9  100   -2.9  0     0     1002.0   NA       0.0000   9999     0     0     0    
2019/08/18  21:53:03  BASE  1.71108  353  6.02112  322  -2.9  100   -2.9  0     0     1002.0   NA       0.0000   9999     230   0     0    
2019/08/18  21:54:03  BASE  2.54016  7    6.02112  322  -2.9  100   -2.9  0     0     1001.9   NA       0.0000   9999     230   0     0    
2019/08/18  21:55:03  BASE  3.381    4    6.02112  322  -2.9  100   -2.9  0     0     1001.8   NA       0.0000   9999     200   0     0    
2019/08/18  21:56:03  BASE  3.46332  343  6.02112  322  -2.9  100   -2.9  0     0     1001.7   NA       0.0000   9999     230   0     0    
2019/08/18  21:57:03  BASE  2.85768  335  6.02112  322  -2.9  100   -2.9  0     0     1001.6   NA       0.0000   9999     0     0     0    
2019/08/18  21:58:03  BASE  2.48724  347  5.292    335  -2.9  100   -2.9  0     0     1001.8   NA       0.0000   9999     0     0     0    
2019/08/18  21:59:02  BASE  2.42256  352  4.08072  322  -2.9  100   -2.9  0     0     1001.9   NA       0.0000   9999     0     0     0    
2019/08/18  22:00:03  BASE  2.78712  354  4.08072  322  -2.9  100   -2.9  0     0     1001.9   NA       0.0000   9999     0     0     0    
2019/08/18  22:01:02  BASE  3.3516   352  4.08072  322  -2.9  100   -2.9  0     0     1001.8   NA       0.0000   9999     0     0     0    
2019/08/18  22:02:03  BASE  3.37512  355  4.08072  322  -2.9  100   -2.9  0     0     1001.7   NA       0.0000   9999     0     0     0    
2019/08/18  22:03:03  BASE  3.40452  5    4.08072  322  -2.9  100   -2.9  0     0     1001.6   NA       0.0000   9999     0     0     0    
2019/08/18  22:04:03  BASE  3.59268  9    4.116    348  -2.9  100   -2.9  0     0     1001.6   NA       0.0000   9999     200   0     0    
2019/08/18  22:05:04  BASE  3.969    0    5.2038   256  -2.9  100   -2.9  0     0     1001.6   NA       0.0000   9999     0     0     0    
2019/08/18  22:06:03  BASE  4.41     352  5.2038   256  -2.9  100   -2.9  0     0     1001.6   NA       0.0000   9999     0     0     0    
2019/08/18  22:07:07  BASE  4.12776  357  5.2038   256  -2.9  100   -2.9  0     0     1001.6   NA       0.0000   9999     0     0     0    
2019/08/18  22:08:04  BASE  3.78672  355  5.2038   256  -2.9  100   -2.9  0     0     1001.6   NA       0.0000   9999     0     0     0    
2019/08/18  22:09:04  BASE  4.09248  352  5.53308  326  -2.9  100   -2.9  0     0     1001.5   NA       0.0000   9999     0     0     0    
2019/08/18  22:10:03  BASE  4.80396  352  6.68556  353  -2.9  100   -2.9  0     0     1001.6   NA       0.0000   9999     0     0     0    
2019/08/18  22:11:03  BASE  4.48056  352  6.68556  353  -2.9  100   -2.9  0     0     1001.7   NA       0.0000   9999     0     0     0    
2019/08/18  22:12:03  BASE  3.2928   334  6.68556  353  -2.9  100   -2.9  0     0     1001.9   NA       0.0000   9999     0     0     0    
2019/08/18  22:13:02  BASE  2.32848  332  6.68556  353  -2.9  100   -2.9  0     0     1002.1   NA       0.0000   8000     0     0     0    
2019/08/18  22:14:02  BASE  2.01684  345  6.68556  353  -2.9  100   -2.9  0     0     1002.2   NA       0.0000   7000     0     0     0    
2019/08/18  22:15:03  BASE  2.4402   335  6.68556  353  -2.9  100   -2.9  0     0     1002.3   NA       0.0000   9000     0     0     0    
2019/08/18  22:16:03  BASE  2.34024  333  6.68556  353  -2.9  100   -2.9  0     0     1002.4   NA       0.0000   9999     0     0     0    
2019/08/18  22:17:02  BASE  1.86396  337  6.68556  353  -2.9  100   -2.9  0     0     1002.5   NA       0.0000   7000     0     0     0    
2019/08/18  22:18:03  BASE  1.911    336  6.68556  353  -2.9  100   -2.9  0     0     1002.5   NA       0.0000   BR       7000  0     0    
2019/08/18  22:19:03  BASE  2.2638   321  6.68556  353  -2.9  100   -2.9  0     0     1002.5   NA       0.0000   BR       8000  0     0    
2019/08/18  22:20:02  BASE  2.44608  301  6.02112  345  -2.9  100   -2.9  0     0     1002.6   NA       0.0000   BR       7000  0     0    
2019/08/18  22:21:02  BASE  2.36964  280  3.86904  308  -2.9  100   -2.9  0     0     1002.7   NA       0.0000   BR       6000  0     0    
2019/08/18  22:22:02  BASE  2.2344   264  3.29868  293  -3.0  100   -3.0  0     0     1002.6   NA       0.0000   BR       5000  0     0    
2019/08/18  22:23:02  BASE  2.42256  270  3.29868  293  -3.0  100   -3.0  0     0     1002.5   NA       0.0000   BR       5000  0     0    
2019/08/18  22:24:02  BASE  2.32848  277  3.29868  293  -3.0  100   -3.0  0     0     1002.5   NA       0.0000   BR       5000  0     0    
2019/08/18  22:25:02  BASE  1.80516  282  3.29868  293  -3.0  100   -3.0  0     0     1002.5   NA       0.0000   BR       4400  0     0    
2019/08/18  22:26:02  BASE  1.55232  292  3.29868  293  -3.0  100   -3.0  0     0     1002.5   NA       0.0000   BR       3600  0     0    
2019/08/18  22:27:02  BASE  2.01096  294  3.29868  293  -3.0  100   -3.0  0     0     1002.5   NA       0.0000   BR       3900  0     0    
2019/08/18  22:28:02  BASE  2.47548  282  3.29868  293  -3.0  100   -3.0  0     0     1002.6   NA       0.0000   BR       5000  0     0    
2019/08/18  22:29:02  BASE  2.499    274  3.29868  293  -3.0  100   -3.0  0     0     1002.6   NA       0.0000   BR       5000  0     0    
2019/08/18  22:30:02  BASE  2.59896  272  3.234    280  -3.0  100   -3.0  0     0     1002.6   NA       0.0000   BR       5000  0     0    
2019/08/18  22:31:02  BASE  2.45784  270  3.234    280  -3.0  100   -3.0  0     0     1002.6   NA       0.0000   BR       5000  0     0    
2019/08/18  22:32:02  BASE  2.3814   271  3.234    280  -3.0  100   -3.0  0     0     1002.7   NA       0.0000   BR       5000  0     0    
2019/08/18  22:33:03  BASE  2.41668  267  3.1458   269  -3.0  100   -3.0  0     0     1002.7   NA       0.0000   BR       5000  0     0    
2019/08/18  22:34:02  BASE  2.37552  259  3.29868  262  -3.0  100   -3.0  0     0     1002.8   NA       0.0000   BR       6000  0     0    
2019/08/18  22:35:02  BASE  2.74596  254  3.86904  255  -3.0  100   -3.0  0     0     1002.8   NA       0.0000   BR       7000  0     0    
2019/08/18  22:36:02  BASE  2.9988   263  3.86904  255  -3.0  100   -3.0  0     0     1002.7   NA       0.0000   BR       7000  0     0    
2019/08/18  22:37:02  BASE  2.90472  274  3.86904  255  -3.0  100   -3.0  0     0     1002.7   NA       0.0000   BR       8000  0     0    
2019/08/18  22:38:02  BASE  2.63424  268  3.86904  255  -3.0  100   -3.0  0     0     1002.8   NA       0.0000   BR       8000  0     0    
2019/08/18  22:39:03  BASE  2.38728  275  3.86904  255  -3.0  100   -3.0  0     0     1002.7   NA       0.0000   BR       8000  0     0    
2019/08/18  22:40:03  BASE  2.22852  290  3.86904  255  -3.0  100   -3.0  0     0     1002.7   NA       0.0000   BR       9999  0     0    
2019/08/18  22:41:02  BASE  2.44608  292  3.86904  255  -3.0  100   -3.0  0     0     1002.7   NA       0.0000   BR       9999  200   0    
2019/08/18  22:42:02  BASE  2.71656  290  3.86904  255  -3.1  100   -3.1  0     0     1002.7   NA       0.0000   BR       9999  0     0    
2019/08/18  22:43:02  BASE  2.55192  291  3.86904  255  -3.1  100   -3.1  0     0     1002.6   NA       0.0000   BR       9999  0     0    
2019/08/18  22:44:02  BASE  2.71656  305  3.86904  255  -3.1  100   -3.1  0     0     1002.5   NA       0.0000   BR       9999  0     0    
2019/08/18  22:45:03  BASE  2.97528  310  3.65736  251  -3.1  100   -3.1  0     0     1002.5   NA       0.0000   BR       9999  0     0    
2019/08/18  22:46:02  BASE  3.05172  290  3.75144  261  -3.1  100   -3.1  0     0     1002.6   NA       0.0000   BR       9999  200   0    
2019/08/18  22:47:02  BASE  2.42844  273  3.75144  261  -3.1  100   -3.1  0     0     1002.6   NA       0.0000   9999     200   0     0    
2019/08/18  22:48:02  BASE  1.95804  270  3.75144  261  -3.1  100   -3.1  0     0     1002.8   NA       0.0000   9999     200   0     0    
2019/08/18  22:49:02  BASE  1.74048  275  3.75144  261  -3.1  100   -3.1  0     0     1002.9   NA       0.0000   9999     230   0     0    
2019/08/18  22:50:02  BASE  1.3524   276  3.75144  261  -3.1  100   -3.1  0     0     1002.9   NA       0.0000   9000     230   0     0    
2019/08/18  22:51:02  BASE  1.76988  285  3.75144  261  -3.1  100   -3.1  0     0     1002.9   NA       0.0000   9999     260   0     0    
2019/08/18  22:52:02  BASE  2.35788  289  3.75144  261  -3.1  100   -3.1  0     0     1002.9   NA       0.0000   9999     230   0     0    
2019/08/18  22:53:03  BASE  2.45196  285  3.75144  261  -3.1  100   -3.1  0     0     1002.9   NA       0.0000   9999     230   0     0    
2019/08/18  22:54:02  BASE  2.06388  286  3.75144  261  -3.2  100   -3.2  0     0     1003.0   NA       0.0000   9999     200   0     0    
2019/08/18  22:55:03  BASE  1.7052   281  3.75144  261  -3.2  100   -3.2  0     0     1003.0   NA       0.0000   9999     200   0     0    
2019/08/18  22:56:02  BASE  1.43472  283  3.087    280  -3.2  100   -3.2  0     0     1003.0   NA       0.0000   BR       8000  0     0    
2019/08/18  22:57:02  BASE  1.3524   283  3.087    280  -3.2  100   -3.2  0     0     1003.1   NA       0.0000   BR       7000  0     0    
2019/08/18  22:58:03  BASE  1.62876  267  3.087    280  -3.2  100   -3.2  0     0     1003.2   NA       0.0000   BR       9000  200   0    
2019/08/18  22:59:02  BASE  1.72872  262  3.087    280  -3.2  100   -3.2  0     0     1003.1   NA       0.0000   BR       9000  230   0    
2019/08/18  23:00:02  BASE  1.91688  271  3.087    280  -3.2  100   -3.2  0     0     1003.0   NA       0.0000   BR       9999  0     0    
2019/08/18  23:01:02  BASE  2.13444  277  3.087    280  -3.2  100   -3.2  0     0     1002.8   NA       0.0000   BR       9999  200   0    
2019/08/18  23:02:02  BASE  2.205    289  3.087    280  -3.2  100   -3.2  0     0     1002.8   NA       0.0000   BR       9999  0     0    
2019/08/18  23:03:02  BASE  2.36376  298  2.90472  270  -3.2  100   -3.2  0     0     1002.9   NA       0.0000   BR       9999  230   0    
2019/08/18  23:04:02  BASE  2.48724  292  2.90472  282  -3.2  100   -3.2  0     0     1003.1   NA       0.0000   BR       9999  230   0    
2019/08/18  23:05:04  BASE  2.25792  281  2.90472  282  -3.2  100   -3.2  0     0     1003.2   NA       0.0000   BR       9999  230   0    
2019/08/18  23:06:02  BASE  1.66404  273  2.90472  282  -3.2  100   -3.2  0     0     1003.3   NA       0.0000   9999     300   0     0    
2019/08/18  23:07:02  BASE  1.4994   261  2.90472  282  -3.2  100   -3.2  0     0     1003.3   NA       0.0000   9999     330   0     0    
2019/08/18  23:08:02  BASE  2.04036  255  3.2046   254  -3.2  100   -3.2  0     0     1003.3   NA       0.0000   9999     300   0     0    
2019/08/18  23:09:02  BASE  2.59896  260  3.35748  235  -3.2  100   -3.2  0     0     1003.2   NA       0.0000   9999     260   0     0    
2019/08/18  23:10:02  BASE  2.75184  276  3.35748  235  -3.2  100   -3.2  0     0     1003.2   NA       0.0000   9999     230   0     0    
2019/08/18  23:11:02  BASE  2.65188  290  3.35748  235  -3.2  100   -3.2  0     0     1003.2   NA       0.0000   9999     0     0     0    
2019/08/18  23:12:02  BASE  2.38728  291  3.35748  235  -3.3  100   -3.3  0     0     1003.2   NA       0.0000   9999     0     0     0    
2019/08/18  23:13:02  BASE  2.51076  293  4.68636  251  -3.3  100   -3.3  0     0     1003.2   NA       0.0000   9999     260   820   0    
2019/08/18  23:14:02  BASE  3.32808  273  4.68636  251  -3.3  100   -3.3  0     0     1003.2   NA       0.0000   9999     620   0     0    
2019/08/18  23:15:02  BASE  3.22812  267  4.68636  251  -3.3  100   -3.3  0     0     1003.2   NA       0.0000   9999     520   0     0    
2019/08/18  23:16:02  BASE  2.7048   305  4.68636  251  -3.3  100   -3.3  0     0     1003.0   NA       0.0000   9999     300   1020  0    
2019/08/18  23:17:02  BASE  2.61072  337  4.68636  251  -3.3  100   -3.3  0     0     1002.9   NA       0.0000   9999     460   0     0    
2019/08/18  23:18:03  BASE  2.352    346  4.68636  251  -3.4  100   -3.4  0     0     1002.9   NA       0.0000   9999     560   0     0    
2019/08/18  23:19:02  BASE  1.92864  347  4.68636  251  -3.4  100   -3.4  0     0     1003.0   NA       0.0000   9999     560   0     0    
2019/08/18  23:20:02  BASE  1.60524  0    4.68636  251  -3.5  100   -3.5  0     0     1003.2   NA       0.0000   9999     460   0     0    
2019/08/18  23:21:02  BASE  2.03448  20   4.68636  251  -3.5  100   -3.5  0     0     1003.3   NA       0.0000   9999     690   0     0    
2019/08/18  23:22:02  BASE  2.49312  34   4.68636  251  -3.5  100   -3.5  0     0     1003.4   NA       0.0000   9999     690   0     0    
2019/08/18  23:23:02  BASE  2.5284   27   4.47468  239  -3.5  100   -3.5  0     0     1003.4   NA       0.0000   9999     560   0     0    
2019/08/18  23:24:02  BASE  2.61072  19   3.32808  258  -3.4  100   -3.4  0     0     1003.4   NA       0.0000   9999     390   0     0    
2019/08/18  23:25:02  BASE  3.0282   15   3.59856  5    -3.4  100   -3.4  0     0     1003.3   NA       0.0000   9999     360   0     0    
2019/08/18  23:26:02  BASE  3.63972  11   4.29828  7    -3.4  100   -3.4  0     0     1003.2   NA       0.0000   9999     460   0     0    
2019/08/18  23:27:02  BASE  4.26888  7    5.35668  5    -3.4  100   -3.4  0     0     1003.2   NA       0.0000   9999     490   0     0    
2019/08/18  23:28:02  BASE  4.5864   4    5.35668  5    -3.4  100   -3.4  0     0     1003.3   NA       0.0000   9999     520   0     0    
2019/08/18  23:29:02  BASE  4.19244  5    5.35668  5    -3.3  100   -3.3  0     0     1003.4   NA       0.0000   9999     620   0     0    
2019/08/18  23:30:03  BASE  3.86904  353  5.35668  5    -3.3  100   -3.3  0     0     1003.4   NA       0.0000   9999     560   0     0    
2019/08/18  23:31:02  BASE  4.01604  348  5.35668  5    -3.3  100   -3.3  0     0     1003.4   NA       0.0000   9999     560   0     0    
2019/08/18  23:32:02  BASE  4.3806   350  5.35668  5    -3.3  100   -3.3  0     0     1003.4   NA       0.0000   9999     590   0     0    
2019/08/18  23:33:02  BASE  4.59816  348  5.35668  5    -3.2  100   -3.2  0     0     1003.4   NA       0.0000   9999     620   0     0    
2019/08/18  23:34:02  BASE  4.31004  352  5.35668  5    -3.2  100   -3.2  0     0     1003.5   NA       0.0000   9999     660   0     0    
2019/08/18  23:35:02  BASE  3.94548  354  5.35668  5    -3.2  100   -3.2  0     0     1003.5   NA       0.0000   9999     620   0     0    
2019/08/18  23:36:03  BASE  3.86316  350  5.35668  5    -3.2  100   -3.2  0     0     1003.6   NA       0.0000   9999     490   0     0    
2019/08/18  23:37:02  BASE  3.63384  348  5.145    222  -3.2  100   -3.2  0     0     1003.7   NA       0.0000   9999     460   0     0    
2019/08/18  23:38:02  BASE  2.89296  352  5.145    222  -3.2  100   -3.2  0     0     1003.7   NA       0.0000   9999     430   0     0    
2019/08/18  23:39:02  BASE  2.54016  357  5.145    222  -3.2  100   -3.2  0     0     1003.6   NA       0.0000   9999     490   0     0    
2019/08/18  23:40:02  BASE  3.19872  360  5.145    222  -3.2  100   -3.2  0     0     1003.6   NA       0.0000   9999     490   0     0    
2019/08/18  23:41:03  BASE  3.69852  1    5.145    222  -3.1  100   -3.1  0     0     1003.5   NA       0.0000   9999     460   0     0    
2019/08/18  23:42:02  BASE  4.01604  359  5.02152  1    -3.1  100   -3.1  0     0     1003.5   NA       0.0000   9999     430   0     0    
2019/08/18  23:43:02  BASE  4.42764  348  5.02152  1    -3.1  100   -3.1  0     0     1003.4   NA       0.0000   9999     520   0     0    
2019/08/18  23:44:03  BASE  3.9396   333  5.02152  1    -3.1  100   -3.1  0     0     1003.5   NA       0.0000   9999     590   0     0    
2019/08/18  23:45:02  BASE  2.5872   340  5.02152  1    -3.1  100   -3.1  0     0     1003.6   NA       0.0000   9999     560   0     0    
2019/08/18  23:46:02  BASE  2.06388  352  5.02152  1    -3.1  100   -3.1  0     0     1003.7   NA       0.0000   9999     520   0     0    
2019/08/18  23:47:02  BASE  2.66952  345  5.02152  1    -3.1  100   -3.1  0     0     1003.8   NA       0.0000   9999     560   0     0    
2019/08/18  23:48:02  BASE  2.8812   340  5.02152  1    -3.1  100   -3.1  0     0     1003.9   NA       0.0000   9999     490   0     0    
2019/08/18  23:49:02  BASE  2.97528  342  5.02152  1    -3.1  100   -3.1  0     0     1004.0   NA       0.0000   9999     520   0     0    
2019/08/18  23:50:02  BASE  3.09288  334  5.02152  1    -3.1  100   -3.1  0     0     1004.0   NA       0.0000   9999     490   0     0    
2019/08/18  23:51:02  BASE  3.4986   327  5.08032  312  -3.1  100   -3.1  0     0     1004.0   NA       0.0000   9999     490   0     0    
2019/08/18  23:52:02  BASE  4.39236  321  6.53268  309  -3.2  100   -3.2  0     0     1004.0   NA       0.0000   9999     560   0     0    
2019/08/18  23:53:02  BASE  3.77496  325  6.53268  309  -3.2  100   -3.2  0     0     1004.1   NA       0.0000   9999     390   0     0    
2019/08/18  23:54:02  BASE  3.234    338  6.53268  309  -3.2  100   -3.2  0     0     1004.1   NA       0.0000   9999     490   0     0    
2019/08/18  23:55:02  BASE  3.46332  342  6.53268  309  -3.2  100   -3.2  0     0     1004.1   NA       0.0000   9999     520   0     0    
2019/08/18  23:56:03  BASE  3.675    347  6.53268  309  -3.2  100   -3.2  0     0     1004.1   NA       0.0000   9999     490   0     0    
2019/08/18  23:57:02  BASE  3.75144  346  6.53268  309  -3.2  100   -3.2  0     0     1004.1   NA       0.0000   9999     590   0     0    
2019/08/18  23:58:03  BASE  3.33984  339  6.53268  309  -3.2  100   -3.2  0     0     1004.2   NA       0.0000   9999     490   0     0    
2019/08/18  23:59:02  BASE  3.15168  329  6.53268  309  -3.2  100   -3.2  0     0     1004.2   NA       0.0000   9999     560   0     0